[[{"header":{"parameterUnit":"m.s-1","parameterCategory":1,"la1":30.6,"la2":28.766,"lo1":-90.7593,"lo2":-88.6598,"dy":0.0162,"dx":0.0183,"nx":116,"ny":114,"refTime":"2023-08-03T12:00:00:Z","depth":0,"parameterNumber":2,"parameterNumberName":"U-component_of_WINDS"},"data":[0.0,0.0,0.0,0.0,0.0,0.0,0.0,0.0,0.0,0.0,0.0,0.0,0.0,0.0,0.0,0.0,0.0,0.0,0.0,0.0,0.0,0.0,0.0,0.0,0.0,0.0,0.0,0.0,0.0,0.0,0.0,0.0,0.0,0.0,0.0,0.0,0.0,0.0,0.0,0.0,0.0,0.0,0.0,0.0,0.0,0.0,0.0,0.0,0.0,0.0,0.0,0.0,0.0,0.0,0.0,0.0,0.0,0.0,0.0,0.0,0.0,0.0,0.0,0.0,0.0,0.0,0.0,0.0,0.0,0.0,0.0,0.0,0.0,0.0,0.0,0.0,0.0,0.0,0.0,0.0,0.0,0.0,0.0,0.0,0.0,0.0,0.0,0.0,0.0,0.0,0.0,0.0,0.0,0.0,0.0,0.0,0.0,0.0,0.0,0.0,0.0,0.0,0.0,0.0,0.0,0.0,0.0,0.0,0.0,0.0,0.0,0.0,0.0,0.0,0.0,0.0,0.0,0.0,0.0,0.0,0.0,0.0,0.0,0.0,0.0,0.0,0.0,0.0,0.0,0.0,0.0,0.0,0.0,0.0,0.0,0.0,0.0,0.0,0.0,0.0,0.0,0.0,0.0,0.0,0.0,0.0,0.0,0.0,0.0,0.0,0.0,0.0,0.0,0.0,0.0,0.0,0.0,0.0,0.0,0.0,0.0,0.0,0.0,0.0,0.0,0.0,0.0,0.0,0.0,0.0,0.0,0.0,0.0,0.0,0.0,0.0,0.0,0.0,0.0,0.0,0.0,0.0,0.0,0.0,0.0,0.0,0.0,0.0,0.0,0.0,0.0,0.0,0.0,0.0,0.0,0.0,0.0,0.0,0.0,0.0,0.0,0.0,0.0,0.0,0.0,0.0,0.0,0.0,0.0,0.0,0.0,0.0,0.0,0.0,0.0,0.0,0.0,0.0,0.0,0.0,0.0,0.0,0.0,0.0,0.0,0.0,0.0,0.0,0.0,0.0,0.0,0.0,0.0,0.0,0.0,0.0,0.0,0.0,0.0,0.0,0.0,0.0,0.0,0.0,0.0,0.0,0.0,0.0,0.0,0.0,0.0,0.0,0.0,0.0,0.0,0.0,0.0,0.0,0.0,0.0,0.0,0.0,0.0,0.0,0.0,0.0,0.0,0.0,0.0,0.0,0.0,0.0,0.0,0.0,0.0,0.0,0.0,0.0,0.0,0.0,0.0,0.0,0.0,0.0,0.0,0.0,0.0,0.0,0.0,0.0,0.0,0.0,0.0,0.0,0.0,0.0,0.0,0.0,0.0,0.0,0.0,0.0,0.0,0.0,0.0,0.0,0.0,0.0,0.0,0.0,0.0,0.0,0.0,0.0,0.0,0.0,0.0,0.0,0.0,0.0,0.0,0.0,0.0,0.0,0.0,0.0,0.0,0.0,0.0,0.0,0.0,0.0,0.0,0.0,0.0,0.0,0.0,0.0,0.0,0.0,0.0,0.0,0.0,0.0,0.0,0.0,0.0,0.0,0.0,0.0,0.0,0.0,0.0,0.0,0.0,0.0,0.0,0.0,0.0,0.0,0.0,0.0,0.0,0.0,0.0,0.0,0.0,0.0,0.0,0.0,0.0,0.0,0.0,0.0,0.0,0.0,0.0,0.0,0.0,0.0,0.0,0.0,0.0,0.0,0.0,0.0,0.0,0.0,0.0,0.0,0.0,0.0,0.0,0.0,0.0,0.0,0.0,0.0,0.0,0.0,0.0,0.0,0.0,0.0,0.0,0.0,0.0,0.0,0.0,0.0,0.0,0.0,0.0,0.0,0.0,0.0,0.0,0.0,0.0,0.0,0.0,0.0,0.0,0.0,0.0,0.0,0.0,0.0,0.0,0.0,0.0,0.0,0.0,0.0,0.0,0.0,0.0,0.0,0.0,0.0,0.0,0.0,0.0,0.0,0.0,0.0,0.0,0.0,0.0,0.0,0.0,0.0,0.0,0.0,0.0,0.0,0.0,0.0,0.0,0.0,0.0,0.0,0.0,0.0,0.0,0.0,0.0,0.0,0.0,0.0,0.0,0.0,0.0,0.0,0.0,0.0,0.0,0.0,0.0,0.0,0.0,0.0,0.0,0.0,0.0,0.0,0.0,0.0,0.0,0.0,0.0,0.0,0.0,0.0,0.0,0.0,0.0,0.0,0.0,0.0,0.0,0.0,0.0,0.0,0.0,0.0,0.0,0.0,0.0,0.0,0.0,0.0,0.0,0.0,0.0,0.0,0.0,0.0,0.0,0.0,0.0,0.0,0.0,0.0,0.0,0.0,0.0,0.0,0.0,0.0,0.0,0.0,0.0,0.0,0.0,0.0,0.0,0.0,0.0,0.0,0.0,0.0,0.0,0.0,0.0,0.0,0.0,0.0,0.0,0.0,0.0,0.0,0.0,0.0,0.0,0.0,0.0,0.0,0.0,0.0,0.0,0.0,0.0,0.0,0.0,0.0,0.0,0.0,0.0,0.0,0.0,0.0,0.0,0.0,0.0,0.0,0.0,0.0,0.0,0.0,0.0,0.0,0.0,0.0,0.0,0.0,0.0,0.0,0.0,0.0,0.0,0.0,0.0,0.0,0.0,0.0,0.0,0.0,0.0,0.0,0.0,0.0,0.0,0.0,0.0,0.0,0.0,0.0,0.0,0.0,0.0,0.0,0.0,0.0,0.0,0.0,0.0,0.0,0.0,0.0,0.0,0.0,0.0,0.0,0.0,0.0,0.0,0.0,0.0,0.0,0.0,0.0,0.0,0.0,0.0,0.0,0.0,0.0,0.0,0.0,0.0,0.0,0.0,0.0,0.0,0.0,0.0,0.0,0.0,0.0,0.0,0.0,0.0,0.0,0.0,0.0,0.0,0.0,0.0,0.0,0.0,0.0,0.0,0.0,0.0,0.0,0.0,0.0,0.0,0.0,0.0,0.0,0.0,0.0,0.0,0.0,0.0,0.0,0.0,0.0,0.0,0.0,0.0,0.0,0.0,0.0,0.0,0.0,0.0,0.0,0.0,0.0,0.0,0.0,0.0,0.0,0.0,0.0,0.0,0.0,0.0,0.0,0.0,0.0,0.0,0.0,0.0,0.0,0.0,0.0,0.0,0.0,0.0,0.0,0.0,0.0,0.0,0.0,0.0,0.0,0.0,0.0,0.0,0.0,0.0,0.0,0.0,0.0,0.0,0.0,0.0,0.0,0.0,0.0,0.0,0.0,0.0,0.0,0.0,0.0,0.0,0.0,0.0,0.0,0.0,0.0,0.0,0.0,0.0,0.0,0.0,0.0,0.0,0.0,0.0,0.0,0.0,0.0,0.0,0.0,0.0,0.0,0.0,0.0,0.0,0.0,0.0,0.0,0.0,0.0,0.0,0.0,0.0,0.0,0.0,0.0,0.0,0.0,0.0,0.0,0.0,0.0,0.0,0.0,0.0,0.0,0.0,0.0,0.0,0.0,0.0,0.0,0.0,0.0,0.0,0.0,0.0,0.0,0.0,0.0,0.0,0.0,0.0,0.0,0.0,0.0,0.0,0.0,0.0,0.0,0.0,0.0,0.0,0.0,0.0,0.0,0.0,0.0,0.0,0.0,0.0,0.0,0.0,0.0,0.0,0.0,0.0,0.0,0.0,0.0,0.0,0.0,0.0,0.0,0.0,0.0,0.0,0.0,0.0,0.0,0.0,0.0,0.0,0.0,0.0,0.0,0.0,0.0,0.0,0.0,0.0,0.0,0.0,0.0,0.0,0.0,0.0,0.0,0.0,0.0,0.0,0.0,0.0,0.0,0.0,0.0,0.0,0.0,0.0,0.0,0.0,0.0,0.0,0.0,0.0,0.0,0.0,0.0,0.0,0.0,0.0,0.0,0.0,0.0,0.0,0.0,0.0,0.0,0.0,0.0,0.0,0.0,0.0,0.0,0.0,0.0,0.0,0.0,0.0,0.0,0.0,0.0,0.0,0.0,0.0,0.0,0.0,0.0,0.0,0.0,0.0,0.0,0.0,0.0,0.0,0.0,0.0,0.0,0.0,0.0,0.0,0.0,0.0,0.0,0.0,0.0,0.0,0.0,0.0,0.0,0.0,0.0,0.0,0.0,0.0,0.0,0.0,0.0,0.0,0.0,0.0,0.0,0.0,0.0,0.0,0.0,0.0,0.0,0.0,0.0,0.0,0.0,0.0,0.0,0.0,0.0,0.0,0.0,0.0,0.0,0.0,0.0,0.0,0.0,0.0,0.0,0.0,0.0,0.0,0.0,0.0,0.0,0.0,0.0,0.0,0.0,0.0,0.0,0.0,0.0,0.0,0.0,0.0,0.0,0.0,0.0,0.0,0.0,0.0,0.0,0.0,0.0,0.0,0.0,0.0,0.0,0.0,0.0,0.0,0.0,0.0,0.0,0.0,0.0,0.0,0.0,0.0,0.0,0.0,0.0,0.0,0.0,0.0,0.0,0.0,0.0,0.0,0.0,0.0,0.0,0.0,0.0,0.0,0.0,0.0,0.0,0.0,0.0,0.0,0.0,0.0,0.0,0.0,0.0,0.0,0.0,0.0,0.0,0.0,0.0,0.0,0.0,0.0,0.0,0.0,0.0,0.0,0.0,0.0,0.0,0.0,0.0,0.0,0.0,0.0,0.0,0.0,0.0,0.0,0.0,0.0,0.0,0.0,0.0,0.0,0.0,0.0,0.0,0.0,0.0,0.0,0.0,0.0,0.0,0.0,0.0,0.0,0.0,0.0,0.0,0.0,0.0,0.0,0.0,0.0,0.0,0.0,0.0,0.0,0.0,0.0,0.0,0.0,0.0,0.0,0.0,0.0,0.0,0.0,0.0,0.0,0.0,0.0,0.0,0.0,0.0,0.0,0.0,0.0,0.0,0.0,0.0,0.0,0.0,0.0,0.0,0.0,0.0,0.0,0.0,0.0,0.0,0.0,0.0,0.0,0.0,0.0,0.0,0.0,0.0,0.0,0.0,0.0,0.0,0.0,0.0,0.0,0.0,0.0,0.0,0.0,0.0,0.0,0.0,0.0,0.0,0.0,0.0,0.0,0.0,0.0,0.0,0.0,0.0,0.0,0.0,0.0,0.0,0.0,0.0,0.0,0.0,0.0,0.0,0.0,0.0,0.0,0.0,0.0,0.0,0.0,0.0,0.0,0.0,0.0,0.0,0.0,0.0,0.0,0.0,0.0,0.0,0.0,0.0,0.0,0.0,0.0,0.0,0.0,0.0,0.0,0.0,0.0,0.0,0.0,0.0,0.0,0.0,0.0,0.0,0.0,0.0,0.0,0.0,0.0,0.0,0.0,0.0,0.0,0.0,0.0,0.0,0.0,0.0,0.0,0.0,0.0,0.0,0.0,0.0,0.0,0.0,0.0,0.0,0.0,0.0,0.0,0.0,0.0,0.0,0.0,0.0,0.0,0.0,0.0,0.0,0.0,0.0,0.0,0.0,0.0,0.0,0.0,0.0,0.0,0.0,0.0,0.0,0.0,0.0,0.0,0.0,0.0,0.0,0.0,0.0,0.0,0.0,0.0,0.0,0.0,0.0,0.0,0.0,0.0,0.0,0.0,0.0,0.0,0.0,0.0,0.0,0.0,0.0,0.0,0.0,0.0,0.0,0.0,0.0,0.0,0.0,0.0,0.0,0.0,0.0,0.0,0.0,0.0,0.0,0.0,0.0,0.0,0.0,0.0,0.0,0.0,0.0,0.0,0.0,0.0,0.0,0.0,0.0,0.0,0.0,0.0,0.0,0.0,0.0,0.0,0.0,0.0,0.0,0.0,0.0,0.0,0.0,0.0,0.0,0.0,0.0,0.0,0.0,0.0,0.0,0.0,0.0,0.0,0.0,0.0,0.0,0.0,0.0,0.0,0.0,0.0,0.0,0.0,0.0,0.0,0.0,0.0,0.0,0.0,0.0,0.0,0.0,0.0,0.0,0.0,0.0,0.0,0.0,0.0,0.0,0.0,0.0,0.0,0.0,0.0,0.0,0.0,0.0,0.0,0.0,0.0,0.0,0.0,0.0,0.0,0.0,0.0,0.0,0.0,0.0,0.0,0.0,0.0,0.0,-0.0,0.0,0.0,0.0,0.0,0.0,0.0,0.0,0.0,0.0,0.0,0.0,0.0,0.0,0.0,0.0,0.0,0.0,0.0,0.0,0.0,0.0,0.0,0.0,0.0,0.0,0.0,0.0,0.0,0.0,0.0,0.0,0.0,0.0,0.0,0.0,0.0,0.0,0.0,0.0,0.0,0.0,0.0,0.0,0.0,0.0,0.0,0.0,0.0,0.0,0.0,0.0,0.0,0.0,0.0,0.0,0.0,0.0,0.0,0.0,0.0,0.0,0.0,0.0,0.0,0.0,0.0,0.0,0.0,0.0,0.0,0.0,0.0,0.0,0.0,0.0,0.0,0.0,0.0,0.0,0.0,0.0,0.0,0.0,0.0,0.0,0.0,0.0,0.0,0.0,0.0,0.0,0.0,0.0,0.0,0.0,0.0,0.0,0.0,0.0,0.0,0.0,0.0,0.0,0.0,0.0,0.0,0.0,0.0,0.0,0.0,0.0,0.0,0.0,0.0,0.0,0.0,-0.0,0.0,0.0,0.0,0.0,0.0,0.0,0.0,0.0,0.0,0.0,0.0,0.0,0.0,0.0,0.0,0.0,0.0,0.0,0.0,0.0,0.0,0.0,0.0,0.0,0.0,0.0,0.0,0.0,0.0,0.0,0.0,0.0,0.0,0.0,0.0,0.0,0.0,0.0,0.0,0.0,0.0,0.0,0.0,0.0,0.0,0.0,0.0,0.0,0.0,0.0,0.0,0.0,0.0,0.0,0.0,0.0,0.0,0.0,0.0,0.0,0.0,0.0,0.0,0.0,0.0,0.0,0.0,0.0,0.0,0.0,0.0,0.0,0.0,0.0,0.0,0.0,0.0,0.0,0.0,0.0,0.0,0.0,0.0,0.0,0.0,0.0,0.0,0.0,0.0,0.0,0.0,0.0,0.0,0.0,0.0,0.0,0.0,0.0,0.0,0.0,0.0,0.0,0.0,0.0,0.0,0.0,0.0,0.0,-0.0,-0.0,-0.0,-0.0,-0.0,-0.0,-0.0,-0.0,-0.0,-0.0,0.0,0.0,0.0,0.0,0.0,0.0,0.0,0.0,0.0,0.0,0.0,0.0,0.0,0.0,0.0,0.0,0.0,0.0,0.0,0.0,0.0,0.0,0.0,0.0,0.0,0.0,0.0,0.0,0.0,0.0,0.0,0.0,0.0,0.0,0.0,0.0,0.0,0.0,-0.5473,-0.5693,-0.5955,-0.6115,-0.5522,0.0,0.0,0.0,0.0,0.0,0.0,0.0,0.0,0.0,0.0,0.0,0.0,0.0,0.0,0.0,0.0,0.0,0.0,0.0,0.0,0.0,0.0,0.0,0.0,0.0,0.0,0.0,0.0,0.0,0.0,0.0,0.0,0.0,0.0,0.0,0.0,0.0,0.0,0.0,0.0,0.0,0.0,0.0,-0.0539,-0.0067,0.0,0.0,0.0,0.0,0.0,0.0,0.0,0.0,0.0,0.0,0.0,0.0,0.0,-0.0,-0.0,-0.0,-0.0,-0.0,-0.0,-0.0,-0.0,-0.0,-0.0,-0.0,-0.0,0.0,-0.0,-0.0,0.0,0.0,0.0,0.0,0.0,0.0,0.0,0.0,0.0,0.0,0.0,0.0,0.0,0.0,0.0,0.0,0.0,0.0,0.0,0.0,0.0,0.0,0.0,0.0,0.0,0.0,0.0,0.0,0.0,0.0,0.0,0.0,0.0,0.0,0.0,0.0,-0.5231,-0.5403,-0.5616,-0.5918,-0.6139,-0.6268,-0.6003,-0.5901,-0.5915,-0.5698,0.0,0.0,0.0,0.0,0.0,0.0,0.0,0.0,0.0,0.0,0.0,0.0,0.0,0.0,0.0,0.0,0.0,0.0,0.0,0.0,0.0,0.0,0.0,0.0,0.0,0.0,0.0,0.0,0.0,0.0,0.0,0.0,0.0,0.0,0.0,0.0,0.0,0.0,0.0,-0.0,-0.0,-0.0,-0.0,-0.0,0.0,0.0,0.0,0.0,0.0,0.0,0.0,0.0,0.0,-0.0,-0.0,-0.0,-0.0,-0.0,-0.0,-0.0,-0.0,-0.0,-0.0,-0.0,-0.0,-0.0,-0.0,-0.0,-0.0,-0.0,-0.0,-0.0,0.0,0.0,0.0,0.0,-0.0,-0.0,0.0,0.0,0.0,0.0,0.0,0.0,0.0,0.0,0.0,0.0,0.0,0.0,0.0,0.0,0.0,-0.8918,0.0,0.0,0.0,0.0,0.0,0.0,0.0,0.0,0.0,0.0,0.0,0.0,-0.5481,-0.5833,-0.6095,-0.6363,-0.6583,-0.6759,-0.6759,-0.6593,-0.6295,-0.603,-0.5878,0.0,0.0,0.0,0.0,0.0,0.0,0.0,0.0,0.0,0.0,0.0,0.0,0.0,0.0,0.0,0.0,0.0,0.0,0.0,0.0,0.0,0.0,0.0,0.0,0.0,0.0,0.0,0.0,0.0,0.0,0.0,0.0,0.0,0.0,0.0,0.0,0.0,0.0,-0.0,-0.0,-0.0,-0.0,-0.0,0.0,0.0,0.0,0.0,0.0,0.0,-0.0,-0.0,-0.0,-0.0,-0.0,-0.0,-0.0,-0.0,-0.0,-0.0,-0.0,-0.0,-0.0,-0.0,-0.0,-0.0,-0.0,-0.0,-0.0,-0.0,-0.0,-0.0,-0.0,-0.0,-0.0,-0.0,-0.0,-0.0,0.0,0.0,0.0,0.0,0.0,0.0,0.0,0.0,0.0,0.0,0.0,0.0,0.0,0.0,-0.9163,-0.9163,-0.9176,-0.9176,0.0,0.0,0.0,0.0,0.0,0.0,0.0,0.0,0.0,-0.5404,-0.5789,-0.6305,-0.6875,-0.7024,-0.7255,-0.7543,-0.7543,-0.7373,-0.7048,-0.6478,-0.6312,-0.638,0.0,0.0,0.0,0.0,0.0,0.0,0.0,0.0,0.0,0.0,0.0,0.0,0.0,0.0,0.0,0.0,0.0,0.0,0.0,0.0,0.0,0.0,0.0,0.0,0.0,0.0,0.0,0.0,0.0,0.0,0.0,0.0,0.0,0.0,0.0,0.0,0.0,0.0,0.0,-0.0,-0.0,0.0,0.0,0.0,0.0,-0.0,-0.0,-0.0,-0.0,-0.0,-0.0,-0.0,-0.0,-0.0,-0.0,-0.0,-0.0,-0.0,-0.0,-0.0,-0.0,-0.0,-0.0,-0.0,-0.0,-0.0,-0.0,-0.0,-0.0,-0.0,-0.0,-0.0,-0.0,-0.0,-0.0,-0.0,0.0,0.0,0.0,0.0,0.0,0.0,0.0,0.0,0.0,0.0,0.0,0.0,0.0,-0.9123,-0.9336,-0.9766,-0.9633,-0.9526,-0.9526,0.0,0.0,0.0,0.0,0.0,0.0,0.0,-0.5855,-0.5793,-0.6339,-0.6766,-0.7068,-0.7319,-0.7597,-0.7882,-0.7882,-0.7879,-0.7821,-0.7122,-0.6746,-0.6576,-0.6074,-0.5783,0.0,0.0,0.0,0.0,0.0,0.0,0.0,0.0,0.0,0.0,0.0,0.0,0.0,0.0,0.0,0.0,0.0,0.0,0.0,0.0,0.0,0.0,0.0,0.0,0.0,0.0,0.0,0.0,0.0,0.0,0.0,0.0,0.0,0.0,0.0,0.0,0.0,-0.0,-0.0,0.0,-0.0,-0.0,-0.0,-0.0,-0.0,-0.0,-0.0,-0.0,-0.0,-0.0,-0.0,-0.0,-0.0,-0.0,-0.0,-0.0,-0.0,-0.0,-0.0,-0.0,-0.0,-0.0,-0.0,-0.0,-0.0,-0.0,-0.0,-0.0,-0.0,-0.0,-0.0,-0.0,-0.0,-0.0,0.0,0.0,0.0,0.0,0.0,0.0,0.0,0.0,0.0,0.0,0.0,-0.8918,-0.915,-0.9356,-0.9733,-1.0221,-1.0,-0.9826,-0.9826,0.0,0.0,0.0,0.0,0.0,0.0,-0.6302,-0.6242,-0.6254,-0.6756,-0.7126,-0.737,-0.7573,-0.7831,-0.8116,-0.8116,-0.8201,-0.8309,-0.7807,-0.7336,-0.6892,-0.6495,-0.624,-0.6051,0.0,0.0,0.0,0.0,0.0,0.0,0.0,0.0,0.0,0.0,0.0,0.0,0.0,0.0,0.0,0.0,0.0,0.0,0.0,0.0,0.0,0.0,0.0,0.0,0.0,0.0,0.0,0.0,0.0,0.0,0.0,0.0,0.0,0.0,0.0,-0.0,-0.0,-0.0,-0.0,-0.0,-0.0,-0.0,-0.0,-0.0,-0.0,-0.0,-0.0,-0.0,-0.0,-0.0,-0.0,-0.0,-0.0,-0.0,-0.0,-0.0,-0.0,-0.0,-0.0,-0.0,-0.0,-0.0,-0.0,-0.0,-0.0,-0.0,-0.0,-0.0,-0.0,-0.0,-0.0,-0.0,-0.0,0.0,0.0,0.0,0.0,0.0,0.0,0.0,0.0,0.0,0.0,-0.8804,-0.8925,-0.9163,-0.9766,-1.0241,-1.0548,-1.0294,-1.0114,-1.0114,-0.9292,0.0,0.0,0.0,0.0,-0.5212,-0.5669,-0.6194,-0.6715,-0.7014,-0.7383,-0.7811,-0.7821,-0.7987,-0.8279,-0.8286,-0.8367,-0.8496,-0.8506,-0.8085,-0.7387,-0.7075,-0.6858,-0.6658,0.0,0.0,0.0,0.0,0.0,0.0,0.0,0.0,0.0,0.0,0.0,0.0,0.0,0.0,0.0,0.0,0.0,0.0,0.0,0.0,0.0,0.0,0.0,0.0,0.0,0.0,0.0,0.0,0.0,0.0,0.0,0.0,0.0,-0.5521,-0.2653,-0.018,-0.0,-0.0,-0.0,-0.0,-0.0,-0.0,-0.0,-0.0,-0.0,-0.0,-0.0,-0.0,-0.0,-0.0,-0.0,-0.0,-0.0,-0.0,-0.0,-0.0,-0.0,-0.0,-0.0,-0.0,-0.0,-0.0,-0.0,-0.0,-0.0,-0.0,-0.0,-0.0,-0.0,-0.0,-0.0,-0.0,-0.0,0.0,0.0,0.0,0.0,0.0,0.0,0.0,0.0,0.0,0.0,-0.8804,-0.8998,-0.9506,-0.9893,-1.0321,-1.0828,-1.0408,-1.0114,-1.0114,0.0,0.0,0.0,0.0,0.0,-0.6541,-0.7359,-0.7527,-0.7017,-0.8425,-0.863,-0.7818,-0.8038,-0.8245,-0.8435,-0.8655,-0.8777,-0.8825,-0.9042,-0.8828,-0.8289,-0.7665,-0.7322,-0.7122,0.0,0.0,0.0,0.0,0.0,0.0,0.0,0.0,0.0,0.0,0.0,0.0,0.0,0.0,0.0,0.0,0.0,0.0,0.0,0.0,0.0,0.0,0.0,0.0,0.0,0.0,0.0,0.0,0.0,0.0,0.0,0.0,-0.0447,-0.1568,-0.3361,-0.3449,-0.0399,-0.0,-0.0,-0.0,-0.0,-0.0,-0.0,-0.0,-0.0,-0.0,-0.0,-0.0,-0.0,-0.0,-0.0,-0.0,-0.0,-0.0,-0.0,-0.0,-0.0,-0.0,-0.0,-0.0,-0.0,-0.0,-0.0,-0.0,-0.0,-0.0,-0.0,-0.0,-0.0,-0.0,-0.0,-0.0,-0.0,0.0,0.0,0.0,0.0,0.0,0.0,0.0,0.0,0.0,0.0,-0.8804,-0.9031,-0.9619,-0.9833,-1.0174,-1.0762,-1.0274,-0.9933,-0.9933,0.0,0.0,0.0,0.0,-0.7957,-0.8435,-0.8559,-0.8533,-0.8234,-0.8714,-0.8646,-0.8007,-0.8187,-0.8414,-0.8679,-0.8859,-0.9008,-0.9133,-0.931,-0.9232,-0.895,-0.8448,-0.8082,-0.7763,-0.7102,-0.6837,-0.6776,-0.6434,-0.6325,-0.6322,-0.6142,0.0,0.0,0.0,0.0,0.0,0.0,0.0,0.0,0.0,0.0,0.0,0.0,0.0,0.0,0.0,0.0,0.0,0.0,0.0,0.0,0.0,0.0,0.0,0.0,-0.1025,-0.0,-0.0,-0.2147,-0.2745,-0.0325,-0.0,-0.0,-0.0,-0.0,-0.0,-0.0,-0.0,-0.0,-0.0,-0.0,-0.0,-0.0,-0.0,-0.0,-0.0,-0.0,-0.0,-0.0,-0.0,-0.0,-0.0,-0.0,-0.0,-0.0,-0.0,-0.0,-0.0,-0.0,-0.0,0.0,0.0,0.0,0.0,0.0,-0.0,-0.0,0.0,0.0,0.0,0.0,0.0,0.0,0.0,0.0,0.0,0.0,0.0,-0.9018,-0.9573,-0.9666,-0.9893,-1.0477,-0.9987,-0.9666,0.0,0.0,0.0,-0.9098,-0.9526,-0.9963,-1.0405,-0.9513,-0.93,-0.981,-0.8609,-0.8199,-0.8272,-0.8323,-0.8557,-0.894,-0.8991,-0.9167,-0.9432,-0.9449,-0.9456,-0.9442,-0.9289,-0.8957,-0.8479,-0.7767,-0.757,-0.76,-0.7031,-0.6739,-0.6617,-0.6586,0.0,0.0,0.0,0.0,0.0,0.0,0.0,0.0,0.0,0.0,0.0,0.0,0.0,0.0,0.0,0.0,0.0,0.0,0.0,0.0,0.0,0.0,0.0,0.0,-0.3211,-0.1046,-0.067,-0.0224,-0.0,-0.0,-0.0,-0.0,-0.0,-0.0,-0.0,-0.0,-0.0,-0.0,-0.0,0.0,0.0,0.0,0.0,-0.0,-0.0,-0.0,-0.0,-0.0,-0.0,-0.0,-0.0,-0.0,-0.0,-0.0,-0.0,-0.0,-0.0,-0.0,-0.0,-0.0,-0.0,-0.0,-0.0,-0.0,-0.0,-0.0,0.0,0.0,0.0,0.0,0.0,0.0,0.0,0.0,0.0,-0.891,-0.8804,-0.8938,-0.923,-0.9539,-0.9733,-0.9846,-0.9746,-0.9579,0.0,0.0,-0.9232,-0.9694,-0.9834,-1.0105,-1.0709,-1.079,-1.0435,-0.981,-0.9719,-0.9202,-0.8279,-0.8638,-0.8855,-0.8954,-0.9317,-0.9574,-0.9744,-0.9869,-0.992,-0.9907,-0.9754,-0.9422,-0.8967,-0.8462,-0.8214,-0.8092,-0.7726,-0.7577,-0.7516,-0.7278,-0.716,-0.7068,-0.6831,0.0,0.0,0.0,0.0,0.0,0.0,0.0,0.0,0.0,0.0,0.0,0.0,0.0,0.0,0.0,0.0,0.0,0.0,0.0,0.0,-0.8167,-0.823,-0.7398,-0.4715,-0.1811,-0.0,-0.0,-0.0,-0.0,-0.0,-0.0,-0.0,-0.0,-0.0,-0.0,-0.0,-0.0,-0.0,-0.0,-0.0,-0.0,-0.0,-0.0,-0.0,-0.0,0.0,0.0,-0.0,-0.0,-0.0,-0.0,-0.0,-0.0,-0.0,-0.0,-0.0,-0.0,-0.0,-0.0,-0.0,-0.0,-0.0,-0.0,0.0,0.0,0.0,0.0,0.0,0.0,0.0,0.0,0.0,0.0,-0.8804,-0.8918,-0.915,-0.9245,-0.9305,-0.9446,-0.9325,0.0,0.0,-0.964,-1.0192,-1.1087,-1.1544,-1.2099,-1.2885,-1.1909,-1.1268,-1.0817,-0.9738,-0.8907,-0.8384,-0.8764,-0.9018,-0.9174,-0.9551,-0.9798,-0.9944,-1.01,-1.0164,-1.0151,-0.9998,-0.9802,-0.9544,-0.9018,-0.873,-0.8574,-0.8343,-0.8116,-0.7916,-0.7845,-0.7672,-0.7472,-0.7394,-0.7163,-0.6895,0.0,0.0,0.0,0.0,0.0,0.0,0.0,0.0,0.0,0.0,0.0,0.0,0.0,0.0,-0.7201,0.0,0.0,-0.8891,-0.9332,-0.947,-0.9178,-0.8074,-0.636,-0.3976,-0.0379,-0.0,-0.0,-0.0,-0.0,-0.0,-0.0,-0.0,-0.0,-0.0,-0.0,-0.0,-0.0,-0.0,-0.0,-0.0,-0.0,-0.0,-0.0,-0.0,-0.0,-0.0,-0.0,-0.0,-0.0,-0.0,-0.0,-0.0,-0.0,-0.0,-0.0,-0.0,-0.0,-0.0,-0.0,-0.0,-0.0,0.0,0.0,0.0,0.0,0.0,0.0,0.0,0.0,0.0,0.0,-0.8857,-0.8898,-0.9077,-0.8945,-0.8898,0.0,0.0,0.0,0.0,-1.0341,-1.1196,-1.2251,-1.3273,-1.4175,-1.4943,-1.2985,-1.1993,-1.2334,-0.9924,-0.8777,-0.8905,-0.8961,-0.9154,-0.9395,-0.972,-0.9951,-1.0103,-1.0256,-1.0321,-1.0307,-1.0154,-1.0076,-0.9988,-0.9449,-0.915,-0.9001,-0.8818,-0.8448,-0.8062,-0.8218,-0.7991,-0.7672,-0.7845,-0.7716,-0.7444,-0.7146,-0.7078,0.0,0.0,0.0,0.0,0.0,0.0,0.0,0.0,0.0,-0.7088,-0.7539,-0.776,-0.8038,-0.856,-0.9152,-0.961,-0.9771,-0.9455,-0.9215,-0.9307,-1.0029,-0.8601,-0.2718,-0.0908,-0.0,-0.0,-0.0,-0.0,-0.0,-0.0,-0.0,-0.0,-0.0,-0.0,-0.0,-0.0,-0.0,-0.0,-0.0,-0.0,-0.0,-0.0,-0.0,-0.0,-0.0,-0.0,-0.0,-0.0,-0.0,-0.0,-0.0,-0.0,-0.0,-0.0,-0.0,-0.0,-0.0,-0.0,-0.0,0.0,0.0,0.0,0.0,0.0,0.0,0.0,0.0,0.0,0.0,0.0,0.0,0.0,0.0,0.0,0.0,0.0,0.0,-0.9646,-1.0715,-1.1623,-1.2271,-1.3667,-1.4589,-1.4957,-1.3829,-1.3325,-1.3686,-1.135,-1.0219,-1.0148,-0.9619,-0.9351,-0.9401,-0.9832,-1.011,-1.0263,-1.0409,-1.047,-1.0456,-1.031,-1.0171,-1.0015,-0.9683,-0.9462,-0.9293,-0.9015,-0.8537,-0.8062,-0.8218,-0.8055,-0.7838,-0.8126,-0.8102,-0.7906,-0.7611,0.0,-0.6909,-0.6705,-0.6675,-0.6756,-0.6987,-0.7065,-0.7268,0.0,0.0,-0.8018,-0.8465,-0.8682,-0.8893,-0.9222,-0.951,-0.9778,-0.9764,-1.0029,-0.9157,-0.5891,-0.8535,-1.0355,-0.9661,-0.3855,-0.0,-0.0,-0.0,-0.0,-0.0,-0.0,-0.0,-0.0,-0.0,-0.0,-0.0,-0.0,-0.0,-0.0,-0.0,-0.0,-0.0,-0.0,-0.0,-0.0,-0.0,-0.0,-0.0,-0.0,-0.0,-0.0,-0.0,-0.0,-0.0,-0.0,-0.0,-0.0,-0.0,-0.0,-0.0,0.0,0.0,0.0,0.0,0.0,0.0,0.0,0.0,0.0,0.0,0.0,0.0,0.0,0.0,0.0,0.0,0.0,0.0,-0.9886,-1.0708,-1.151,-1.2271,-1.3567,-1.4329,-1.4449,-1.3762,-1.3444,-1.3649,-1.2183,-1.1555,-1.1686,-1.152,-1.123,-1.0651,-1.1059,-1.0729,-1.0154,-1.0304,-1.0368,-1.0354,-1.0205,-1.0053,-0.9883,-0.9588,-0.9218,-0.8832,-0.8625,-0.8221,0.0,0.0,-0.7794,-0.7756,-0.8147,-0.8102,-0.7848,-0.7553,-0.7333,0.0,-0.6997,-0.6956,-0.7007,0.0,-0.7539,-0.7926,-0.8414,-0.8547,-0.8689,-0.914,-0.9351,-0.9544,-0.9849,-1.0073,-1.027,0.0,-0.924,-0.8379,-0.8265,-0.9624,-1.0656,-1.0637,-0.4322,-0.0,-0.0,-0.0,-0.0,-0.0,-0.0,-0.0,-0.0,-0.0,-0.0,-0.0,-0.0,-0.0,-0.0,-0.0,-0.0,-0.0,-0.0,-0.0,-0.0,-0.0,-0.0,-0.0,-0.0,-0.0,-0.0,-0.0,-0.0,-0.0,-0.0,-0.0,-0.0,-0.0,-0.0,-0.0,0.0,0.0,0.0,0.0,0.0,0.0,0.0,0.0,0.0,0.0,0.0,0.0,0.0,0.0,0.0,0.0,0.0,0.0,0.0,-1.0421,-1.1109,-1.1904,-1.3086,-1.3794,-1.3961,-1.3831,-1.3817,-1.3963,-1.3061,-1.2788,-1.3025,-1.2966,-1.2507,-1.1968,-1.2234,-1.1947,-1.121,-1.1336,-1.1393,-1.1378,-1.0718,-1.0407,-1.0184,-0.9373,-0.8784,-0.8286,-0.818,-0.7804,0.0,0.0,-0.7322,-0.7366,-0.7818,-0.7834,-0.7648,-0.7434,-0.7312,-0.7224,-0.7112,-0.7173,0.0,-0.7611,-0.8099,-0.8601,-0.894,-0.9133,-0.9361,-0.9768,-0.9934,-1.0073,-1.0297,-1.0456,-1.0585,-1.0683,-0.8424,-0.7498,-1.0199,-1.0643,-0.9958,-0.7941,-0.3187,-0.0,-0.0,-0.0,-0.0,-0.0,-0.0,-0.0,-0.0,-0.0,-0.0,-0.0,-0.0,-0.0,-0.0,-0.0,-0.0,-0.0,-0.0,-0.0,-0.0,-0.0,-0.0,-0.0,-0.0,-0.0,-0.0,-0.0,-0.0,-0.0,-0.0,-0.0,-0.0,-0.0,-0.0,-0.0,0.0,0.0,0.0,0.0,0.0,0.0,0.0,0.0,0.0,0.0,0.0,0.0,0.0,0.0,0.0,0.0,0.0,0.0,0.0,-0.982,-1.0408,-1.1009,-1.2231,-1.306,-1.3559,-1.4156,-1.4734,-1.5305,-1.4248,-1.3831,-1.3992,-1.3055,-1.2758,-1.2985,-1.3301,-1.3732,-1.4242,-1.4138,-1.4138,-1.4118,-1.2382,-1.1504,-1.1003,-0.9205,-0.8228,-0.7831,-0.7828,0.0,0.0,0.0,-0.6627,-0.6583,-0.7034,-0.7272,0.0,-0.7373,-0.7166,-0.6943,-0.6936,0.0,-0.7726,-0.8303,-0.8788,-0.9242,-0.9686,-0.9903,-1.01,-1.0402,-1.047,-1.0473,-1.0483,-1.0609,-1.068,-1.0702,-0.7717,-0.6546,-0.9798,-1.0504,-0.8098,-0.1114,-0.0123,-0.0,0.0,-0.0,-0.0,-0.0,-0.0,-0.0,-0.0,-0.0,-0.0,-0.0,-0.0,-0.0,-0.0,-0.0,-0.0,-0.0,-0.0,-0.0,-0.0,-0.0,-0.0,-0.0,-0.0,-0.0,-0.0,-0.0,-0.0,-0.0,-0.0,-0.0,-0.0,-0.0,-0.0,-0.0,0.0,0.0,0.0,0.0,0.0,0.0,0.0,0.0,0.0,0.0,0.0,0.0,0.0,0.0,0.0,0.0,0.0,0.0,0.0,-0.9613,-1.0,-1.0394,-1.1349,-1.2058,-1.2458,-1.3247,-1.3941,-1.4529,-1.4359,-1.4555,-1.5197,-1.4887,-1.4494,-1.4228,-1.4287,-1.3546,-1.2028,-1.2032,-1.1545,-1.0839,-1.0111,-0.9713,-0.9428,-0.8341,-0.7617,-0.7173,0.0,0.0,0.0,0.0,0.0,-0.624,-0.6586,-0.6732,-0.6793,-0.6895,-0.6929,-0.7014,-0.7407,0.0,-0.833,-0.893,-0.9415,-0.9839,-1.0185,-1.0385,-1.0493,-1.049,-1.0334,-1.0164,-1.0066,-1.0012,-1.0136,-1.0475,-0.9513,-0.8992,-1.0164,-1.0399,-0.9583,-0.7347,-0.2944,0.0,0.0,0.0,0.0,-0.0,-0.0,-0.0,-0.0,-0.0,-0.0,-0.0,-0.0,-0.0,-0.0,-0.0,-0.0,-0.0,-0.0,-0.0,-0.0,-0.0,-0.0,-0.0,-0.0,-0.0,-0.0,-0.0,-0.0,-0.0,-0.0,-0.0,-0.0,-0.0,-0.0,-0.0,0.0,0.0,0.0,0.0,0.0,0.0,0.0,0.0,0.0,0.0,0.0,0.0,0.0,0.0,0.0,0.0,0.0,0.0,0.0,0.0,-0.9499,-0.9793,-1.0441,-1.0989,-1.1464,-1.2071,-1.2705,-1.3293,-1.348,-1.3915,-1.4569,-1.4676,-1.4533,-1.4201,-1.4298,-1.3391,-1.1821,-1.1673,-1.1021,-1.004,-0.9187,-0.8784,-0.8512,-0.7437,-0.6824,0.0,0.0,0.0,0.0,0.0,0.0,-0.584,-0.6139,-0.638,-0.6583,-0.6736,-0.7,-0.7373,-0.797,-0.8462,-0.8947,-0.9551,-0.9958,-1.0273,-1.0517,-1.0609,-1.0582,-1.0375,-1.0097,-0.9812,-0.9554,-0.9432,-0.9528,-0.9891,-1.0119,-1.0348,-1.0409,-0.8182,-0.7079,-0.8433,-0.3539,-0.0,0.0,0.0,0.0,-0.0,-0.0,-0.0,-0.0,-0.0,-0.0,-0.0,-0.0,-0.0,-0.0,-0.0,-0.0,-0.0,-0.0,-0.0,-0.0,-0.0,-0.0,-0.0,-0.0,-0.0,-0.0,-0.0,-0.0,-0.0,-0.0,-0.0,-0.0,-0.0,-0.0,-0.0,0.0,0.0,0.0,0.0,0.0,0.0,0.0,0.0,0.0,0.0,0.0,0.0,0.0,0.0,0.0,0.0,0.0,0.0,0.0,0.0,0.0,-0.915,-0.9506,-0.9927,-1.0564,-1.0802,-1.1236,-1.1824,-1.1824,-1.1984,-1.2285,-1.2647,-1.2866,-1.318,-1.3454,-1.3432,-1.3231,-1.2819,-1.2324,-1.1548,-0.9719,-0.8828,-0.8369,-0.6633,0.0,0.0,0.0,0.0,0.0,0.0,0.0,0.0,-0.5745,-0.6237,-0.6746,-0.6922,-0.7387,-0.7977,-0.8581,-0.9079,-0.9568,-1.0148,-1.0399,-1.0538,-1.0677,-1.0585,-1.0382,-1.0076,-0.9768,-0.9418,0.0,0.0,-0.8913,-0.9168,-0.9818,-1.0357,-1.044,-0.4692,-0.1554,0.0,0.0,0.0,0.0,0.0,0.0,-0.0,0.0,-0.0,-0.0,-0.0,-0.0,-0.0,-0.0,-0.0,-0.0,-0.0,-0.0,-0.0,-0.0,-0.0,-0.0,-0.0,-0.0,-0.0,-0.0,-0.0,-0.0,-0.0,-0.0,-0.0,-0.0,-0.0,-0.0,-0.0,-0.0,-0.0,0.0,0.0,0.0,0.0,0.0,0.0,0.0,0.0,0.0,0.0,0.0,0.0,0.0,0.0,0.0,0.0,0.0,0.0,0.0,0.0,0.0,0.0,0.0,0.0,0.0,0.0,0.0,0.0,0.0,-1.1476,-1.1984,-1.2058,-1.2251,-1.2538,-1.2612,-1.2068,-1.1151,-1.1097,-1.0385,-0.9342,0.0,-0.765,-0.7468,0.0,0.0,0.0,0.0,0.0,0.0,0.0,0.0,0.0,0.0,-0.6563,-0.6963,-0.7444,-0.7929,-0.8442,-0.9045,-0.9622,-1.0114,-1.0375,-1.0551,-1.0643,-1.0568,-1.0348,-1.0046,-0.9635,-0.9133,-0.8665,0.0,0.0,0.0,-0.874,-0.9398,0.0,-0.6724,-0.736,0.0,-0.1757,0.0,-0.0,-0.0,-0.0,0.0,0.0,-0.0,-0.0,-0.0,-0.0,-0.0,-0.0,-0.0,-0.0,-0.0,-0.0,-0.0,-0.0,-0.0,-0.0,-0.0,-0.0,-0.0,-0.0,-0.0,-0.0,-0.0,-0.0,-0.0,-0.0,-0.0,-0.0,-0.0,-0.0,-0.0,-0.0,0.0,0.0,0.0,0.0,0.0,0.0,0.0,0.0,0.0,0.0,0.0,0.0,0.0,0.0,0.0,0.0,0.0,0.0,0.0,0.0,0.0,0.0,0.0,0.0,0.0,0.0,0.0,0.0,0.0,0.0,0.0,-1.0655,-1.0802,-1.0962,-1.1096,-1.0609,-0.9599,-0.9559,0.0,0.0,0.0,0.0,0.0,0.0,0.0,0.0,0.0,0.0,0.0,0.0,0.0,-0.6603,-0.6878,-0.7265,-0.7716,-0.8245,0.0,-0.9174,-0.9649,-1.0117,-1.0493,-1.0571,-1.0605,-1.0544,-1.0263,-0.9968,-0.9591,-0.9011,-0.8516,0.0,-0.7801,-0.7818,0.0,0.0,0.0,0.0,-0.7424,-0.6547,-0.573,0.0,-0.1944,0.0,-0.0,-0.0,-0.0,0.0,-0.0,-0.0,-0.0,-0.0,-0.0,-0.0,-0.0,-0.0,-0.0,-0.0,-0.0,-0.0,-0.0,-0.0,-0.0,-0.0,-0.0,-0.0,0.0,-0.0,-0.0,-0.0,-0.0,-0.0,-0.0,-0.0,-0.0,-0.0,-0.0,-0.0,0.0,0.0,0.0,0.0,0.0,0.0,0.0,0.0,0.0,0.0,0.0,0.0,0.0,0.0,0.0,0.0,0.0,0.0,0.0,0.0,0.0,0.0,0.0,0.0,0.0,0.0,0.0,0.0,0.0,0.0,0.0,0.0,0.0,0.0,0.0,0.0,0.0,0.0,0.0,0.0,0.0,0.0,0.0,0.0,0.0,0.0,0.0,0.0,0.0,0.0,-0.6746,-0.7126,-0.7573,-0.8109,-0.8659,-0.911,-0.953,-0.9917,-1.0226,-1.051,-1.0714,-1.0697,-1.0561,-1.0314,-0.9866,-0.949,-0.9039,-0.835,0.0,-0.7645,-0.7394,-0.7377,-0.766,-0.8368,0.0,-0.9008,-1.0065,-0.5152,-0.3357,-0.8702,-0.3833,-0.0,-0.0,-0.0,-0.0,-0.0,-0.0,-0.0,-0.0,-0.0,-0.0,-0.0,-0.0,-0.0,-0.0,-0.0,-0.0,-0.0,-0.0,-0.0,-0.0,-0.0,-0.0,-0.0,-0.0,-0.0,-0.0,-0.0,-0.0,-0.0,-0.0,-0.0,-0.0,-0.0,-0.0,-0.0,0.0,0.0,0.0,0.0,0.0,0.0,0.0,0.0,0.0,0.0,-1.2383,-1.2696,0.0,0.0,0.0,0.0,0.0,0.0,0.0,0.0,0.0,0.0,0.0,0.0,0.0,0.0,0.0,0.0,0.0,0.0,0.0,0.0,0.0,0.0,0.0,0.0,0.0,0.0,0.0,0.0,0.0,0.0,0.0,0.0,0.0,0.0,0.0,0.0,0.0,0.0,-0.7105,-0.7736,-0.8187,-0.8655,-0.9123,-0.9574,-0.9849,-1.0073,-1.0375,-1.0585,-1.069,-1.0565,-1.0327,-1.0012,-0.9561,-0.8944,0.0,0.0,-0.7553,-0.7244,-0.7125,-0.7411,-0.7671,-0.7733,0.0,0.0,0.0,0.0,-0.7121,0.0,-0.0805,-0.0,-0.0,-0.0,0.0,0.0,-0.0,-0.0,-0.0,-0.0,-0.0,-0.0,-0.0,-0.0,-0.0,-0.0,-0.0,-0.0,-0.0,-0.0,-0.0,-0.0,-0.0,-0.0,-0.0,0.0,-0.0,-0.0,-0.0,-0.0,-0.0,-0.0,-0.0,-0.0,-0.0,-0.0,0.0,0.0,0.0,0.0,0.0,0.0,0.0,0.0,-1.1606,-1.1606,-1.2381,-1.2715,-1.2229,-1.2111,0.0,0.0,0.0,0.0,0.0,0.0,0.0,0.0,0.0,0.0,0.0,0.0,0.0,0.0,0.0,0.0,0.0,0.0,0.0,0.0,0.0,0.0,0.0,0.0,0.0,0.0,0.0,0.0,0.0,0.0,0.0,0.0,0.0,0.0,0.0,0.0,-0.6966,-0.7729,-0.8567,-0.914,-0.9588,-1.0039,-1.0222,-1.0327,-1.0548,-1.0663,-1.0683,-1.0531,-1.0209,-0.9774,-0.9171,0.0,0.0,0.0,-0.7288,-0.7143,-0.7064,-0.735,0.0,0.0,0.0,0.0,0.0,0.0,0.0,0.0,-0.0,-0.0,0.0,-0.0,-0.0,-0.0,-0.0,-0.0,-0.0,-0.0,-0.0,-0.0,-0.0,-0.0,-0.0,-0.0,-0.0,-0.0,-0.0,-0.0,-0.0,-0.0,-0.0,-0.0,-0.0,-0.0,-0.0,-0.0,-0.0,-0.0,-0.0,-0.0,-0.0,-0.0,-0.0,-0.0,0.0,0.0,0.0,0.0,0.0,0.0,0.0,-1.1201,-1.1528,-1.1724,-1.2273,-1.2471,-1.2129,-1.2132,-1.1752,0.0,0.0,0.0,0.0,0.0,0.0,0.0,0.0,0.0,0.0,0.0,0.0,0.0,0.0,0.0,0.0,0.0,0.0,0.0,0.0,0.0,0.0,0.0,0.0,0.0,0.0,0.0,0.0,0.0,0.0,0.0,0.0,0.0,0.0,0.0,-0.662,-0.7326,-0.8425,-0.9188,-0.9747,-1.01,-1.0321,-1.0473,-1.0595,-1.0673,-1.0677,-1.049,-1.0083,-0.954,-0.8825,-0.8265,0.0,0.0,-0.7031,-0.7021,-0.7061,0.0,-0.7095,0.0,-0.6246,0.0,0.0,0.0,0.0,0.0,0.0,0.0,-0.0,-0.0,0.0,-0.0,-0.0,-0.0,-0.0,-0.0,-0.0,-0.0,-0.0,-0.0,-0.0,-0.0,-0.0,-0.0,-0.0,-0.0,-0.0,-0.0,-0.0,-0.0,-0.0,-0.0,-0.0,-0.0,-0.0,-0.0,-0.0,-0.0,-0.0,-0.0,-0.0,-0.0,0.0,0.0,0.0,0.0,0.0,0.0,0.0,-1.0947,-1.126,-1.2015,-1.1885,-1.1714,-1.1675,-1.1982,-1.2015,0.0,0.0,0.0,0.0,0.0,0.0,0.0,0.0,0.0,0.0,0.0,0.0,-0.8804,-0.8804,0.0,0.0,0.0,0.0,0.0,0.0,0.0,0.0,0.0,0.0,0.0,0.0,0.0,0.0,0.0,0.0,0.0,0.0,0.0,0.0,0.0,0.0,-0.6502,-0.7288,-0.8309,-0.9222,-0.9262,0.0,0.0,-1.0317,-1.0517,-1.0653,-1.0371,-0.9856,-0.9259,-0.8645,0.0,0.0,-0.7118,-0.697,-0.684,-0.7098,-0.7141,-0.5707,0.0,0.0,-0.0803,0.0,0.0,0.0,0.0,0.0,0.0,-0.0,-0.0,0.0,-0.0,-0.0,-0.0,-0.0,-0.0,-0.0,-0.0,-0.0,-0.0,-0.0,-0.0,-0.0,-0.0,-0.0,-0.0,-0.0,-0.0,-0.0,-0.0,-0.0,-0.0,0.0,-0.0,-0.0,-0.0,-0.0,-0.0,-0.0,-0.0,-0.0,-0.0,0.0,0.0,0.0,0.0,0.0,0.0,-1.1243,-1.1299,-1.1621,-1.251,-1.2461,-1.2256,-1.1992,-1.1885,-1.1508,0.0,0.0,0.0,0.0,0.0,0.0,0.0,0.0,0.0,0.0,0.0,0.0,-0.8804,-0.8804,0.0,0.0,0.0,0.0,0.0,0.0,-0.7883,0.0,0.0,0.0,0.0,0.0,0.0,0.0,0.0,0.0,0.0,0.0,0.0,0.0,0.0,0.0,0.0,-0.623,-0.6997,0.0,0.0,-0.9121,-0.9573,-1.0046,-1.0368,-1.0668,-1.0369,-0.9961,-0.9437,-0.8834,0.0,-0.7474,-0.7146,-0.5889,-0.487,-0.501,-0.616,-0.6457,0.0,0.0,0.0,-0.0,0.0,0.0,0.0,0.0,0.0,0.0,0.0,-0.0,-0.0,-0.0,-0.0,-0.0,-0.0,-0.0,-0.0,-0.0,-0.0,-0.0,-0.0,-0.0,-0.0,-0.0,-0.0,-0.0,-0.0,-0.0,-0.0,-0.0,-0.0,0.0,-0.0,-0.0,-0.0,-0.0,-0.0,-0.0,-0.0,-0.0,-0.0,0.0,0.0,0.0,0.0,0.0,-1.0567,-1.1302,-1.1518,-1.1881,-1.2588,-1.2686,-1.2578,-1.2219,-1.1719,-1.107,-1.0251,0.0,0.0,0.0,0.0,0.0,0.0,0.0,0.0,0.0,0.0,-0.8804,-0.8804,-0.8804,-0.8804,0.0,0.0,-0.8699,-0.848,0.0,0.0,0.0,0.0,0.0,0.0,0.0,0.0,0.0,0.0,0.0,0.0,0.0,0.0,0.0,0.0,0.0,0.0,0.0,0.0,0.0,0.0,-0.8424,-0.8742,-0.8455,-0.9458,-1.0731,-1.0471,-0.9476,-0.8317,0.0,0.0,-0.6669,-0.7052,-0.5772,-0.4175,-0.2798,-0.3911,-0.5041,0.0,0.0,-0.0,-0.0,0.0,0.0,0.0,0.0,0.0,0.0,-0.0,-0.0,-0.0,-0.0,-0.0,-0.0,-0.0,-0.0,-0.0,-0.0,-0.0,-0.0,-0.0,-0.0,-0.0,-0.0,-0.0,-0.0,-0.0,-0.0,-0.0,-0.0,-0.0,0.0,-0.0,-0.0,-0.0,-0.0,-0.1295,-0.3096,-0.2955,-0.2321,-0.1424,0.0,0.0,0.0,0.0,0.0,0.0,0.0,-1.1279,-1.1763,-1.2132,-1.219,-1.219,-1.218,-1.1445,-1.0918,-1.0867,0.0,0.0,0.0,0.0,0.0,0.0,0.0,0.0,0.0,0.0,-0.8804,-0.8804,-0.8804,-0.8804,-0.8804,-0.8804,-0.8427,-0.767,0.0,0.0,0.0,0.0,0.0,0.0,0.0,0.0,0.0,0.0,0.0,0.0,0.0,0.0,0.0,0.0,0.0,0.0,0.0,0.0,0.0,0.0,-0.7681,-0.8014,-0.5312,-0.7578,-1.0748,-1.0711,-0.8066,-0.5348,0.0,0.0,-0.4625,-0.6666,-0.7087,-0.5621,-0.0895,-0.009,-0.009,-0.009,0.0,0.0,-0.0,0.0,0.0,0.0,0.0,0.0,0.0,0.0,-0.0,-0.0,-0.0,0.0,-0.0,-0.0,-0.0,-0.0,-0.0,-0.0,-0.0,-0.0,-0.0,-0.0,-0.0,-0.0,-0.0,-0.0,-0.0,-0.0,-0.0,-0.0,0.0,-0.0,-0.0,-0.0,-0.0,-0.4312,-1.0503,-0.9966,-0.7582,-0.4888,0.0,0.0,0.0,0.0,0.0,0.0,0.0,-1.1221,-1.1387,-1.2083,-1.1963,-1.1768,-1.1768,-1.125,-1.0908,-1.0908,0.0,0.0,0.0,0.0,0.0,0.0,0.0,0.0,0.0,0.0,-0.8804,-0.8804,-0.8321,-0.8049,-0.8049,-0.7509,-0.7182,-0.6912,-0.6696,0.0,0.0,0.0,0.0,0.0,0.0,0.0,0.0,0.0,0.0,0.0,0.0,0.0,0.0,0.0,0.0,0.0,0.0,0.0,0.0,0.0,0.0,0.0,-0.4298,-0.3773,-0.4552,-0.9466,-0.9875,-0.769,-0.2661,0.0,-0.1417,-0.212,-0.2248,-0.179,-0.0258,-0.0,-0.0,-0.0,-0.0,0.0,0.0,0.0,0.0,0.0,0.0,0.0,0.0,0.0,-0.0,-0.0,-0.0,-0.0,-0.0,-0.0,-0.0,-0.0,-0.0,-0.0,-0.0,-0.0,-0.0,-0.0,-0.0,-0.0,-0.0,-0.0,-0.0,-0.0,-0.0,-0.0,-0.0404,-0.5333,-0.7119,-0.6506,-0.4454,-0.5049,-0.7367,-0.9357,-0.937,-0.8292,0.0,0.0,0.0,0.0,0.0,0.0,0.0,-1.0986,-1.1103,-1.166,-1.1494,-1.142,-1.1587,-1.1067,-1.0801,-1.1133,0.0,0.0,0.0,0.0,0.0,0.0,0.0,0.0,0.0,-0.8804,-0.8804,-0.8804,-0.8049,-0.7723,-0.767,-0.6966,-0.648,-0.6204,-0.6204,0.0,0.0,0.0,0.0,0.0,0.0,0.0,-0.4525,0.0,0.0,0.0,0.0,0.0,0.0,0.0,0.0,0.0,0.0,0.0,0.0,0.0,-0.5097,0.0,0.0,-0.1252,-0.1089,-0.5506,-0.6623,0.0,0.0,0.0,-0.0,-0.0,-0.0,-0.0,-0.0,-0.0,-0.0,-0.0,-0.0,0.0,0.0,0.0,0.0,0.0,0.0,0.0,0.0,0.0,-0.0,-0.0,-0.0,-0.0,-0.0,-0.0,-0.0,-0.0,-0.0,-0.0,-0.0,-0.0,-0.0,-0.0,-0.0,-0.0,-0.0,-0.0,-0.0,-0.0,-0.0,-0.16,0.0,-0.8918,-1.0421,-0.9932,-0.7875,-0.7126,-0.7491,-0.9513,-1.0068,-1.0035,0.0,0.0,0.0,0.0,0.0,0.0,0.0,0.0,-1.0879,-1.0908,-1.0879,-1.1016,-1.1469,-1.0762,-1.0575,-1.1392,0.0,0.0,0.0,0.0,0.0,0.0,0.0,0.0,0.0,-0.8804,-0.8804,-0.8804,-0.7996,-0.7616,-0.7616,-0.6804,-0.6091,-0.5433,-0.5433,-0.5058,-0.4519,-0.4519,-0.4519,-0.4519,-0.4519,-0.4519,0.0,0.0,0.0,0.0,0.0,0.0,0.0,0.0,0.0,0.0,0.0,0.0,0.0,0.0,0.0,0.0,0.0,-0.0,0.0,0.0,0.0,0.0,0.0,0.0,0.0,-0.0,-0.0,-0.0,-0.0,-0.0,-0.0,-0.0,0.0,0.0,0.0,0.0,0.0,0.0,0.0,0.0,0.0,0.0,-0.0,-0.0,-0.039,-0.0646,-0.0646,-0.0516,-0.0387,-0.0387,-0.0397,-0.0402,-0.0671,-0.053,-0.0397,-0.0402,-0.0397,-0.0395,-0.0394,-0.0394,-0.0394,0.0,-0.0389,-0.4194,0.0,-1.0518,-1.0709,-1.0548,-1.0019,-1.0052,-1.0297,-1.0163,-1.0153,-1.0263,0.0,0.0,0.0,0.0,0.0,0.0,0.0,0.0,0.0,0.0,-1.0625,-1.0469,-1.0576,-1.0075,-0.9839,0.0,0.0,0.0,0.0,0.0,0.0,0.0,0.0,0.0,0.0,-0.8804,-0.8804,-0.8804,-0.7509,-0.6858,-0.6804,-0.555,-0.4897,-0.4732,-0.4732,-0.4625,-0.4519,-0.4519,-0.4519,-0.4519,-0.4473,-0.4525,0.0,0.0,0.0,0.0,-0.3347,-0.3081,0.0,0.0,0.0,0.0,0.0,0.0,0.0,0.0,-0.6282,-0.5351,-0.1117,0.0,-0.0,-0.0,-0.0,-0.0,0.0,0.0,-0.0,-0.0,0.0,-0.0,-0.0,-0.0,-0.0,-0.0,0.0,0.0,0.0,0.0,0.0,0.0,0.0,0.0,0.0,0.0,-0.0,-0.0,-0.4655,-0.7503,-0.7503,-0.5149,-0.3727,-0.3727,-0.375,-0.4939,-0.7444,-0.5241,-0.4032,-0.3701,-0.3773,-0.3763,-0.3809,-0.3726,-0.3744,-0.3743,-0.3732,-0.4645,-0.6498,-0.9086,-1.0179,-1.0079,-1.0179,-1.0122,-1.011,-0.9985,-0.9982,-1.0086,0.0,0.0,0.0,0.0,0.0,0.0,0.0,0.0,0.0,0.0,0.0,0.0,0.0,0.0,0.0,0.0,0.0,0.0,0.0,0.0,0.0,0.0,0.0,0.0,-0.8804,-0.8804,-0.8804,-0.8804,-0.7343,-0.6588,-0.6588,-0.5171,-0.4519,-0.4519,-0.4519,-0.4519,-0.4519,-0.4519,-0.4519,-0.4519,-0.4473,0.0,0.0,0.0,0.0,0.0,-0.3623,-0.2475,0.0,-0.2613,-0.2898,-0.2559,0.0,0.0,0.0,0.0,-0.3379,-0.2942,-0.0626,-0.0,-0.0,-0.0,-0.0,-0.0,0.0,0.0,0.0,0.0,0.0,0.0,0.0,0.0,0.0,0.0,-0.0,0.0,0.0,0.0,0.0,0.0,0.0,0.0,0.0,0.0,-0.1258,-0.4216,-0.777,-0.979,-0.978,-0.8095,-0.7193,-0.7193,-0.7183,-0.8004,-0.9838,-0.8263,-0.7446,-0.738,-0.7188,-0.716,-0.7178,-0.7107,-0.7134,-0.7131,-0.7086,-0.7243,-0.7451,-0.9333,-1.0066,-1.0045,-1.0171,-1.0124,-1.0049,-1.0049,-1.0049,-1.0046,0.0,0.0,0.0,0.0,0.0,0.0,0.0,0.0,0.0,0.0,0.0,0.0,0.0,0.0,0.0,0.0,0.0,0.0,0.0,0.0,0.0,0.0,0.0,-0.8804,-0.8804,-0.8804,-0.8752,-0.8646,-0.7289,-0.6534,-0.6421,-0.5117,-0.4519,-0.4519,-0.4519,-0.4519,-0.4519,-0.4519,-0.4519,-0.4522,-0.4477,0.0,0.0,0.0,0.0,0.0,0.0,0.0,0.0,-0.0,-0.0,-0.0,-0.0,0.0,0.0,0.0,0.0,0.0,-0.0,-0.0,-0.0,-0.0,-0.0,-0.0,-0.0,0.0,0.0,0.0,0.0,0.0,0.0,-0.0,0.0,0.0,0.0,0.0,0.0,0.0,0.0,0.0,0.0,0.0,0.0,-0.0749,-0.3101,-0.8583,-0.95,-0.9794,-0.9777,-0.9771,-0.9771,-0.9771,-0.9744,-0.9858,-0.9745,-0.9777,-0.9906,-1.0266,-0.9903,-0.984,-0.9817,-0.9817,-0.9817,-0.981,0.0,0.0,-1.0099,-1.01,-1.011,-1.0198,-1.0066,-1.0015,-1.0015,-1.0015,-1.0015,-1.0032,0.0,0.0,0.0,0.0,0.0,0.0,0.0,0.0,0.0,0.0,0.0,0.0,0.0,0.0,0.0,0.0,0.0,0.0,0.0,0.0,0.0,0.0,-0.8804,-0.8804,-0.8804,-0.8804,-0.848,-0.7883,-0.702,-0.6258,-0.5651,-0.4842,-0.4519,-0.4519,-0.4519,-0.4519,-0.4519,-0.4519,-0.4522,-0.4477,-0.449,0.0,0.0,0.0,0.0,0.0,0.0,0.0,0.0,-0.0,-0.0,-0.0,-0.0,0.0,0.0,0.0,0.0,0.0,-0.0,-0.0,-0.0,-0.0,-0.0,-0.0,-0.0,0.0,0.0,0.0,0.0,0.0,0.0,-0.0,-0.0,0.0,0.0,-0.0,0.0,0.0,-0.8311,-0.829,0.0,0.0,0.0,0.0,-0.4556,-0.5557,-0.8267,-0.9744,-0.9741,-0.9846,-0.9836,-0.9836,-0.9829,-0.9849,-0.9777,-0.9881,-0.9881,-0.9903,-0.9885,-0.9868,-0.9744,-0.9744,-0.9744,-0.9741,0.0,-0.9856,-0.9893,-0.9873,-0.9873,-0.989,-0.9866,-0.9856,-0.9856,-0.9856,-0.9856,-0.9859,0.0,0.0,0.0,0.0,0.0,0.0,0.0,0.0,0.0,0.0,0.0,0.0,0.0,0.0,0.0,0.0,0.0,0.0,0.0,0.0,0.0,-0.8804,-0.8804,-0.8804,-0.8804,-0.8804,-0.8427,-0.7723,-0.6966,-0.6204,-0.5483,-0.4787,-0.4519,-0.4519,-0.4519,-0.4519,-0.4519,-0.4519,-0.4525,-0.4425,0.0,0.0,0.0,0.0,0.0,0.0,0.0,0.0,0.0,0.0,-0.0,-0.0,-0.0,0.0,0.0,0.0,0.0,0.0,-0.0,-0.0,-0.0,-0.0,-0.0,-0.0,-0.0,0.0,0.0,0.0,0.0,0.0,0.0,0.0,-0.3993,-0.2819,0.0,-0.4725,-0.2921,-0.5209,-0.78,0.0,0.0,0.0,0.0,0.0,-0.7518,-0.7505,-0.8799,-0.9647,-0.9832,-0.9676,-0.9622,-0.9703,-0.9625,-0.9625,-0.9707,-0.9778,-0.9815,-0.9822,-0.9893,-0.989,-0.9822,-0.9822,-0.9822,-0.9822,0.0,-0.9822,-0.9822,-0.9822,-0.9822,-0.9822,-0.9822,-0.9822,-0.9822,-0.9822,-0.9822,-0.9822,0.0,0.0,0.0,0.0,0.0,0.0,0.0,0.0,0.0,0.0,0.0,0.0,0.0,0.0,0.0,0.0,0.0,0.0,0.0,0.0,-0.8804,-0.8804,-0.8804,-0.8804,-0.8804,-0.8646,-0.8156,-0.745,-0.6691,-0.5982,-0.5269,-0.4732,-0.4519,-0.4519,-0.4519,-0.4519,-0.4519,-0.4519,-0.4525,-0.4369,0.0,0.0,0.0,0.0,0.0,0.0,0.0,0.0,0.0,0.0,0.0,0.0,0.0,0.0,0.0,-0.0,-0.0,-0.0,-0.0,-0.0,-0.0,-0.0,0.0,-0.0,-0.0,0.0,0.0,0.0,0.0,0.0,0.0,0.0,0.0,-0.5179,-0.7608,-0.8906,-0.6434,-0.6012,-0.7018,-0.9513,-0.9756,0.0,0.0,0.0,-0.965,-0.9747,-0.9523,-0.9499,-0.9713,-0.9503,-0.9435,-0.9551,-0.9442,-0.9439,-0.9554,-0.9557,-0.9646,-0.9822,-0.9822,-0.9822,-0.9822,-0.9822,-0.9822,-0.9822,-0.9822,-0.9822,-0.9822,-0.9822,-0.9822,-0.9822,-0.9822,-0.9822,-0.9822,-0.9822,-0.9822,-0.9822,0.0,0.0,0.0,0.0,0.0,0.0,0.0,0.0,0.0,0.0,0.0,0.0,0.0,0.0,0.0,0.0,0.0,0.0,0.0,0.0,-0.8804,-0.8804,-0.8804,-0.8804,-0.8804,-0.8156,-0.7402,-0.6696,-0.5928,-0.5218,-0.457,-0.4515,-0.4519,-0.4519,-0.4519,-0.4519,-0.4519,-0.4519,-0.4473,-0.4379,-0.285,0.0,0.0,0.0,0.0,0.0,0.0,0.0,0.0,0.0,0.0,0.0,0.0,0.0,-0.0,-0.0,-0.0,-0.0,-0.0,-0.0,-0.0,-0.0,-0.0,0.0,-0.0,-0.3859,0.0,-0.745,0.0,0.0,0.0,-0.6392,-0.7596,-0.4918,-0.7505,-0.9662,-0.9497,0.0,-0.9533,-0.9808,-0.9693,-0.9605,-0.9629,-0.9503,-0.9418,-0.9415,-0.9405,-0.9405,-0.9412,-0.9395,-0.9388,-0.9398,-0.9388,-0.9388,-0.9398,-0.9398,-0.954,-0.9822,-0.9822,-0.9822,-0.9822,-0.9822,-0.9822,-0.9822,-0.9822,-0.9822,-0.9822,-0.9822,-0.9822,-0.9822,-0.9822,-0.9822,-0.9822,-0.9822,-0.9822,-0.9822,0.0,0.0,0.0,0.0,0.0,0.0,0.0,0.0,0.0,0.0,0.0,0.0,0.0,0.0,0.0,0.0,0.0,0.0,0.0,0.0,-0.8804,-0.8804,-0.8804,-0.8593,-0.8103,-0.783,-0.7122,-0.5923,-0.5222,-0.4732,-0.4519,-0.4519,-0.4519,-0.4519,-0.4519,-0.4519,-0.4519,-0.4519,-0.4525,-0.4373,-0.2847,-0.13,0.0,0.0,0.0,0.0,0.0,0.0,0.0,0.0,-0.0,-0.0,0.0,-0.0,-0.0,-0.0,-0.0,-0.0,-0.0,-0.0,-0.0,-0.0,0.0,0.0,0.0,-0.6508,-0.7467,-0.5652,-0.6752,0.0,0.0,0.0,-0.7662,-0.7035,-0.8256,-0.9345,-0.9617,-0.9631,-0.9537,-0.9686,-0.9564,-0.9466,-0.9466,-0.9415,-0.9381,-0.9381,-0.9293,-0.9283,-0.9374,-0.9205,-0.9147,-0.9239,-0.9154,-0.915,-0.9239,-0.9239,-0.9344,-0.9547,-0.9547,-0.9547,-0.9551,-0.9646,-0.9639,-0.9557,-0.9741,-0.9771,-0.969,-0.969,-0.969,-0.969,-0.969,-0.969,-0.97,-0.9788,-0.9764,-0.9703,0.0,0.0,0.0,0.0,0.0,0.0,0.0,0.0,0.0,0.0,0.0,0.0,0.0,0.0,0.0,0.0,0.0,0.0,0.0,-0.8804,-0.8804,-0.8804,-0.8586,-0.8103,-0.7343,-0.7122,-0.6519,-0.5487,-0.4842,-0.4519,-0.4519,-0.4519,-0.4519,-0.4519,-0.4519,-0.4519,-0.4519,-0.4519,-0.4525,-0.4425,-0.3447,-0.2126,0.0,0.0,0.0,0.0,0.0,0.0,0.0,0.0,-0.0,0.0,0.0,0.0,0.0,0.0,-0.1964,-0.1806,-0.1176,-0.094,-0.094,0.0,0.0,0.0,-0.7486,-0.7871,-0.7403,-0.5504,-0.6623,0.0,0.0,0.0,0.0,0.0,-0.8723,-0.9079,-0.9418,-0.9415,-0.9418,-0.9523,-0.9401,-0.931,-0.931,-0.9269,-0.9222,-0.9174,-0.9072,-0.9039,-0.9093,-0.895,-0.891,-0.9008,-0.8964,-0.8984,-0.9086,-0.9086,-0.9137,-0.9242,-0.9242,-0.9289,-0.9384,-0.949,-0.9479,-0.9391,-0.9595,-0.9629,-0.9537,-0.9537,-0.9537,-0.9544,-0.9591,-0.9608,-0.9629,-0.9768,-0.9758,-0.969,0.0,0.0,0.0,0.0,0.0,0.0,0.0,0.0,0.0,0.0,0.0,0.0,0.0,0.0,0.0,0.0,0.0,0.0,-0.8791,-0.8804,-0.8804,-0.8804,-0.8103,-0.7343,-0.6588,-0.5869,-0.5487,-0.5487,-0.4842,-0.4519,-0.4519,-0.4519,-0.4519,-0.4519,-0.4519,-0.4519,-0.4519,-0.4519,-0.4525,-0.4494,-0.4707,-0.394,-0.2718,0.0,0.0,0.0,0.0,0.0,0.0,0.0,-0.0,-0.0,0.0,0.0,0.0,-0.5053,-0.6321,-0.5843,-0.3679,-0.3124,0.0,0.0,0.0,0.0,-0.6809,-0.7738,-0.8066,-0.8237,0.0,-0.7862,-0.8011,0.0,0.0,-0.8221,-0.8645,-0.8988,-0.9133,-0.9283,-0.9374,-0.9381,-0.9242,-0.915,-0.915,-0.9022,-0.8872,-0.872,-0.871,-0.8642,-0.8489,-0.8625,-0.871,-0.871,-0.8855,-0.8933,-0.8933,-0.8933,-0.8933,-0.8933,-0.8933,-0.9089,-0.9378,-0.9378,-0.9378,-0.9378,-0.9381,-0.9381,-0.9381,-0.9381,-0.9378,-0.9391,-0.9547,-0.9608,-0.9625,-0.9768,-0.9822,-0.9819,0.0,0.0,0.0,0.0,0.0,0.0,0.0,0.0,0.0,0.0,0.0,0.0,0.0,0.0,0.0,0.0,0.0,0.0,-0.8798,-0.8804,-0.8804,-0.8804,-0.8103,-0.7343,-0.6588,-0.5441,-0.4787,-0.4787,-0.457,-0.4519,-0.4519,-0.4519,-0.4519,-0.4519,-0.4519,-0.4519,-0.4525,-0.4575,-0.4626,-0.464,-0.4743,-0.462,-0.4394,0.0,0.0,0.0,0.0,0.0,0.0,0.0,0.0,0.0,0.0,0.0,0.0,-0.3713,-0.5144,-0.6142,-0.5497,0.0,0.0,-0.5613,0.0,0.0,0.0,-0.762,0.0,0.0,0.0,-0.7984,-0.8031,0.0,0.0,-0.8255,-0.8557,-0.8866,-0.9117,-0.9011,-0.8984,-0.9198,-0.8998,-0.8842,-0.8842,-0.8804,-0.8713,-0.856,-0.855,-0.853,-0.8482,-0.8526,-0.855,-0.855,-0.8594,-0.8618,-0.8618,-0.8618,-0.8618,-0.8618,-0.8618,-0.8774,-0.9072,-0.9174,-0.9167,-0.9083,-0.9289,-0.932,-0.9222,-0.9222,-0.9161,-0.9093,-0.9351,-0.9449,-0.9479,-0.973,-0.9758,-0.9686,0.0,0.0,0.0,0.0,0.0,0.0,0.0,0.0,0.0,0.0,0.0,0.0,0.0,0.0,0.0,0.0,0.0,0.0,0.0,0.0,-0.8804,-0.8804,-0.783,-0.6804,-0.5769,-0.4956,-0.4519,-0.4519,-0.4519,-0.4519,-0.4519,-0.458,-0.4555,-0.4555,-0.4616,-0.4609,-0.4562,-0.4718,-0.4748,-0.4711,-0.4864,-0.5001,-0.5148,0.0,0.0,0.0,0.0,0.0,0.0,0.0,0.0,0.0,0.0,0.0,0.0,-0.4217,-0.5208,-0.6298,-0.6352,0.0,0.0,-0.664,-0.6826,-0.7076,-0.757,0.0,0.0,0.0,0.0,-0.8058,-0.8119,-0.8109,0.0,-0.8252,-0.8421,-0.8618,-0.8852,-0.8733,-0.8686,-0.8866,-0.873,-0.8618,-0.8618,-0.8618,-0.8557,-0.8411,-0.8397,-0.837,-0.8309,-0.8367,-0.8397,-0.8397,-0.8452,-0.8482,-0.8482,-0.8482,-0.8482,-0.8482,-0.8482,-0.8577,-0.876,-0.8849,-0.8872,-0.8862,-0.9103,-0.9154,-0.9066,-0.9066,-0.9018,-0.896,-0.9198,-0.9289,-0.932,-0.9557,-0.9591,-0.953,0.0,0.0,0.0,0.0,0.0,0.0,0.0,0.0,0.0,0.0,0.0,0.0,0.0,0.0,0.0,0.0,0.0,0.0,0.0,0.0,-0.8804,-0.8804,-0.7402,-0.5937,-0.4515,-0.4519,-0.4519,-0.4519,-0.4519,-0.4519,-0.4522,-0.4619,-0.4691,-0.4697,-0.485,-0.4843,-0.4721,-0.4874,-0.4857,-0.4755,-0.5036,-0.5152,-0.5165,-0.5308,0.0,0.0,0.0,0.0,0.0,0.0,0.0,0.0,-0.5433,-0.5633,-0.5864,-0.5995,-0.6125,-0.6305,-0.6437,0.0,0.0,-0.6695,-0.6973,0.0,-0.7573,-0.7957,-0.8248,-0.8248,0.0,-0.8102,-0.8245,-0.8041,-0.7946,-0.8225,-0.8282,-0.8333,-0.8465,-0.8472,-0.8469,-0.8479,-0.8472,-0.8462,-0.8462,-0.8462,-0.8404,-0.8258,-0.8248,-0.8187,-0.8045,-0.8174,-0.8248,-0.8248,-0.8374,-0.8442,-0.8442,-0.8442,-0.8442,-0.8442,-0.8442,-0.8442,-0.8442,-0.8469,-0.8557,-0.8699,-0.8835,-0.8906,-0.8916,-0.8916,-0.8927,-0.8954,-0.9096,-0.9154,-0.9171,-0.9323,-0.9381,-0.9381,0.0,0.0,0.0,0.0,0.0,0.0,0.0,0.0,0.0,0.0,0.0,0.0,0.0,0.0,0.0,0.0,0.0,0.0,0.0,0.0,-0.8804,-0.8804,-0.7402,-0.5937,-0.4515,-0.4519,-0.4519,-0.4519,-0.4519,-0.4519,-0.4522,-0.4619,-0.4691,-0.4697,-0.485,-0.4901,-0.4877,-0.5023,-0.5064,-0.505,-0.5237,-0.5311,-0.5315,-0.5415,-0.5428,0.0,0.0,0.0,0.0,0.0,0.0,0.0,-0.5715,-0.584,-0.5989,-0.5986,-0.6118,-0.6295,0.0,-0.6471,0.0,0.0,-0.736,-0.7716,-0.7902,-0.8021,-0.8089,-0.8089,-0.816,-0.8231,-0.8265,-0.8214,-0.8194,-0.8258,-0.8364,-0.8445,-0.8479,-0.8387,-0.8357,-0.8469,-0.8384,-0.8316,-0.8316,-0.8316,-0.8252,-0.8099,-0.8089,-0.8075,-0.8041,-0.8072,-0.8089,-0.8089,-0.8119,-0.8136,-0.8136,-0.8136,-0.8136,0.0,-0.8136,-0.8136,-0.8143,-0.8377,-0.8499,-0.8533,-0.8567,-0.8648,-0.876,-0.876,-0.8828,-0.8954,-0.9096,-0.9154,-0.9171,-0.9323,-0.9381,-0.9381,0.0,0.0,0.0,0.0,0.0,0.0,0.0,0.0,0.0,0.0,0.0,0.0,0.0,0.0,0.0,0.0,0.0,0.0,0.0,0.0,0.0,-0.7777,-0.6686,-0.5601,-0.4515,-0.4519,-0.4519,-0.4519,-0.4519,-0.4519,-0.4522,-0.4694,-0.4799,-0.4809,-0.5033,-0.5091,-0.503,-0.5179,-0.5199,-0.5145,-0.5298,-0.5428,-0.5428,-0.5428,-0.5406,-0.5471,-0.5471,0.0,0.0,0.0,0.0,0.0,0.0,0.0,-0.603,-0.603,-0.6139,-0.6291,0.0,0.0,0.0,0.0,0.0,0.0,-0.7987,-0.8038,-0.8038,-0.8038,-0.8102,-0.816,-0.816,-0.816,-0.816,-0.816,-0.8221,-0.8269,-0.8269,-0.8208,-0.8187,-0.8262,-0.8204,-0.816,-0.816,-0.816,-0.8126,-0.8045,-0.8038,-0.8038,-0.8038,-0.8038,-0.8038,-0.8038,-0.8038,-0.8038,-0.8038,-0.8038,-0.8038,-0.8038,-0.8038,-0.8038,-0.8045,-0.8275,-0.8381,-0.8384,-0.8452,-0.8526,-0.8601,-0.8601,-0.8648,-0.8726,-0.8804,-0.8876,-0.895,-0.9028,-0.9106,-0.9167,0.0,0.0,0.0,0.0,0.0,0.0,0.0,0.0,0.0,0.0,0.0,0.0,0.0,0.0,0.0,0.0,0.0,0.0,0.0,0.0,0.0,-0.6475,-0.5814,-0.5218,-0.4519,-0.4519,-0.4519,-0.4519,-0.4519,0.0,0.0,0.0,-0.4931,-0.4965,-0.524,-0.5291,-0.5179,-0.5308,-0.5287,-0.5182,-0.5311,-0.5428,-0.5432,-0.5459,-0.5481,-0.5593,-0.5616,-0.5718,-0.584,-0.584,0.0,0.0,0.0,0.0,-0.6067,-0.6067,-0.6162,-0.6291,0.0,0.0,0.0,0.0,0.0,0.0,-0.794,-0.798,-0.7977,-0.8028,-0.8038,-0.8038,-0.8038,-0.8038,-0.8038,-0.8038,-0.8038,-0.8038,-0.8038,-0.8038,-0.8038,-0.8038,-0.8038,-0.8038,-0.8038,-0.8038,-0.8038,-0.8038,-0.8038,-0.8038,-0.8038,-0.8038,-0.8038,-0.8038,-0.8038,-0.8038,-0.8038,-0.8038,-0.8038,-0.8038,-0.8038,-0.8038,-0.8041,-0.8174,-0.8231,-0.8238,-0.8353,-0.8421,-0.8445,-0.8445,-0.8459,-0.8482,-0.8482,-0.856,-0.8672,-0.8672,-0.8767,-0.8899,0.0,0.0,0.0,0.0,0.0,0.0,0.0,0.0,0.0,0.0,0.0,0.0,0.0,0.0,0.0,0.0,0.0,0.0,-0.8804,0.0,0.0,-0.5706,-0.5597,-0.5218,-0.4519,-0.4519,-0.4519,-0.4519,0.0,0.0,0.0,0.0,0.0,-0.5108,0.0,-0.5418,-0.5332,-0.5418,-0.5415,-0.5332,-0.5418,-0.5428,-0.5442,-0.5508,-0.5572,-0.5606,-0.5728,-0.5871,-0.6,-0.6,-0.6088,0.0,0.0,0.0,-0.623,-0.623,-0.6244,-0.6291,0.0,0.0,0.0,0.0,0.0,-0.7641,0.0,0.0,-0.7733,0.0,-0.8038,-0.8038,-0.8038,-0.8038,-0.8038,-0.8038,-0.8038,-0.8038,-0.8038,-0.8038,-0.8038,-0.8038,-0.8038,-0.8038,-0.8038,-0.8038,-0.8038,-0.8038,-0.8038,-0.8038,-0.8038,-0.8038,-0.8038,-0.8038,-0.8038,-0.8038,-0.8038,-0.8038,-0.8038,-0.8038,-0.8038,-0.8038,-0.8038,-0.8062,-0.8069,-0.8072,-0.8092,-0.8174,-0.8299,-0.8299,-0.837,-0.8482,-0.8482,-0.8496,-0.8513,-0.8513,-0.8611,-0.874,0.0,0.0,0.0,0.0,0.0,0.0,0.0,0.0,0.0,0.0,0.0,0.0,0.0,0.0,0.0,-0.8804,-0.8804,-0.8646,-0.8209,-0.7509,-0.6637,-0.5542,-0.5167,-0.4842,-0.4519,-0.4519,-0.4519,-0.4519,0.0,0.0,0.0,-0.4969,-0.507,0.0,0.0,0.0,0.0,-0.5428,-0.5428,-0.5428,-0.5428,-0.5413,-0.5498,-0.5562,-0.5691,-0.5844,-0.5908,-0.6027,-0.6159,-0.6159,-0.6203,-0.6338,-0.6338,0.0,0.0,0.0,-0.6338,0.0,-0.6434,0.0,0.0,0.0,0.0,0.0,-0.7658,0.0,-0.7638,-0.7767,-0.7794,-0.7845,-0.8011,-0.8038,-0.8038,-0.8038,-0.8038,-0.8038,-0.8038,-0.8038,-0.8038,-0.8038,-0.8038,-0.8038,-0.8038,-0.8038,-0.8333,-0.9019,-0.9118,-0.9118,-0.9118,-0.9118,-0.8825,-0.8038,-0.8038,-0.8038,-0.8038,-0.8038,-0.8038,-0.8038,-0.8038,-0.8038,-0.8038,-0.8038,-0.8038,-0.8038,-0.8038,-0.8079,-0.814,-0.814,-0.8177,-0.8235,-0.8235,-0.8289,-0.8364,-0.8364,-0.8459,-0.8594,0.0,0.0,0.0,0.0,0.0,0.0,0.0,0.0,0.0,0.0,0.0,0.0,0.0,0.0,0.0,0.0,-0.8804,-0.8427,-0.7509,-0.6912,-0.6204,-0.5273,-0.4787,-0.4519,-0.4519,-0.4519,-0.4519,0.0,0.0,0.0,-0.4921,-0.5064,-0.5152,0.0,-0.5311,-0.5428,0.0,0.0,0.0,-0.5432,-0.5403,-0.5488,-0.5599,-0.5674,-0.5837,-0.604,-0.6115,-0.6193,-0.6345,-0.6302,-0.6291,-0.6338,-0.6338,-0.6338,0.0,0.0,0.0,0.0,0.0,0.0,0.0,0.0,0.0,0.0,0.0,0.0,-0.7873,0.0,-0.7567,-0.7712,-0.8261,-0.815,-0.798,-0.798,-0.8014,-0.8038,-0.8038,-0.8038,-0.8038,-0.8038,-0.8038,-0.8038,-0.8038,-0.8038,-0.8528,-0.9903,-0.9706,-0.9801,-1.0485,-1.0194,-0.9509,-0.8531,-0.8528,-0.8333,-0.8038,-0.8038,-0.8038,-0.8038,-0.8038,-0.8038,-0.8038,-0.8038,-0.8038,-0.8038,-0.8038,-0.8038,-0.8038,-0.8038,-0.8038,-0.8038,-0.8038,-0.8109,-0.8211,-0.8211,-0.8303,-0.8445,0.0,0.0,0.0,0.0,0.0,0.0,0.0,0.0,0.0,0.0,0.0,0.0,-0.8804,-0.8804,-0.8804,-0.8804,-0.8804,-0.8209,-0.675,-0.6642,-0.5987,-0.4625,-0.4515,0.0,-0.4519,-0.4519,-0.4519,0.0,0.0,0.0,-0.4921,-0.5064,-0.5209,-0.5415,-0.5425,-0.5428,-0.5428,0.0,0.0,0.0,-0.5518,-0.5583,-0.562,-0.5898,-0.6017,-0.6067,-0.6349,-0.6369,-0.6281,-0.6417,-0.6373,-0.6338,-0.6338,-0.6338,-0.6338,0.0,0.0,0.0,0.0,0.0,0.0,0.0,0.0,0.0,0.0,0.0,0.0,0.0,-0.7485,-0.7795,-0.8971,-0.8482,-0.7824,-0.7824,-0.7943,-0.8038,-0.8038,-0.8038,-0.8038,-0.8038,-0.8038,-0.8038,-0.8038,-0.8038,-0.8528,-0.9903,-0.8821,-0.9217,-1.1653,-1.0681,-0.9998,-0.9903,-0.9903,-0.9316,-0.8038,-0.8038,-0.8038,-0.8038,-0.8038,-0.8038,-0.8038,-0.8038,-0.8038,-0.8038,-0.8038,-0.8038,-0.8038,-0.8038,-0.8038,-0.8038,-0.8038,-0.8045,-0.8052,-0.8052,-0.815,-0.8282,0.0,0.0,0.0,0.0,0.0,0.0,0.0,0.0,0.0,0.0,0.0,0.0,0.0,-0.8804,-0.8804,-0.8804,-0.8804,-0.8451,-0.7682,-0.7638,-0.7253,-0.6481,-0.5906,-0.5566,-0.5458,-0.4995,0.0,0.0,0.0,-0.4999,-0.5057,-0.5209,-0.5308,-0.5428,-0.5428,-0.5428,-0.5435,-0.5467,0.0,0.0,0.0,0.0,0.0,0.0,0.0,0.0,0.0,0.0,-0.6552,-0.6603,-0.6583,-0.6525,-0.6427,-0.6396,-0.638,-0.6288,0.0,0.0,0.0,0.0,0.0,0.0,-0.7525,-0.833,0.0,-0.9013,-0.9719,-0.9557,-0.9469,-0.9614,-1.0037,-0.9417,-0.8789,-0.8789,-0.8843,-0.8604,-0.7852,-0.7756,-0.8041,-0.8791,-0.8787,-0.9208,-1.0175,-1.0285,-1.0913,-1.241,-1.2032,-1.2226,-1.3102,-1.2716,-1.2134,-1.1263,-1.1268,-1.0583,-0.9316,-0.8432,-0.8038,-0.8038,-0.8038,-0.8038,-0.8038,-0.8038,-0.8038,-0.8038,-0.8038,-0.8038,-0.8038,-0.8038,-0.8038,-0.8038,-0.8038,-0.8038,-0.8038,-0.8038,-0.8075,-0.8136,0.0,0.0,0.0,0.0,0.0,0.0,0.0,0.0,0.0,0.0,0.0,0.0,0.0,0.0,-0.8991,-0.9092,-0.9105,-0.8903,-0.8342,-0.8354,-0.808,-0.7532,-0.6942,-0.6461,-0.6102,-0.5518,0.0,0.0,0.0,0.0,0.0,-0.5287,-0.5428,-0.5428,-0.5686,-0.5719,0.0,0.0,0.0,-0.6227,0.0,0.0,-0.8128,0.0,0.0,0.0,0.0,0.0,-0.7851,-0.7907,-0.7887,-0.7823,-0.7785,-0.7745,-0.7713,-0.7462,0.0,0.0,-0.6947,0.0,0.0,0.0,0.0,-0.9175,-0.905,0.0,-1.0742,-1.0469,-1.056,-1.0697,-1.1123,-1.0671,-1.0171,-0.988,-0.9486,-0.9072,-0.8243,-0.8149,-0.8426,-0.9254,-0.9617,-1.0311,-1.1288,-1.1392,-1.202,-1.3508,-1.3311,0.0,-1.4196,-1.3892,-1.3328,-1.2294,-1.198,-1.1347,-1.048,-0.9284,-0.8627,-0.8627,-0.8237,-0.8038,-0.8038,-0.8038,-0.8038,-0.8038,-0.8038,-0.8038,-0.8038,-0.8038,-0.8038,-0.8038,-0.8038,-0.8038,-0.8038,-0.8038,-0.8038,-0.8055,0.0,0.0,0.0,0.0,0.0,0.0,0.0,0.0,0.0,0.0,0.0,0.0,0.0,0.0,0.0,-0.9659,-0.9686,-0.9389,-0.8681,-0.8622,-0.8328,-0.7617,-0.7558,-0.7136,-0.6289,-0.611,0.0,0.0,0.0,0.0,0.0,0.0,-0.5491,-0.5495,-0.6334,-0.6372,-0.5662,0.0,-0.6297,-0.7308,0.0,-0.8361,-0.9473,0.0,0.0,0.0,-0.9131,-0.9414,0.0,-1.0383,0.0,0.0,0.0,0.0,0.0,0.0,0.0,0.0,0.0,0.0,0.0,0.0,0.0,0.0,-0.9973,0.0,-1.1598,-1.0533,-1.0539,-1.1031,-1.2151,-1.2328,-1.2066,-1.1076,-1.0031,-0.9418,-0.9326,-0.9326,-0.933,-0.9418,-1.0426,-1.1161,-1.1166,-1.1171,-1.172,-1.2927,-1.2122,-1.262,-1.4887,-1.4001,-1.3361,-1.3115,-1.2035,-1.1492,-1.1492,-1.0471,-0.9989,-0.9891,-0.8619,-0.8031,-0.8031,-0.8028,-0.8028,-0.8028,-0.8031,-0.8031,-0.8031,-0.8038,-0.8038,-0.8038,-0.8038,-0.8038,-0.8038,-0.8038,-0.8038,-0.8038,0.0,0.0,0.0,0.0,0.0,0.0,0.0,0.0,0.0,0.0,0.0,0.0,-0.9995,-0.9674,-0.9593,-0.9679,-0.9686,-0.9714,-0.9674,-0.9687,-0.9717,-0.9737,-0.9119,-0.8646,-0.8215,-0.7695,0.0,0.0,0.0,0.0,0.0,0.0,0.0,0.0,-0.7242,-0.7707,-0.7771,-0.7771,0.0,-0.7586,-0.9432,-1.0401,0.0,0.0,0.0,0.0,0.0,-1.0228,-1.0524,0.0,-1.0564,-1.0488,0.0,0.0,0.0,0.0,0.0,0.0,-0.9702,0.0,0.0,0.0,0.0,0.0,0.0,0.0,0.0,-1.2631,-1.2692,-1.2971,-1.3522,-1.3561,-1.3496,-1.323,-1.2244,-1.1138,-1.0353,-1.0264,-1.0529,-1.1401,-1.175,-1.2353,-1.3447,-1.3554,-1.3818,0.0,-1.4198,-1.4301,-1.497,-1.476,-1.4488,-1.4411,-1.3271,-1.2194,-1.1369,-1.0174,-0.922,-0.8452,-0.8067,-0.7875,-0.7872,-0.777,-0.7723,-0.7726,-0.7831,-0.7875,-0.7882,-0.7994,-0.8038,-0.8038,-0.8038,-0.8038,-0.8038,-0.8038,-0.8038,-0.8038,0.0,0.0,0.0,0.0,0.0,0.0,0.0,0.0,0.0,0.0,0.0,0.0,-0.9964,-0.9973,-1.0107,-1.0107,-1.0107,-1.012,-1.0294,-1.0301,-1.0381,-1.0618,-1.011,-0.9648,-0.9107,-0.8633,0.0,0.0,0.0,0.0,0.0,0.0,0.0,0.0,0.0,0.0,0.0,0.0,0.0,0.0,-1.056,0.0,0.0,-1.1956,-1.2272,0.0,0.0,0.0,-1.2083,-1.2083,-1.2083,0.0,0.0,0.0,0.0,0.0,0.0,0.0,0.0,0.0,0.0,0.0,0.0,0.0,-1.167,-1.2272,-1.2879,0.0,-1.3561,-1.3734,-1.4035,-1.4088,-1.4088,-1.4088,-1.347,-1.2681,-1.1472,-1.1295,-1.1552,-1.2237,-1.2766,-1.3357,-1.4236,-1.4342,-1.4409,-1.4583,-1.471,-1.4776,-1.4776,-1.4663,-1.4596,-1.4596,-1.3983,-1.3314,-1.2687,-1.1086,-0.9883,-0.9222,-0.8193,-0.7723,-0.7719,-0.7638,-0.76,-0.7604,-0.7689,-0.7723,-0.7733,-0.7882,-0.798,-0.8038,-0.8038,-0.8038,-0.8038,-0.8038,-0.8038,-0.8038,0.0,0.0,0.0,0.0,0.0,0.0,0.0,0.0,0.0,0.0,0.0,0.0,-1.0411,-1.0564,-1.0719,-1.0719,-1.0719,-1.0719,-1.0719,-1.0719,-1.0719,-1.0719,-1.0719,-1.0335,-0.955,-0.9349,0.0,0.0,0.0,0.0,0.0,0.0,0.0,0.0,0.0,0.0,0.0,0.0,0.0,-1.1079,-1.1284,-1.2173,0.0,0.0,-1.2989,-1.3997,-1.2851,-1.3203,-1.4088,-1.4088,-1.4088,0.0,0.0,0.0,0.0,0.0,-1.3694,0.0,0.0,0.0,0.0,0.0,0.0,0.0,-1.2418,-1.2532,-1.2786,-1.3093,-1.336,-1.3634,-1.3935,-1.3988,-1.3988,-1.3988,-1.4015,-1.3698,-1.2674,-1.2504,-1.2504,-1.2504,-1.347,-1.4088,-1.4088,-1.4088,-1.4088,-1.4088,-1.4322,-1.4476,-1.4476,-1.4229,-1.4088,-1.4088,-1.4335,-1.4295,-1.4115,-1.222,-1.1151,-1.0876,-0.8586,-0.7577,-0.7573,-0.7556,-0.755,-0.755,-0.7567,-0.7577,-0.7587,-0.7729,-0.7879,-0.8018,-0.8031,-0.8038,-0.8038,-0.8038,-0.8038,-0.8038,-1.332,0.0,0.0,0.0,0.0,0.0,0.0,0.0,0.0,0.0,0.0,0.0,0.0,-1.1625,-1.1256,-1.1256,-1.1256,-1.1256,-1.1256,-1.1256,-1.1256,-1.1256,-1.1256,-1.1188,-1.0979,-1.0771,0.0,0.0,0.0,0.0,0.0,0.0,0.0,0.0,0.0,0.0,0.0,0.0,0.0,-1.2451,-1.2674,0.0,-1.3267,-1.3539,-1.386,-1.4088,-1.3822,-1.3906,-1.4088,-1.4088,-1.4088,-1.4088,0.0,0.0,0.0,-1.4015,0.0,0.0,0.0,0.0,0.0,0.0,0.0,0.0,-1.2808,-1.2518,-1.2478,0.0,-1.2879,-1.3013,-1.3327,-1.338,-1.338,-1.338,-1.3581,-1.3725,-1.3704,-1.3737,-1.3737,-1.3737,-1.3997,-1.4088,-1.4088,-1.4088,-1.4088,-1.4088,-1.4142,-1.4168,-1.4168,-1.4122,-1.4088,-1.4088,-1.4142,-1.3291,-1.137,-1.1076,-0.9935,-0.8139,-0.7685,-0.7414,-0.7411,-0.7288,-0.7231,-0.7238,-0.7363,-0.7414,-0.7428,-0.758,-0.7726,-0.7868,-0.7991,-0.8038,-0.8038,-0.8038,-0.8038,-0.8038,-1.3508,0.0,0.0,0.0,0.0,0.0,0.0,0.0,0.0,0.0,0.0,0.0,0.0,0.0,-1.2173,-1.2173,-1.1696,-1.1423,-1.1423,-1.1423,-1.1423,-1.1423,-1.1423,-1.1423,-1.1423,-1.1283,-1.1209,0.0,0.0,0.0,0.0,0.0,0.0,0.0,0.0,0.0,0.0,0.0,-1.2345,-1.2849,-1.3086,0.0,-1.3474,-1.3921,-1.4088,-1.4088,-1.4088,-1.4088,-1.4088,-1.4088,-1.4088,0.0,-1.4088,-1.4088,-1.4088,0.0,-1.4088,-1.4088,0.0,0.0,0.0,-1.3714,0.0,0.0,0.0,-1.2708,-1.2565,-1.2795,-1.2822,-1.2839,-1.3153,-1.3213,-1.3213,-1.3213,-1.3454,-1.3694,-1.3841,-1.3995,-1.4088,-1.4088,-1.4088,-1.4088,-1.4088,-1.4088,-1.4088,-1.4088,-1.4088,-1.4088,-1.4088,-1.3555,-1.3203,-1.3203,-1.2687,-1.1821,-1.0611,-1.0114,-0.9292,-0.8147,-0.7524,-0.7255,-0.7255,-0.7177,-0.7139,-0.7143,-0.7221,-0.7255,-0.7268,-0.7421,-0.7529,-0.7614,-0.7838,-0.7974,-0.8038,-0.8038,-0.8038,-0.8038,-1.3854,0.0,0.0,0.0,0.0,0.0,0.0,0.0,0.0,0.0,0.0,0.0,0.0,0.0,0.0,0.0,-1.2611,-1.2137,-1.2137,-1.2137,-1.2068,-1.1867,-1.1867,-1.1729,-1.1597,-1.1536,-1.151,0.0,0.0,0.0,0.0,0.0,0.0,0.0,0.0,0.0,0.0,0.0,0.0,-1.2939,0.0,-1.3434,-1.3674,-1.3975,-1.4088,-1.4088,-1.4088,-1.4088,-1.4088,-1.4088,-1.4088,-1.4088,-1.4088,-1.4088,0.0,0.0,0.0,0.0,0.0,0.0,0.0,0.0,0.0,-1.352,0.0,0.0,0.0,0.0,0.0,0.0,0.0,0.0,0.0,0.0,0.0,0.0,0.0,-1.3694,0.0,-1.4075,-1.4035,-1.4021,-1.4082,-1.4088,-1.4088,-1.4088,-1.4088,-1.4088,-1.4088,-1.3203,-1.2504,-1.2328,-1.1381,-1.0697,-1.0269,-0.9318,-0.8803,-0.854,-0.7577,-0.7139,-0.7139,-0.7139,-0.7139,-0.7139,-0.7139,-0.7139,-0.7149,-0.7275,-0.7346,-0.74,-0.7695,-0.7885,-0.7997,-0.8028,-0.8038,-0.8038,-1.4694,-1.4678,0.0,0.0,0.0,0.0,0.0,0.0,0.0,0.0,0.0,0.0,0.0,0.0,0.0,0.0,0.0,-1.4757,-1.4757,-1.4757,-1.4403,-1.3489,-1.3417,-1.3064,-1.2204,-1.1951,-1.1817,-1.1817,0.0,0.0,0.0,0.0,0.0,0.0,-1.2607,0.0,0.0,0.0,-1.3273,0.0,-1.3581,-1.3532,0.0,-1.3975,-1.4088,-1.4088,-1.4088,-1.4088,-1.4088,0.0,-1.4088,-1.4088,0.0,-1.4088,-1.4088,-1.4088,0.0,0.0,0.0,0.0,0.0,0.0,-1.3841,0.0,0.0,0.0,-1.316,-1.316,0.0,0.0,0.0,0.0,0.0,0.0,0.0,0.0,-1.2492,-1.2946,-1.35,-1.4028,-1.3854,-1.3801,-1.4062,-1.4088,-1.4088,-1.4088,-1.4088,-1.4088,-1.4088,-1.3997,-1.3379,-1.2328,-1.2157,-1.1123,-0.9148,-0.8978,-0.8364,-0.7316,-0.7139,-0.7139,-0.7139,-0.7139,-0.7139,-0.7139,-0.7139,-0.7139,-0.7143,-0.716,-0.7248,-0.74,-0.7695,-0.7821,-0.7851,-0.7991,-0.8038,-0.8038,-1.5041,-1.498,0.0,0.0,0.0,0.0,0.0,0.0,0.0,0.0,0.0,0.0,0.0,0.0,0.0,0.0,0.0,-1.5673,0.0,0.0,0.0,-1.4968,-1.5152,-1.4731,-1.3518,-1.3388,-1.2938,-1.2124,-1.2124,0.0,0.0,0.0,0.0,0.0,-1.2768,0.0,-1.3916,0.0,-1.3767,0.0,0.0,0.0,0.0,-1.4041,-1.4088,-1.4088,-1.4088,-1.4088,-1.4088,0.0,-1.4088,0.0,0.0,0.0,0.0,-1.4088,0.0,0.0,0.0,0.0,0.0,0.0,0.0,0.0,-1.3599,0.0,-1.3414,0.0,0.0,0.0,0.0,0.0,0.0,0.0,-1.2661,0.0,0.0,0.0,-1.31,0.0,0.0,0.0,-1.3801,0.0,0.0,-1.4088,-1.4088,-1.4088,-1.4088,-1.347,-1.2851,-1.2328,-1.1638,-1.0524,-0.889,-0.889,-0.8277,-0.7139,-0.7139,-0.7139,-0.7139,-0.7139,-0.7139,-0.7139,-0.7139,-0.7139,-0.7139,-0.7139,-0.718,-0.7258,-0.7472,-0.7658,-0.7818,-0.7882,-0.7963,-0.8038,-1.5662,0.0,0.0,0.0,0.0,0.0,0.0,0.0,0.0,0.0,0.0,0.0,-1.8594,-1.7977,0.0,0.0,-1.7439,-1.6981,0.0,0.0,-1.6937,-1.6374,-1.6696,-1.6263,-1.4969,-1.4961,-1.4463,-1.3414,0.0,0.0,0.0,0.0,0.0,0.0,0.0,-1.357,-1.4481,0.0,-1.451,-1.5352,-1.4799,-1.4613,-1.4496,-1.425,-1.4088,-1.4088,-1.4088,-1.4088,-1.4088,-1.4088,-1.4088,0.0,-1.4088,0.0,-1.4088,0.0,0.0,0.0,-1.4088,0.0,0.0,0.0,0.0,0.0,0.0,0.0,0.0,0.0,0.0,0.0,0.0,0.0,0.0,0.0,0.0,-1.2795,0.0,-1.2625,0.0,0.0,0.0,0.0,0.0,0.0,-1.3848,-1.3848,-1.3921,-1.3968,-1.3968,-1.325,-1.2674,-1.2328,-1.1472,-1.0524,-0.941,-0.9061,-0.8452,-0.7577,-0.7228,-0.7139,-0.7139,-0.7139,-0.7139,-0.7139,-0.7139,-0.7139,-0.7139,-0.7139,-0.7139,-0.7149,-0.7265,-0.7465,-0.7699,-0.778,-0.7882,-0.7984,-1.667,-1.668,0.0,0.0,0.0,0.0,0.0,0.0,0.0,0.0,0.0,0.0,0.0,0.0,0.0,0.0,0.0,-1.9195,-1.9165,0.0,-1.8829,0.0,0.0,-1.7384,-1.6355,-1.6355,-1.6346,-1.6262,0.0,0.0,0.0,0.0,0.0,0.0,0.0,-1.3621,-1.3722,-1.5054,-1.5674,-1.5764,-1.6748,-1.6593,-1.5538,0.0,-1.4088,-1.4088,-1.4088,0.0,0.0,-1.4088,-1.4088,0.0,0.0,0.0,0.0,0.0,0.0,0.0,0.0,0.0,0.0,-1.4088,0.0,0.0,0.0,0.0,-1.4068,0.0,0.0,0.0,0.0,0.0,0.0,0.0,0.0,0.0,0.0,0.0,0.0,0.0,0.0,0.0,0.0,-1.3233,-1.324,-1.324,-1.35,-1.3661,-1.3661,-1.3928,-1.347,-1.2328,-1.2242,-1.1724,-1.0524,-0.9492,-0.889,-0.8803,-0.7665,-0.7139,-0.7139,-0.7139,-0.7139,-0.7139,-0.7139,-0.7139,-0.7139,-0.7139,-0.7139,-0.7139,-0.7146,-0.7244,-0.7421,-0.7706,-0.7814,-0.7838,0.0,0.0,0.0,0.0,0.0,0.0,0.0,-1.8242,0.0,0.0,-1.8672,0.0,0.0,-1.9482,-1.9541,0.0,0.0,-1.9893,-1.9326,-1.9814,0.0,-1.9249,-1.9507,-1.9049,-1.784,-1.7764,-1.7319,0.0,0.0,0.0,0.0,0.0,0.0,0.0,0.0,-1.6277,0.0,0.0,0.0,0.0,0.0,-1.6683,-1.5621,0.0,-1.4088,-1.4088,-1.4088,-1.4088,0.0,-1.4088,-1.4088,-1.4088,-1.4088,-1.4088,-1.4088,-1.4088,-1.4088,0.0,0.0,0.0,-1.4088,-1.4088,0.0,0.0,0.0,0.0,0.0,0.0,0.0,0.0,0.0,0.0,0.0,0.0,0.0,0.0,0.0,0.0,0.0,0.0,0.0,0.0,0.0,0.0,0.0,-1.3213,-1.33,-1.344,-1.3552,-1.3741,-1.3708,-1.3464,-1.347,-1.2942,-1.1729,-1.1381,-1.0351,-0.889,-0.8452,-0.7841,-0.7139,-0.7139,-0.7139,-0.7139,-0.7139,-0.7139,-0.7139,-0.7139,-0.7139,-0.7139,-0.7139,-0.7234,-0.7383,-0.7485,-0.7645,-0.7831,-1.8469,0.0,0.0,0.0,0.0,0.0,0.0,0.0,0.0,0.0,-1.9375,0.0,-2.0117,0.0,-2.0381,0.0,-2.0644,-2.0498,-1.9785,-2.0254,0.0,-2.0156,-2.042,-2.0198,0.0,0.0,0.0,0.0,0.0,-1.7849,0.0,0.0,0.0,0.0,0.0,-1.759,-1.839,-1.8069,-1.831,0.0,0.0,-1.7496,0.0,0.0,-1.4985,-1.4734,0.0,-1.5228,-1.5228,-1.5228,-1.5228,-1.5144,-1.4817,-1.4657,-1.4573,-1.425,-1.4088,-1.4088,-1.4088,-1.4088,0.0,-1.4088,-1.4088,0.0,-1.4088,0.0,-1.4088,0.0,0.0,0.0,0.0,0.0,0.0,0.0,0.0,0.0,0.0,-1.3173,0.0,0.0,0.0,0.0,0.0,-1.2953,-1.2886,-1.2886,-1.2986,-1.3173,0.0,0.0,-1.3781,-1.4075,-1.4088,-1.373,-1.2942,-1.2498,-1.1552,-1.0096,-0.9323,-0.8452,-0.7753,-0.7316,-0.7139,-0.7139,-0.7139,-0.7139,-0.7139,-0.7139,-0.7139,-0.7139,-0.7139,-0.7234,-0.738,-0.7434,-0.7638,-0.7906,-1.8076,-1.8027,0.0,0.0,-1.8057,0.0,0.0,0.0,-1.9346,0.0,-2.0098,-2.0625,-2.0625,-2.1016,-2.126,-2.123,-2.123,-2.1045,-2.0596,-2.0566,0.0,0.0,-2.0566,-2.0566,-2.0566,0.0,0.0,0.0,0.0,0.0,0.0,0.0,0.0,0.0,-1.798,0.0,-1.7496,-1.8638,-1.9116,-1.9116,-1.9116,-1.9045,-1.8877,-1.7827,-1.6764,-1.6026,-1.6927,-1.7342,-1.7342,-1.7342,-1.7342,-1.709,-1.6108,-1.5786,-1.5538,-1.4489,-1.4166,-1.4173,-1.4088,-1.4088,-1.4088,-1.4088,-1.4088,0.0,0.0,0.0,-1.4088,0.0,0.0,0.0,0.0,0.0,0.0,0.0,0.0,0.0,0.0,0.0,-1.3559,0.0,0.0,0.0,0.0,-1.2485,-1.2305,-1.2305,-1.2565,-1.2866,0.0,0.0,-1.3768,-1.4075,-1.4088,-1.4088,-1.4088,-1.2942,-1.2328,-1.2242,-1.0096,-0.8978,-0.889,-0.7753,-0.7139,-0.7139,-0.7139,-0.7139,-0.7139,-0.7139,-0.7139,-0.7139,-0.7139,-0.7241,-0.74,-0.7553,-0.7787,-0.8028,-1.911,-1.8723,-1.8574,0.0,-1.8691,-1.8623,0.0,0.0,0.0,0.0,-2.1006,-2.1553,-2.1553,-2.165,-2.1592,-2.126,-2.123,0.0,0.0,0.0,0.0,-2.0566,-2.0566,-2.0566,-2.0566,-2.0566,-2.0566,-2.0566,0.0,0.0,-2.0566,0.0,0.0,0.0,0.0,0.0,-1.9756,-2.0079,-2.0167,-2.0167,-2.0167,-1.9678,-1.9036,0.0,-1.9107,-1.806,-1.7496,-1.7342,-1.7342,-1.7342,-1.7342,-1.7253,-1.7009,-1.6927,-1.6683,-1.5621,-1.5296,-1.5137,-1.4328,-1.4088,-1.4088,-1.4088,-1.4088,-1.4088,0.0,0.0,0.0,0.0,0.0,0.0,0.0,0.0,0.0,0.0,0.0,0.0,0.0,0.0,0.0,-1.3559,0.0,0.0,-1.312,-1.2612,-1.2305,-1.2305,-1.2371,0.0,0.0,0.0,0.0,-1.4075,-1.4088,-1.4088,-1.4088,-1.3822,-1.3203,-1.2322,-1.1724,-1.0524,-0.889,-0.854,-0.7929,-0.7139,-0.7139,-0.7139,-0.7139,-0.7139,-0.7139,-0.7139,-0.7139,-0.7305,-0.756,-0.7702,-0.7804,-0.7885,-2.0069,-1.9364,0.0,-1.9482,0.0,0.0,-1.9814,-2.0254,0.0,-2.083,-2.1621,0.0,-2.1904,-2.2217,-2.2256,-2.1836,-2.1631,0.0,-2.0889,0.0,0.0,-2.0566,-2.0566,-2.0566,-2.0566,-2.0566,0.0,-2.0566,0.0,0.0,-2.0566,0.0,0.0,0.0,0.0,-2.0566,-2.0566,-2.0566,-2.0566,-2.0566,-2.0566,-2.0245,0.0,-2.0401,-2.0245,-1.9599,-1.8948,-1.8709,-1.8709,-1.8709,-1.8709,-1.863,-1.823,-1.8069,-1.7738,-1.6191,-1.5696,-1.5462,-1.4412,-1.4088,-1.4088,-1.4088,-1.4088,-1.4088,-1.4088,-1.4088,-1.4088,0.0,-1.4088,-1.4088,0.0,0.0,0.0,0.0,0.0,0.0,0.0,0.0,0.0,0.0,-1.3721,0.0,-1.3414,-1.2852,-1.2492,-1.2492,-1.2378,0.0,0.0,0.0,0.0,-1.4068,-1.4088,-1.4088,-1.4088,-1.4088,-1.3737,-1.3118,-1.2589,-1.1381,-0.9666,-0.9148,-0.8281,-0.7139,-0.7139,-0.7139,-0.7139,-0.7139,-0.7139,-0.7146,-0.7214,-0.7387,-0.7617,-0.7756,-0.7851,-0.7923,-2.0956,-2.0144,0.0,0.0,0.0,0.0,0.0,-2.0938,0.0,-2.1348,0.0,-2.2461,-2.209,-2.2705,-2.2969,-2.2549,-2.2129,-2.1699,-2.126,-2.081,-2.0566,-2.0566,-2.0566,-2.0566,-2.0566,-2.0566,-2.0566,0.0,0.0,0.0,0.0,0.0,0.0,0.0,0.0,0.0,0.0,-2.0566,-2.0566,-2.0566,-2.0566,-2.0566,-2.0566,-2.0566,-2.0566,-2.0566,-2.0566,-2.0566,-2.0566,-2.0566,-2.0566,-2.0401,-1.952,-1.9116,-1.855,-1.6511,-1.5779,-1.5462,-1.4412,-1.4088,-1.4088,-1.4088,-1.4088,-1.4088,-1.4088,-1.4088,-1.4088,-1.4088,-1.4088,-1.4088,0.0,0.0,0.0,0.0,0.0,0.0,0.0,0.0,0.0,0.0,0.0,0.0,0.0,0.0,0.0,0.0,0.0,0.0,0.0,0.0,0.0,-1.4068,-1.4088,-1.4088,-1.4088,0.0,-1.4088,-1.4088,-1.3033,-1.1901,-1.0778,-0.984,-0.8623,-0.7316,-0.7316,-0.7228,-0.7139,-0.7139,-0.7139,-0.7153,-0.7288,-0.7448,-0.7614,-0.7736,-0.7892,-0.8038,-2.1506,0.0,0.0,0.0,0.0,-2.1541,-2.2811,-2.2491,-2.2197,-2.2275,-2.2725,-2.2998,-2.293,-2.3057,-2.2969,-2.2549,-2.2129,0.0,0.0,0.0,0.0,-2.0566,-2.0566,-2.0566,-2.0566,-2.0566,-2.0566,0.0,0.0,0.0,0.0,0.0,0.0,0.0,0.0,0.0,-2.0566,-2.0566,0.0,-2.0566,-2.0566,-2.0566,-2.0566,-2.0566,-2.0566,-2.0566,-2.0566,-2.0566,-2.0566,-2.0566,-2.0566,-2.0566,-2.0401,-1.9678,-1.8718,-1.7415,-1.6355,-1.5462,-1.4412,-1.4088,-1.4088,-1.4088,-1.4088,-1.4088,-1.4088,-1.4088,-1.4088,-1.4088,-1.4088,-1.4088,-1.4088,0.0,0.0,0.0,0.0,0.0,0.0,0.0,0.0,0.0,0.0,-1.3915,0.0,0.0,0.0,0.0,0.0,0.0,0.0,0.0,0.0,0.0,-1.4088,0.0,0.0,0.0,-1.4088,-1.4088,-1.3913,-1.3124,-1.198,-1.1809,-1.0519,-0.8627,-0.8627,-0.8017,-0.7139,-0.7139,-0.7139,-0.7143,-0.717,-0.7353,-0.7604,-0.7628,-0.7807,-0.8038,-2.3421,0.0,0.0,0.0,0.0,0.0,0.0,-2.3773,-2.3652,-2.3429,-2.3008,-2.2812,-2.2812,-2.3008,-2.2969,-2.2549,-2.2129,-2.1699,-2.126,-2.081,-2.0566,-2.0566,-2.0566,-2.0566,-2.0566,-2.0566,-2.0566,-2.0566,0.0,0.0,0.0,0.0,0.0,0.0,0.0,-2.0566,0.0,0.0,0.0,-2.0566,-2.0566,-2.0566,-2.0566,-2.0566,-2.0566,-2.0566,-2.0566,-2.0566,-2.0566,-2.0566,-2.0566,-2.0566,-2.0566,-2.0245,-1.952,-1.7819,-1.6927,-1.6198,-1.458,-1.4088,-1.4088,-1.4088,-1.4088,-1.4088,-1.4088,-1.4088,-1.4088,-1.4088,-1.4088,-1.4088,-1.4088,-1.4088,0.0,0.0,0.0,0.0,0.0,0.0,-1.4035,0.0,0.0,0.0,0.0,0.0,0.0,0.0,0.0,0.0,0.0,0.0,0.0,0.0,0.0,0.0,0.0,0.0,0.0,-1.4088,-1.4088,-1.347,-1.2328,-1.2328,-1.1381,-0.9749,-0.9148,-0.854,-0.8013,-0.7316,-0.7139,-0.7146,-0.7227,-0.7397,-0.7607,-0.7682,-0.7848,-0.8038,0.0,-2.3892,0.0,0.0,-2.4192,-2.417,-2.4789,-2.5078,-2.483,-2.4065,-2.3213,-2.2646,-2.2646,-2.2861,-2.2871,-2.2539,-2.2041,-2.1602,-2.126,-2.081,-2.0566,-2.0566,-2.0566,-2.0566,-2.0566,-2.0566,-2.0566,0.0,0.0,0.0,0.0,0.0,0.0,0.0,0.0,0.0,0.0,0.0,-2.0566,-2.0566,-2.0566,-2.0566,-2.0566,-2.0566,-2.0566,-2.0566,-2.0566,-2.0566,-2.0566,-2.0566,-2.0566,-2.0566,-2.0566,-2.0401,-1.9923,-1.8141,-1.7334,-1.6601,-1.4901,-1.425,-1.4088,-1.4088,-1.4088,-1.4088,-1.4088,-1.4088,-1.4088,-1.4088,-1.4088,-1.4088,-1.4088,-1.4088,0.0,0.0,0.0,0.0,0.0,0.0,-1.4088,0.0,0.0,0.0,-1.4001,0.0,0.0,0.0,0.0,0.0,-1.2903,0.0,0.0,0.0,0.0,-1.4088,-1.4088,0.0,-1.4088,-1.4088,-1.4088,-1.3561,-1.2674,-1.2674,-1.2072,-1.0869,-1.0009,-0.9492,-0.9148,-0.8312,-0.7974,-0.7993,-0.8163,-0.8151,-0.8128,-0.8147,-0.8101,-0.8038,0.0,0.0,0.0,0.0,0.0,-2.5916,-2.7011,-2.6726,-2.563,-2.3501,-2.3076,-2.3076,-2.3076,-2.2773,-2.2559,-2.2519,-2.1768,-2.1279,-2.123,-2.081,-2.0566,-2.0566,-2.0566,-2.0566,-2.0566,-2.0566,-2.0566,0.0,0.0,-2.0566,0.0,0.0,0.0,0.0,0.0,0.0,0.0,-2.0566,-2.0566,-2.0566,-2.0566,-2.0566,-2.0566,-2.0566,-2.0566,-2.0566,-2.0566,-2.0566,-2.0566,-2.0566,-2.0566,-2.0566,-2.0566,-1.9923,-1.9116,-1.8877,-1.7407,-1.5786,-1.5621,-1.481,-1.4088,-1.4088,-1.4088,-1.4088,-1.4088,-1.4088,-1.4088,-1.4088,-1.4088,-1.4088,-1.4088,-1.4088,-1.4088,0.0,0.0,0.0,0.0,0.0,-1.4088,-1.4088,0.0,0.0,-1.3707,-1.34,0.0,0.0,-1.2815,0.0,0.0,0.0,0.0,-1.4035,0.0,-1.4088,-1.4088,-1.4088,-1.4088,-1.4088,-1.4088,-1.3997,-1.3913,-1.3913,-1.3294,-1.2151,-1.2066,-1.1386,-1.0458,-1.0651,-1.0736,-1.0756,-1.097,-1.045,-0.9598,-0.9615,-0.8968,-0.8038,0.0,0.0,0.0,0.0,0.0,0.0,0.0,-2.7634,-2.6871,-2.5305,-2.4314,-2.3493,-2.285,-2.2617,-2.2305,-2.1797,-2.167,-2.1406,-2.0869,-2.0664,-2.0566,-2.0566,-2.0566,-2.0566,-2.0566,-2.0566,-2.0566,0.0,0.0,0.0,0.0,0.0,0.0,0.0,0.0,-2.0566,-2.0566,-2.0566,-2.0566,-2.0566,-2.0566,-2.0566,-2.0566,-2.0566,-2.0566,-2.0566,-2.0566,-2.0566,-2.0566,-2.0566,-2.0566,-2.0566,-2.0566,-2.0323,-1.9835,-1.9204,-1.8381,-1.7407,-1.6026,-1.5379,-1.4894,-1.425,-1.4088,-1.4088,-1.4088,-1.4088,-1.4088,-1.4088,-1.4088,-1.4088,-1.4088,-1.4088,-1.4088,-1.4088,0.0,0.0,0.0,0.0,0.0,-1.4088,0.0,-1.4041,-1.3921,-1.3487,0.0,0.0,0.0,0.0,0.0,0.0,0.0,-1.3814,0.0,-1.4088,-1.4088,-1.4088,-1.4088,-1.4088,-1.4088,-1.4088,-1.4088,-1.4088,-1.347,-1.2328,-1.2328,-1.1638,-1.0626,-1.0942,-1.1122,-1.1158,-1.1518,-1.1343,-1.0963,-1.0995,-1.0223,-0.9217,-2.831,0.0,-2.7714,0.0,-2.8617,-2.8264,-2.8548,-2.8597,-2.814,-2.6921,-2.565,-2.4438,-2.3136,-2.2443,-2.1894,-2.1289,-2.1396,-2.123,-2.0605,-2.0566,-2.0566,-2.0566,-2.0566,0.0,-2.0566,-2.0566,-2.0566,-2.0566,-2.0566,0.0,0.0,0.0,0.0,0.0,-2.0566,-2.0566,-2.0566,-2.0566,-2.0566,-2.0566,-2.0566,-2.0566,-2.0566,-2.0566,-2.0566,-2.0566,-2.0566,-2.0566,-2.0566,-2.0566,-2.0566,-2.0566,-2.0566,-2.0566,-2.0479,-1.9678,-1.9283,-1.863,-1.7082,-1.6429,-1.5951,-1.5228,-1.4817,-1.4573,-1.4573,-1.4573,-1.4573,-1.4573,-1.4402,-1.4188,-1.4102,-1.4088,-1.4088,-1.4088,0.0,0.0,0.0,-1.4088,0.0,-1.4088,-1.4088,-1.4055,-1.3968,-1.3581,0.0,0.0,0.0,0.0,0.0,0.0,0.0,0.0,0.0,0.0,-1.4088,-1.4088,-1.4088,-1.4088,-1.4088,-1.4088,-1.4088,-1.4088,-1.3646,-1.2851,-1.2851,-1.2339,-1.1677,-1.2081,-1.221,-1.226,-1.2752,-1.2658,-1.2389,-1.2464,-1.1653,-1.0583,-2.8812,-2.8913,-2.9101,-2.9679,-2.9779,-2.9779,-2.9792,-2.9792,-2.9167,-2.7472,-2.6859,-2.5951,-2.4392,-2.2372,-2.125,-2.123,-2.083,-2.0576,-2.0566,-2.0566,-2.0566,0.0,0.0,-2.0566,-2.0566,-2.0566,-2.0566,-2.0566,0.0,0.0,-2.0566,0.0,-2.0566,-2.0566,-2.0566,-2.0566,-2.0566,-2.0566,-2.0566,-2.0566,-2.0566,-2.0566,-2.0566,-2.0566,-2.0566,-2.0566,-2.0566,-2.0566,-2.0566,-2.0566,-2.0566,-2.0566,-2.0566,-2.0566,-2.0566,-2.0566,-1.9835,-1.8957,-1.8957,-1.8149,-1.7261,-1.7261,-1.6437,-1.5696,-1.5696,-1.5696,-1.5696,-1.5696,-1.505,-1.4429,-1.4142,-1.4088,-1.4088,-1.4088,0.0,0.0,0.0,-1.4088,0.0,-1.4088,-1.4088,-1.3975,-1.3674,-1.3559,0.0,0.0,0.0,0.0,0.0,0.0,0.0,-1.4075,-1.4082,0.0,-1.4088,-1.4088,-1.4088,-1.4088,-1.4088,-1.4088,-1.4088,-1.4088,-1.4088,-1.4088,-1.4088,-1.4088,-1.4128,-1.4716,-1.4957,-1.5017,-1.5504,-1.4943,-1.3872,-1.3872,-1.3006,-1.1853,-2.9478,-2.9515,-2.9578,-2.9767,-2.9792,-2.9792,-2.9792,-2.9453,-2.8975,-2.8472,-2.7327,-2.6422,-2.5885,-2.3638,-2.208,0.0,-2.1302,-2.0889,0.0,-2.0566,-2.0566,-2.0566,-2.0566,-2.0566,-2.0566,-2.0566,-2.0566,-2.0566,0.0,0.0,0.0,-2.0566,-2.0566,-2.0566,-2.0566,-2.0566,-2.0566,-2.0566,-2.0566,-2.0566,-2.0566,-2.0566,-2.0566,-2.0566,-2.0566,-2.0566,-2.0566,-2.0566,-2.0566,-2.0566,-2.0566,-2.0566,-2.0566,-2.0566,-2.0566,-2.0566,-2.0323,-1.9923,-1.9204,-1.8718,-1.831,-1.7496,-1.7009,-1.6764,-1.6764,-1.6191,-1.5696,-1.5696,-1.4888,-1.4195,-1.4108,-1.4088,-1.4088,-1.4088,-1.4088,0.0,-1.4088,0.0,-1.4088,-1.4088,-1.4088,-1.4048,-1.3955,-1.3761,0.0,0.0,0.0,0.0,0.0,0.0,0.0,0.0,-1.4088,0.0,-1.4088,-1.4088,-1.4088,-1.4088,-1.4088,-1.4088,-1.4088,-1.4088,-1.4088,-1.4088,-1.4088,-1.4202,-1.4416,-1.4803,-1.5077,-1.5297,-1.5678,-1.554,-1.5242,-1.5242,-1.4364,-1.3295,-2.9792,-2.9792,-2.9792,-2.9792,-2.9792,-2.9792,-2.9792,-2.9302,-2.885,-2.8649,-2.7755,-2.7077,-2.687,-2.5102,0.0,-2.2918,-2.2041,-2.1379,-2.1175,-2.0789,-2.0566,-2.0566,-2.0566,-2.0566,-2.0566,-2.0566,0.0,-2.0566,-2.0566,-2.0566,-2.0566,-2.0566,-2.0566,-2.0566,-2.0566,-2.0566,-2.0566,-2.0566,-2.0566,-2.0566,-2.0566,-2.0566,-2.0566,-2.0566,-2.0566,-2.0566,-2.0566,-2.0566,-2.0566,-2.0566,-2.0566,-2.0566,-2.0566,-2.0566,-2.0566,-2.0566,-2.0566,-2.0479,-1.9766,-1.9599,-1.9441,-1.8709,-1.823,-1.7908,-1.7908,-1.7196,-1.6593,-1.687,-1.5801,-1.4789,-1.4755,-1.4412,-1.4088,-1.4088,-1.4088,-1.4088,-1.4088,0.0,-1.4088,0.0,0.0,0.0,0.0,-1.3921,-1.3888,0.0,0.0,0.0,0.0,0.0,0.0,-1.4088,-1.4088,-1.4088,-1.4088,-1.4088,-1.4088,-1.4088,-1.4088,-1.4142,-1.4249,-1.4135,-1.4088,-1.4088,-1.4088,-1.4255,-1.4543,-1.4843,-1.5137,-1.5424,-1.5718,-1.5832,-1.5832,-1.5832,-1.5337,-1.4657,-2.9792,-2.9792,-2.9792,0.0,-2.9792,-2.9792,-2.9792,-2.9302,-2.875,-2.8235,-2.816,-2.7946,-2.7394,-2.6493,-2.5557,-2.4555,0.0,0.0,-2.2103,-2.1298,-2.0789,-2.0712,-2.0712,-2.0634,-2.0566,-2.0566,-2.0566,-2.0566,-2.0566,-2.0566,-2.0566,-2.0566,-2.0566,-2.0566,-2.0566,-2.0566,-2.0566,-2.0566,-2.0566,-2.0566,-2.0566,-2.0566,-2.0566,-2.0566,-2.0566,-2.0566,-2.0566,-2.0566,-2.0566,-2.0566,-2.0566,-2.0566,-2.0566,-2.0566,-2.0566,-2.0566,-2.0566,-2.0566,-2.0566,-2.0566,-2.0566,-2.0566,-1.9844,-1.9116,-1.9116,-1.8507,-1.8086,-1.8878,-1.7507,-1.6055,-1.5756,-1.4894,-1.4173,-1.4088,-1.4088,-1.4088,-1.4088,-1.4088,-1.4088,0.0,0.0,0.0,-1.4088,-1.4088,-1.4088,0.0,0.0,0.0,0.0,0.0,-1.4088,-1.4088,-1.4088,-1.4088,-1.4088,-1.4088,-1.4088,-1.4088,-1.4088,-1.4229,-1.4482,-1.4208,-1.4088,-1.4088,-1.4088,-1.4262,-1.4569,-1.485,-1.515,-1.5451,-1.5725,-1.5832,-1.5832,-1.5832,-1.5832,-1.5832,0.0,0.0,-2.9792,-2.9792,-2.9792,-2.9792,-2.9792,-2.9302,-2.8875,-2.875,-2.8737,-2.8524,-2.7971,-2.7678,-2.7273,-2.6637,-2.4469,-2.3147,-2.3147,-2.2936,-2.2478,-2.1735,-2.1669,-2.1298,-2.0644,-2.0566,-2.0566,-2.0566,-2.0566,-2.0566,-2.0566,-2.0566,-2.0566,-2.0566,-2.0566,-2.0566,-2.0566,-2.0566,-2.0566,-2.0566,-2.0566,-2.0566,-2.0566,-2.0566,-2.0566,-2.0566,-2.0566,-2.0566,-2.0566,-2.0566,-2.0566,-2.0566,-2.0566,-2.0566,-2.0566,-2.0566,-2.0566,-2.0566,-2.0566,-2.0566,-2.0566,-2.0566,-2.0401,-2.0245,-2.0245,-1.9436,-1.8745,-1.8984,-1.7976,-1.6778,-1.5876,-1.5455,-1.5054,-1.425,-1.4088,-1.4088,-1.4088,-1.4088,-1.4088,0.0,-1.4088,-1.4088,-1.4088,-1.4088,-1.4088,0.0,0.0,0.0,0.0,-1.4088,-1.4088,-1.4088,-1.4088,-1.4088,-1.4088,-1.4088,-1.4088,-1.4088,-1.4088,-1.4122,-1.4188,-1.4122,-1.4088,-1.4088,-1.4088,-1.4382,-1.4863,-1.4937,-1.5264,-1.5732,-1.5805,-1.5832,-1.5832,-1.5832,-1.5832,-1.5832,-2.9792,-2.9792,-2.9792,-2.9792,-2.9792,-2.9792,-2.9792,-2.9302,-2.8925,-2.8925,-2.8712,-2.8436,-2.8134,-2.7883,-2.7607,-2.7306,-2.5362,-2.4192,-2.4192,-2.3745,-2.3294,-2.2702,-2.2702,-2.2478,-2.1973,-2.1897,-2.168,-2.1221,-2.0789,-2.0566,-2.0566,-2.0566,-2.0566,-2.0566,-2.0566,-2.0566,-2.0566,-2.0566,-2.0566,-2.0566,-2.0566,-2.0566,-2.0566,-2.0566,-2.0566,-2.0566,-2.0566,-2.0566,-2.0566,-2.0566,-2.0566,-2.0566,-2.0566,-2.0566,-2.0566,-2.0566,-2.0566,-2.0566,-2.0566,-2.0566,-2.0566,-2.0566,-2.0566,-2.0566,-2.0566,-2.0167,-1.9756,-1.9756,-1.8868,-1.7738,-1.6601,-1.6026,-1.5379,-1.425,-1.4088,-1.4088,-1.4088,-1.4088,-1.4088,-1.4088,-1.4088,-1.4088,-1.4088,-1.4088,-1.4088,-1.4088,-1.4088,0.0,-1.4088,-1.4088,-1.4088,-1.4088,-1.4088,-1.4088,-1.4088,-1.4088,-1.4155,-1.4282,-1.4155,-1.4155,-1.4282,-1.4148,-1.4162,-1.4282,-1.4282,-1.4616,-1.5164,-1.5164,-1.5424,-1.5832,-1.5832,-1.5832,-1.5832,-1.5832,-1.5832,-1.5832,-2.9792,-2.9792,-2.9792,-2.9792,-2.9792,-2.9792,-2.9792,-2.9377,-2.9063,-2.9063,-2.8649,-2.8298,-2.8122,-2.7682,-2.7344,-2.7168,-2.599,-2.5229,-2.5229,-2.4409,-2.3891,-2.3734,-2.3745,-2.3672,-2.3514,-2.3514,-2.2999,-2.2027,-2.1231,-2.0712,-2.0566,-2.0566,-2.0566,-2.0566,-2.0566,-2.0566,-2.0566,-2.0566,-2.0566,-2.0566,-2.0566,-2.0566,-2.0566,-2.0566,-2.0566,-2.0566,-2.0566,-2.0566,-2.0566,-2.0566,-2.0566,-2.0566,-2.0566,-2.0566,-2.0566,-2.0566,-2.0566,-2.0566,-2.0566,-2.0566,-2.0566,-2.0566,-2.0566,-2.0566,-2.0566,-2.0566,-2.0566,-2.0566,-1.9844,-1.8877,-1.7738,-1.6683,-1.5628,-1.4489,-1.4166,-1.4088,-1.4088,0.0,-1.4088,-1.4088,-1.4088,-1.4088,-1.4088,-1.4088,-1.4088,-1.4088,-1.4088,-1.4088,-1.4088,-1.4088,-1.4088,-1.4088,-1.4088,-1.4088,-1.4088,-1.4088,-1.4208,-1.4449,-1.4249,-1.4282,-1.4509,-1.4315,-1.4355,-1.4589,-1.4589,-1.4897,-1.5398,-1.5398,-1.5565,-1.5832,-1.5832,-1.5832,-1.5832,-1.5832,-1.5832,-1.5832,-2.9792,-2.9792,-2.9792,-2.9792,-2.9792,-2.9792,-2.9792,-2.9716,-2.9654,-2.9654,-2.9578,-2.9164,-2.821,-2.8034,-2.7607,-2.6666,-2.6433,-2.6245,-2.6245,-2.6094,-2.5652,-2.4791,-2.4791,-2.4337,-2.3514,-2.3514,-2.2999,-2.2027,-2.1886,-2.1375,-2.0566,-2.0566,-2.0566,-2.0566,-2.0566,-2.0566,-2.0566,-2.0566,-2.0566,-2.0566,-2.0566,-2.0566,-2.0566,-2.0566,-2.0566,-2.0566,-2.0566,-2.0566,-2.0566,-2.0566,-2.0566,-2.0566,-2.0566,-2.0566,-2.0566,-2.0566,-2.0566,-2.0566,-2.0566,-2.0566,-2.0566,-2.0566,-2.0566,-2.0566,-2.0566,-2.0566,-2.0566,-2.0566,-2.0489,-2.0001,-1.8957,-1.7819,-1.6683,-1.5621,-1.465,-1.4088,-1.4088,0.0,-1.4088,-1.4088,-1.4088,-1.4088,-1.4088,-1.4088,-1.4088,-1.4088,-1.4088,-1.4088,-1.4088,-1.4088,-1.4088,-1.4088,-1.4088,-1.4088,-1.4088,-1.4088,-1.4108,-1.4155,-1.4355,-1.4476,-1.4529,-1.473,-1.4856,-1.4897,-1.4897,-1.5084,-1.5398,-1.5398,-1.5565,-1.5832,-1.5832,-1.5832,-1.5832,-1.5832,-1.5832,-1.5832,-2.9792,-2.9792,-2.9792,-2.9792,-2.9792,-2.9792,-2.9792,-2.9792,-2.9792,-2.9792,-2.9528,-2.9126,-2.8612,-2.8021,-2.7457,-2.6942,-2.6697,-2.6533,-2.6533,-2.6533,-2.6314,-2.5804,-2.5804,-2.5581,-2.5134,-2.4552,-2.4108,-2.3599,-2.2553,-2.1811,-2.1375,-2.0867,-2.0566,-2.0566,-2.0566,-2.0566,-2.0566,-2.0566,-2.0566,-2.0566,-2.0566,-2.0566,-2.0566,-2.0566,-2.0566,-2.0566,-2.0566,-2.0566,-2.0566,-2.0566,-2.0566,-2.0566,-2.0566,-2.0566,-2.0566,-2.0566,-2.0566,-2.0566,-2.0566,-2.0566,-2.0566,-2.0566,-2.0566,-2.0566,-2.0566,-2.0566,-2.0566,-2.0566,-2.0566,-2.0245,-1.9204,-1.855,-1.7658,-1.5944,-1.5296,0.0,-1.4166,-1.4088,-1.4088,-1.4088,-1.4088,-1.4088,-1.4088,-1.4088,-1.4088,-1.4088,-1.4088,-1.4088,-1.4088,-1.4088,-1.4088,-1.4088,-1.4088,-1.4088,-1.4088,-1.4088,-1.4088,-1.4088,-1.4222,-1.4369,-1.4522,-1.4663,-1.4897,-1.5197,-1.5197,-1.5357,-1.5631,-1.5631,-1.5712,-1.5832,-1.5832,-1.5832,-1.5832,-1.5832,-1.5832,-1.5832,-2.9792,-2.9792,-2.9792,-2.9792,-2.9792,-2.9792,-2.9792,-2.9792,-2.9792,-2.9792,-2.9402,-2.9076,-2.895,-2.8059,-2.7419,-2.7293,-2.6779,-2.6533,-2.6533,-2.6533,-2.6533,-2.6533,-2.6533,-2.6533,-2.6533,-2.5734,-2.5229,-2.5004,-2.3441,-2.2553,-2.2328,-2.1593,-2.1155,-2.0934,-2.0934,-2.0779,-2.0566,-2.0566,-2.0566,-2.0566,-2.0566,-2.0566,-2.0566,-2.0566,-2.0566,-2.0566,-2.0566,-2.0566,-2.0566,-2.0566,-2.0566,-2.0566,-2.0566,-2.0566,-2.0566,-2.0566,-2.0566,-2.0566,-2.0566,-2.0566,-2.0566,-2.0566,-2.0566,-2.0566,-2.0566,-2.0566,-2.0566,-2.0566,-2.0566,-2.0323,-1.952,-1.9204,-1.847,-1.6756,0.0,-1.5372,0.0,-1.425,-1.4088,-1.4088,-1.4088,-1.4088,-1.4088,-1.4088,-1.4088,-1.4088,-1.4088,-1.4088,-1.4088,-1.4088,-1.4088,-1.4088,-1.4088,-1.4088,-1.4088,-1.4088,-1.4088,-1.4088,-1.4155,-1.4342,-1.4629,-1.4689,-1.5003,-1.5498,-1.5498,-1.5625,-1.5832,-1.5832,-1.5832,-1.5832,-1.5832,-1.5832,-1.5832,-1.5832,-1.5832,-1.5832,-2.9792,-2.9792,-2.9792,-2.9792,-2.9792,-2.9792,-2.9792,-2.9792,-2.9792,-2.9792,-2.9754,-2.9528,-2.8988,-2.8398,-2.7846,-2.7318,-2.6779,-2.6533,-2.6533,-2.6533,-2.6533,-2.6533,-2.6533,-2.6533,-2.6533,-2.6452,-2.5955,-2.5004,-2.4862,-2.4264,-2.3368,-2.3294,-2.2776,-2.1886,-2.1886,-2.1451,-2.0566,-2.0566,-2.0566,-2.0566,-2.0566,-2.0566,-2.0566,-2.0566,-2.0566,-2.0566,-2.0566,-2.0566,-2.0566,-2.0566,-2.0566,-2.0566,-2.0566,-2.0566,-2.0566,-2.0566,-2.0566,-2.0566,-2.0566,-2.0566,-2.0566,-2.0566,-2.0566,-2.0566,-2.0566,-2.0566,-2.0566,-2.0566,-2.0566,-2.0566,-2.0489,-1.9687,-1.8957,-1.8798,0.0,0.0,-1.5621,-1.4734,-1.4088,-1.4088,-1.4088,-1.4088,-1.4088,-1.4088,-1.4088,-1.4088,-1.4088,-1.4088,-1.4088,-1.4088,-1.4088,-1.4088,-1.4088,-1.4088,-1.4088,-1.4088,-1.4088,-1.4088,-1.4362,-1.4643,-1.4943,-1.5211,-1.5498,-1.5798,-1.5798,-1.5812,-1.5832,-1.5832,-1.5832,-1.5832,-1.5832,-1.5832,-1.5832,-1.5832,-1.5832,-1.5832,-2.9792,-2.9792,-2.9792,-2.9792,-2.9792,-2.9792,-2.9792,-2.949,-2.939,-2.9741,-2.9478,-2.9164,-2.895,-2.8436,-2.7883,-2.7331,-2.6779,-2.6533,-2.6533,-2.6533,-2.6533,-2.6533,-2.6533,-2.6533,-2.6533,-2.6533,-2.6314,-2.5955,-2.53,-2.4791,-2.4409,-2.3818,-2.3294,-2.2925,-2.2253,-2.1811,-2.1451,-2.0857,-2.0566,-2.0566,-2.0566,-2.0566,-2.0566,-2.0566,-2.0566,-2.0566,-2.0566,-2.0566,-2.0566,-2.0566,-2.0566,-2.0566,-2.0566,-2.0566,-2.0566,-2.0566,-2.0566,-2.0566,-2.0566,-2.0566,-2.0566,-2.0566,-2.0566,-2.0566,-2.0566,-2.0566,-2.0566,-2.0566,-2.0566,-2.0566,-2.0566,-2.0245,-1.9756,-1.9125,0.0,-1.7245,-1.5861,-1.5379,-1.4817,-1.4166,-1.4088,-1.4088,-1.4088,-1.4088,-1.4088,-1.4088,-1.4088,-1.4088,-1.4088,-1.4088,-1.4088,-1.4088,-1.4088,-1.4088,-1.4088,-1.4088,-1.4088,-1.4088,-1.4202,-1.4502,-1.497,-1.5077,-1.5384,-1.5832,-1.5832,-1.5832,-1.5832,-1.5832,-1.5832,-1.5832,-1.5832,-1.5832,-1.5832,-1.5832,-1.5832,-1.5832,-2.9754,-2.9641,-2.9578,-2.9767,-2.9641,-2.9528,-2.9528,-2.9189,-2.9076,-2.9465,-2.934,-2.9202,-2.9202,-2.8549,-2.7946,-2.757,-2.6879,-2.6533,-2.6533,-2.6533,-2.6533,-2.6533,-2.6533,-2.6533,-2.6533,-2.6533,-2.6533,-2.6533,-2.5804,-2.5441,-2.5441,-2.4767,-2.4253,-2.3891,-2.2925,-2.2328,-2.1952,-2.1011,-2.0566,-2.0566,-2.0566,-2.0566,-2.0566,-2.0566,-2.0566,-2.0566,-2.0566,-2.0566,-2.0566,-2.0566,-2.0566,-2.0566,-2.0566,-2.0566,-2.0566,-2.0566,-2.0566,-2.0566,-2.0566,-2.0566,-2.0566,-2.0566,-2.0566,-2.0566,-2.0566,-2.0566,-2.0566,-2.0566,-2.0566,-2.0566,-2.0566,-2.0566,-2.0323,-1.9599,-1.9204,-1.847,-1.6919,-1.6108,-1.5462,-1.4657,-1.4334,-1.4088,-1.4088,-1.4088,-1.4088,-1.4088,-1.4088,-1.4088,-1.4088,-1.4088,-1.4088,-1.4088,-1.4088,-1.4088,-1.4088,-1.4088,-1.4088,-1.4088,-1.4088,-1.4396,-1.4963,-1.4963,-1.5284,-1.5832,-1.5832,-1.5832,-1.5832,-1.5832,-1.5832,-1.5818,-1.5732,-1.5752,-1.5818,-1.5732,-1.5752,-1.5832,-2.9679,-2.9315,-2.9101,-2.9679,-2.9302,-2.8925,-2.8925,-2.8925,-2.8925,-2.8925,-2.9415,-2.9779,-2.9779,-2.8775,-2.8097,-2.8097,-2.7092,-2.6533,-2.6533,-2.6533,-2.6533,-2.6533,-2.6533,-2.6533,-2.6533,-2.6533,-2.6533,-2.6533,-2.6533,-2.6533,-2.6533,-2.6533,-2.5955,-2.4933,-2.3963,-2.2925,-2.1962,-2.1001,-2.0566,-2.0566,-2.0566,-2.0566,-2.0566,-2.0566,-2.0566,-2.0566,-2.0566,-2.0566,-2.0566,-2.0566,-2.0566,-2.0566,-2.0566,-2.0566,-2.0566,-2.0566,-2.0566,-2.0566,-2.0566,-2.0566,-2.0566,-2.0566,-2.0566,-2.0566,-2.0566,-2.0566,-2.0566,-2.0566,-2.0566,-2.0566,-2.0566,-2.0566,-2.0566,-2.0566,-1.9687,-1.9045,-1.9036,-1.7082,-1.5696,-1.5696,-1.4734,-1.4088,-1.4088,-1.4088,-1.4088,-1.4088,-1.4088,-1.4088,-1.4088,-1.4088,-1.4088,-1.4088,-1.4088,-1.4088,-1.4088,-1.4088,-1.4088,-1.4088,-1.4088,-1.4396,-1.4963,-1.4963,-1.5277,-1.5818,-1.5818,-1.5818,-1.5825,-1.5825,-1.5825,-1.5798,-1.5511,-1.5578,-1.5792,-1.5504,-1.5578,-1.5832,-2.9151,-2.8737,-2.8411,-2.8574,-2.8461,-2.8348,-2.8348,-2.8021,-2.8047,-2.8825,-2.8398,-2.8172,-2.8574,-2.7959,-2.7369,-2.6979,-2.6653,-2.6533,-2.6533,-2.6533,-2.6533,-2.6533,-2.6533,-2.6533,-2.6533,-2.6533,-2.6533,-2.6533,-2.6533,-2.6533,-2.6533,-2.6533,-2.6314,-2.5955,-2.4253,-2.3294,-2.2925,-2.1308,-2.0566,-2.0566,-2.0566,-2.0566,-2.0566,-2.0566,-2.0566,-2.0566,-2.0566,-2.0566,-2.0566,-2.0566,-2.0566,-2.0566,-2.0566,-2.0566,-2.0566,-2.0566,-2.0566,-2.0566,-2.0566,-2.0566,-2.0566,-2.0566,-2.0566,-2.0566,-2.0566,-2.0566,-2.0566,-2.0566,-2.0566,-2.0566,-2.0566,-2.0566,-2.0566,-2.0566,-2.0323,-1.9844,-1.9125,-1.847,-1.7407,-1.5861,-1.5462,-1.4894,-1.4166,-1.4088,-1.4088,-1.4088,-1.4088,-1.4088,-1.4088,-1.4088,-1.4088,-1.4088,-1.4088,-1.4088,-1.4088,-1.4088,-1.4088,-1.4088,-1.4088,-1.4289,-1.4656,-1.4656,-1.4863,-1.5224,-1.5224,-1.5337,-1.5524,-1.5524,-1.5645,-1.5818,-1.5732,-1.5752,-1.5818,-1.5732,-1.5752,-1.5832,-2.8888,-2.831,-2.7846,-2.8059,-2.7921,-2.777,-2.777,-2.7494,-2.7519,-2.8185,-2.7883,-2.7733,-2.8072,-2.7607,-2.7155,-2.6816,-2.6647,-2.6533,-2.6533,-2.6533,-2.6533,-2.6533,-2.6239,-2.6226,-2.6521,-2.6533,-2.6533,-2.6533,-2.6533,-2.6533,-2.6533,-2.6533,-2.6533,-2.6452,-2.4838,-2.3891,-2.3368,-2.1821,-2.1155,-2.1155,-2.0789,-2.1088,-2.168,-2.0867,-2.0867,-2.1078,-2.0712,-2.0566,-2.0566,-2.0566,-2.0566,-2.0537,-2.0361,-2.043,-2.0527,-2.0361,-2.043,-2.0566,-2.0566,-2.0566,-2.0566,-2.0566,-2.0566,-2.0566,-2.0566,-2.0566,-2.0566,-2.0566,-2.0566,-2.0566,-2.0566,-2.0566,-2.0566,-2.0566,-2.0566,-2.0401,-1.9678,-1.9283,-1.847,-1.7163,-1.6593,-1.5951,-1.481,-1.4734,-1.4573,-1.4166,-1.4088,-1.4088,-1.4088,-1.4088,-1.4088,-1.4088,-1.4088,-1.4088,-1.4088,-1.4088,-1.4088,-1.4088,-1.4088,-1.4242,-1.4522,-1.4522,-1.4683,-1.4963,-1.4963,-1.5064,-1.5224,-1.5224,-1.5331,-1.5478,-1.5357,-1.5384,-1.5484,-1.5484,-1.5484,-1.5504,-2.8687,-2.7934,-2.7369,-2.7871,-2.7544,-2.7205,-2.7205,-2.7205,-2.7231,-2.7268,-2.767,-2.7971,-2.8021,-2.7544,-2.7205,-2.7205,-2.6753,-2.6533,-2.6533,-2.6533,-2.6533,-2.6533,-2.59,-2.585,-2.6445,-2.6445,-2.6445,-2.6445,-2.6496,-2.6533,-2.6533,-2.6533,-2.6496,-2.6389,-2.5417,-2.4457,-2.3531,-2.2488,-2.2071,-2.2027,-2.1191,-2.1866,-2.3294,-2.1451,-2.1221,-2.1886,-2.0934,-2.0566,-2.0557,-2.0518,-2.0508,-2.043,-1.999,-2.0156,-2.043,-2.0029,-2.0225,-2.0566,-2.0566,-2.0566,-2.0566,-2.0566,-2.0566,-2.0566,-2.0566,-2.0566,-2.0566,-2.0566,-2.0566,-2.0566,-2.0566,-2.0566,-2.0566,-2.0566,-2.0566,-2.0566,-2.0566,-1.9766,-1.9125,-1.9036,-1.8069,-1.7009,-1.5779,-1.5621,-1.5137,-1.4166,-1.4088,-1.4088,-1.4088,-1.4088,-1.4088,-1.4088,-1.4088,-1.4088,-1.4088,-1.4088,-1.4088,-1.4088,-1.4088,-1.4222,-1.4482,-1.4482,-1.4629,-1.489,-1.489,-1.4903,-1.4923,-1.4923,-1.4943,-1.4937,-1.4663,-1.4723,-1.497,-1.499,-1.5003,-1.5037,-2.762,-2.7105,-2.6747,-2.6804,-2.6716,-2.664,-2.664,-2.664,-2.6791,-2.7218,-2.7017,-2.6979,-2.7419,-2.6967,-2.664,-2.664,-2.6596,-2.6533,-2.6533,-2.6533,-2.6533,-2.6533,-2.59,-2.5649,-2.5774,-2.5787,-2.5787,-2.5787,-2.6239,-2.6533,-2.6533,-2.6533,-2.6214,-2.5799,-2.5247,-2.4637,-2.3968,-2.2943,-2.2805,-2.3114,-2.2521,-2.2743,-2.3368,-2.2188,-2.1811,-2.1886,-2.0934,-2.0566,-2.0508,-2.0166,-2.0059,-1.998,-1.9561,-1.9717,-2.0039,-1.9941,-2.0225,-2.0566,-2.0566,-2.0566,-2.0566,-2.0566,-2.0566,-2.0566,-2.0566,-2.0566,-2.0566,-2.0566,-2.0566,-2.0566,-2.0566,-2.0566,-2.0566,-2.0566,-2.0566,-2.0566,-2.0566,-2.0401,-1.9923,-1.9116,-1.8798,-1.79,-1.5861,-1.4977,-1.4328,-1.4088,-1.4088,-1.4088,-1.4088,-1.4088,-1.4088,-1.4088,-1.4088,-1.4088,-1.4088,-1.4088,-1.4088,-1.4088,-1.4088,-1.4122,-1.4182,-1.4182,-1.4215,-1.4275,-1.4275,-1.4409,-1.4616,-1.4616,-1.475,-1.4957,-1.4897,-1.491,-1.499,-1.5217,-1.5304,-1.5311,-2.7281,-2.6841,-2.6533,-2.6533,-2.6533,-2.6533,-2.6533,-2.6533,-2.6634,-2.6854,-2.664,-2.6634,-2.6854,-2.6697,-2.6533,-2.6533,-2.6533,-2.6533,-2.6533,-2.6201,-2.605,-2.605,-2.5272,-2.4833,-2.4833,-2.4833,-2.4958,-2.5222,-2.5523,-2.5674,-2.5674,-2.5674,-2.5523,-2.5234,-2.4988,-2.4611,-2.4163,-2.3653,-2.3732,-2.4169,-2.339,-2.3796,-2.4672,-2.2527,-2.2009,-2.223,-2.0767,-2.0254,-2.0225,-1.999,-1.9785,-1.9541,-1.9111,-1.9404,-1.9873,-1.9678,-1.9922,-2.0254,-2.0254,-2.0254,-2.0254,-2.0254,-2.041,-2.0566,-2.0566,-2.0566,-2.0566,-2.0566,-2.0566,-2.0566,-2.0566,-2.0566,-2.0566,-2.0566,-2.0566,-2.0566,-2.0566,-2.0566,-2.0401,-1.9844,-1.9766,-1.9116,-1.7407,-1.5786,-1.4894,-1.4894,-1.4412,-1.4088,-1.4088,-1.4088,-1.4088,-1.4088,-1.4088,-1.4088,-1.4088,-1.4088,-1.4088,-1.4088,-1.4088,-1.4088,-1.4088,-1.4088,-1.4088,-1.4088,-1.4088,-1.4175,-1.4315,-1.4315,-1.4409,-1.4549,-1.4549,-1.4549,-1.4583,-1.487,-1.507,-1.517,-2.7143,-2.6848,-2.6533,-2.6533,-2.6533,-2.6533,-2.6533,-2.6533,-2.6533,-2.6533,-2.6533,-2.6533,-2.6533,-2.6533,-2.6533,-2.6533,-2.6533,-2.6533,-2.6533,-2.5912,-2.5598,-2.5598,-2.4569,-2.4004,-2.4004,-2.3904,-2.4117,-2.4682,-2.477,-2.482,-2.482,-2.482,-2.477,-2.4682,-2.4782,-2.4538,-2.4174,-2.427,-2.4606,-2.5003,-2.4105,-2.4778,-2.5952,-2.2771,-2.2023,-2.2462,-2.0528,-1.9805,-1.9795,-1.9717,-1.9463,-1.9102,-1.8662,-1.9062,-1.9629,-1.9277,-1.9473,-1.9805,-1.9805,-1.9853,-1.9912,-1.9912,-2.0244,-2.0566,-2.0566,-2.0566,-2.0566,-2.0566,-2.0566,-2.0566,-2.0566,-2.0566,-2.0566,-2.0566,-2.0566,-2.0566,-2.0566,-2.0566,-2.0566,-2.0566,-2.0469,-2.0106,-1.9216,-1.7261,-1.6087,-1.5951,-1.5144,-1.4657,-1.4657,-1.4496,-1.4412,-1.4412,-1.4166,-1.4088,-1.4088,-1.4135,-1.4162,-1.4162,-1.4208,-1.4208,-1.4162,-1.4108,-1.4115,-1.4162,-1.4108,-1.4088,-1.4088,-1.4088,-1.4088,-1.4088,-1.4088,-1.4088,-1.4122,-1.4409,-1.4676,-1.485,-2.6647,-2.6584,-2.6533,-2.6533,-2.6533,-2.6533,-2.6533,-2.6533,-2.6533,-2.6533,-2.6533,-2.6533,-2.6533,-2.6533,-2.6533,-2.6533,-2.6533,-2.6533,-2.6533,-2.5912,-2.5598,-2.5598,-2.4569,-2.4004,-2.4004,-2.3502,-2.3527,-2.4117,-2.4594,-2.482,-2.482,-2.482,-2.4569,-2.413,-2.4607,-2.453,-2.4053,-2.4526,-2.5025,-2.5461,-2.4868,-2.5033,-2.5436,-2.288,-2.1998,-2.186,-2.0072,-1.9375,-1.9316,-1.8936,-1.8769,-1.8652,-1.8223,-1.8418,-1.8799,-1.874,-1.9033,-1.9375,-1.9375,-1.9639,-1.9912,-1.9912,-2.0244,-2.0566,-2.0566,-2.0566,-2.0566,-2.0566,-2.0566,-2.0566,-2.0566,-2.0566,-2.0566,-2.0566,-2.0566,-2.0566,-2.0566,-2.0566,-2.0566,-2.0566,-2.0066,-1.9706,-1.9543,-1.8385,-1.7515,-1.7115,-1.6927,-1.6854,-1.6854,-1.5951,-1.5455,-1.5455,-1.4573,-1.4088,-1.4088,-1.4335,-1.4462,-1.4469,-1.4723,-1.471,-1.4449,-1.4202,-1.4222,-1.4449,-1.4195,-1.4088,-1.4088,-1.4088,-1.4088,-1.4088,-1.4088,-1.4088,-1.4122,-1.4409,-1.4543,-1.4576,-2.6533,-2.6533,-2.6533,-2.6533,-2.6533,-2.6533,-2.6533,-2.6533,-2.6533,-2.6533,-2.6533,-2.6533,-2.6533,-2.6176,-2.5975,-2.5975,-2.5975,-2.5975,-2.5975,-2.5473,-2.5021,-2.472,-2.3941,-2.3514,-2.3514,-2.3263,-2.3263,-2.3514,-2.3766,-2.3879,-2.3879,-2.3879,-2.374,-2.3527,-2.3766,-2.4092,-2.4456,-2.4393,-2.4845,-2.5548,-2.5034,-2.4958,-2.4966,-2.3119,-2.2113,-2.143,-1.9535,-1.8926,-1.8896,-1.8701,-1.8486,-1.8252,-1.8066,-1.8301,-1.8562,-1.8562,-1.8769,-1.8926,-1.8926,-1.9238,-1.9561,-1.9561,-2.0068,-2.0566,-2.0566,-2.0566,-2.0566,-2.0566,-2.0566,-2.0566,-2.0566,-2.0566,-2.0566,-2.0566,-2.0566,-2.0566,-2.0566,-2.0781,-2.1025,-2.1279,-2.0838,-2.0561,-2.0879,-1.9868,-1.912,-1.8946,-1.8355,-1.802,-1.802,-1.733,-1.6976,-1.6976,-1.5725,-1.497,-1.497,-1.4542,-1.4362,-1.4522,-1.4489,-1.4489,-1.4516,-1.4389,-1.4309,-1.4269,-1.4142,-1.4088,-1.4088,-1.4088,-1.4088,-1.4088,-1.4088,-1.4088,-1.4102,-1.4229,-1.4382,-1.4522]},{"header":{"parameterUnit":"m.s-1","parameterCategory":1,"la1":30.6,"la2":28.766,"lo1":-90.7593,"lo2":-88.6598,"dy":0.0162,"dx":0.0183,"nx":116,"ny":114,"refTime":"2023-08-03T12:00:00:Z","depth":0,"parameterNumber":3,"parameterNumberName":"V-component_of_WINDS"},"data":[0.0,0.0,0.0,0.0,0.0,0.0,0.0,0.0,0.0,0.0,0.0,0.0,0.0,0.0,0.0,0.0,0.0,0.0,0.0,0.0,0.0,0.0,0.0,0.0,0.0,0.0,0.0,0.0,0.0,0.0,0.0,0.0,0.0,0.0,0.0,0.0,0.0,0.0,0.0,0.0,0.0,0.0,0.0,0.0,0.0,0.0,0.0,0.0,0.0,0.0,0.0,0.0,0.0,0.0,0.0,0.0,0.0,0.0,0.0,0.0,0.0,0.0,0.0,0.0,0.0,0.0,0.0,0.0,0.0,0.0,0.0,0.0,0.0,0.0,0.0,0.0,0.0,0.0,0.0,0.0,0.0,0.0,0.0,0.0,0.0,0.0,0.0,0.0,0.0,0.0,0.0,0.0,0.0,0.0,0.0,0.0,0.0,0.0,0.0,0.0,0.0,0.0,0.0,0.0,0.0,0.0,0.0,0.0,0.0,0.0,0.0,0.0,0.0,0.0,0.0,0.0,0.0,0.0,0.0,0.0,0.0,0.0,0.0,0.0,0.0,0.0,0.0,0.0,0.0,0.0,0.0,0.0,0.0,0.0,0.0,0.0,0.0,0.0,0.0,0.0,0.0,0.0,0.0,0.0,0.0,0.0,0.0,0.0,0.0,0.0,0.0,0.0,0.0,0.0,0.0,0.0,0.0,0.0,0.0,0.0,0.0,0.0,0.0,0.0,0.0,0.0,0.0,0.0,0.0,0.0,0.0,0.0,0.0,0.0,0.0,0.0,0.0,0.0,0.0,0.0,0.0,0.0,0.0,0.0,0.0,0.0,0.0,0.0,0.0,0.0,0.0,0.0,0.0,0.0,0.0,0.0,0.0,0.0,0.0,0.0,0.0,0.0,0.0,0.0,0.0,0.0,0.0,0.0,0.0,0.0,0.0,0.0,0.0,0.0,0.0,0.0,0.0,0.0,0.0,0.0,0.0,0.0,0.0,0.0,0.0,0.0,0.0,0.0,0.0,0.0,0.0,0.0,0.0,0.0,0.0,0.0,0.0,0.0,0.0,0.0,0.0,0.0,0.0,0.0,0.0,0.0,0.0,0.0,0.0,0.0,0.0,0.0,0.0,0.0,0.0,0.0,0.0,0.0,0.0,0.0,0.0,0.0,0.0,0.0,0.0,0.0,0.0,0.0,0.0,0.0,0.0,0.0,0.0,0.0,0.0,0.0,0.0,0.0,0.0,0.0,0.0,0.0,0.0,0.0,0.0,0.0,0.0,0.0,0.0,0.0,0.0,0.0,0.0,0.0,0.0,0.0,0.0,0.0,0.0,0.0,0.0,0.0,0.0,0.0,0.0,0.0,0.0,0.0,0.0,0.0,0.0,0.0,0.0,0.0,0.0,0.0,0.0,0.0,0.0,0.0,0.0,0.0,0.0,0.0,0.0,0.0,0.0,0.0,0.0,0.0,0.0,0.0,0.0,0.0,0.0,0.0,0.0,0.0,0.0,0.0,0.0,0.0,0.0,0.0,0.0,0.0,0.0,0.0,0.0,0.0,0.0,0.0,0.0,0.0,0.0,0.0,0.0,0.0,0.0,0.0,0.0,0.0,0.0,0.0,0.0,0.0,0.0,0.0,0.0,0.0,0.0,0.0,0.0,0.0,0.0,0.0,0.0,0.0,0.0,0.0,0.0,0.0,0.0,0.0,0.0,0.0,0.0,0.0,0.0,0.0,0.0,0.0,0.0,0.0,0.0,0.0,0.0,0.0,0.0,0.0,0.0,0.0,0.0,0.0,0.0,0.0,0.0,0.0,0.0,0.0,0.0,0.0,0.0,0.0,0.0,0.0,0.0,0.0,0.0,0.0,0.0,0.0,0.0,0.0,0.0,0.0,0.0,0.0,0.0,0.0,0.0,0.0,0.0,0.0,0.0,0.0,0.0,0.0,0.0,0.0,0.0,0.0,0.0,0.0,0.0,0.0,0.0,0.0,0.0,0.0,0.0,0.0,0.0,0.0,0.0,0.0,0.0,0.0,0.0,0.0,0.0,0.0,0.0,0.0,0.0,0.0,0.0,0.0,0.0,0.0,0.0,0.0,0.0,0.0,0.0,0.0,0.0,0.0,0.0,0.0,0.0,0.0,0.0,0.0,0.0,0.0,0.0,0.0,0.0,0.0,0.0,0.0,0.0,0.0,0.0,0.0,0.0,0.0,0.0,0.0,0.0,0.0,0.0,0.0,0.0,0.0,0.0,0.0,0.0,0.0,0.0,0.0,0.0,0.0,0.0,0.0,0.0,0.0,0.0,0.0,0.0,0.0,0.0,0.0,0.0,0.0,0.0,0.0,0.0,0.0,0.0,0.0,0.0,0.0,0.0,0.0,0.0,0.0,0.0,0.0,0.0,0.0,0.0,0.0,0.0,0.0,0.0,0.0,0.0,0.0,0.0,0.0,0.0,0.0,0.0,0.0,0.0,0.0,0.0,0.0,0.0,0.0,0.0,0.0,0.0,0.0,0.0,0.0,0.0,0.0,0.0,0.0,0.0,0.0,0.0,0.0,0.0,0.0,0.0,0.0,0.0,0.0,0.0,0.0,0.0,0.0,0.0,0.0,0.0,0.0,0.0,0.0,0.0,0.0,0.0,0.0,0.0,0.0,0.0,0.0,0.0,0.0,0.0,0.0,0.0,0.0,0.0,0.0,0.0,0.0,0.0,0.0,0.0,0.0,0.0,0.0,0.0,0.0,0.0,0.0,0.0,0.0,0.0,0.0,0.0,0.0,0.0,0.0,0.0,0.0,0.0,0.0,0.0,0.0,0.0,0.0,0.0,0.0,0.0,0.0,0.0,0.0,0.0,0.0,0.0,0.0,0.0,0.0,0.0,0.0,0.0,0.0,0.0,0.0,0.0,0.0,0.0,0.0,0.0,0.0,0.0,0.0,0.0,0.0,0.0,0.0,0.0,0.0,0.0,0.0,0.0,0.0,0.0,0.0,0.0,0.0,0.0,0.0,0.0,0.0,0.0,0.0,0.0,0.0,0.0,0.0,0.0,0.0,0.0,0.0,0.0,0.0,0.0,0.0,0.0,0.0,0.0,0.0,0.0,0.0,0.0,0.0,0.0,0.0,0.0,0.0,0.0,0.0,0.0,0.0,0.0,0.0,0.0,0.0,0.0,0.0,0.0,0.0,0.0,0.0,0.0,0.0,0.0,0.0,0.0,0.0,0.0,0.0,0.0,0.0,0.0,0.0,0.0,0.0,0.0,0.0,0.0,0.0,0.0,0.0,0.0,0.0,0.0,0.0,0.0,0.0,0.0,0.0,0.0,0.0,0.0,0.0,0.0,0.0,0.0,0.0,0.0,0.0,0.0,0.0,0.0,0.0,0.0,0.0,0.0,0.0,0.0,0.0,0.0,0.0,0.0,0.0,0.0,0.0,0.0,0.0,0.0,0.0,0.0,0.0,0.0,0.0,0.0,0.0,0.0,0.0,0.0,0.0,0.0,0.0,0.0,0.0,0.0,0.0,0.0,0.0,0.0,0.0,0.0,0.0,0.0,0.0,0.0,0.0,0.0,0.0,0.0,0.0,0.0,0.0,0.0,0.0,0.0,0.0,0.0,0.0,0.0,0.0,0.0,0.0,0.0,0.0,0.0,0.0,0.0,0.0,0.0,0.0,0.0,0.0,0.0,0.0,0.0,0.0,0.0,0.0,0.0,0.0,0.0,0.0,0.0,0.0,0.0,0.0,0.0,0.0,0.0,0.0,0.0,0.0,0.0,0.0,0.0,0.0,0.0,0.0,0.0,0.0,0.0,0.0,0.0,0.0,0.0,0.0,0.0,0.0,0.0,0.0,0.0,0.0,0.0,0.0,0.0,0.0,0.0,0.0,0.0,0.0,0.0,0.0,0.0,0.0,0.0,0.0,0.0,0.0,0.0,0.0,0.0,0.0,0.0,0.0,0.0,0.0,0.0,0.0,0.0,0.0,0.0,0.0,0.0,0.0,0.0,0.0,0.0,0.0,0.0,0.0,0.0,0.0,0.0,0.0,0.0,0.0,0.0,0.0,0.0,0.0,0.0,0.0,0.0,0.0,0.0,0.0,0.0,0.0,0.0,0.0,0.0,0.0,0.0,0.0,0.0,0.0,0.0,0.0,0.0,0.0,0.0,0.0,0.0,0.0,0.0,0.0,0.0,0.0,0.0,0.0,0.0,0.0,0.0,0.0,0.0,0.0,0.0,0.0,0.0,0.0,0.0,0.0,0.0,0.0,0.0,0.0,0.0,0.0,0.0,0.0,0.0,0.0,0.0,0.0,0.0,0.0,0.0,0.0,0.0,0.0,0.0,0.0,0.0,0.0,0.0,0.0,0.0,0.0,0.0,0.0,0.0,0.0,0.0,0.0,0.0,0.0,0.0,0.0,0.0,0.0,0.0,0.0,0.0,0.0,0.0,0.0,0.0,0.0,0.0,0.0,0.0,0.0,0.0,0.0,0.0,0.0,0.0,0.0,0.0,0.0,0.0,0.0,0.0,0.0,0.0,0.0,0.0,0.0,0.0,0.0,0.0,0.0,0.0,0.0,0.0,0.0,0.0,0.0,0.0,0.0,0.0,0.0,0.0,0.0,0.0,0.0,0.0,0.0,0.0,0.0,0.0,0.0,0.0,0.0,0.0,0.0,0.0,0.0,0.0,0.0,0.0,0.0,0.0,0.0,0.0,0.0,0.0,0.0,0.0,0.0,0.0,0.0,0.0,0.0,0.0,0.0,0.0,0.0,0.0,0.0,0.0,0.0,0.0,0.0,0.0,0.0,0.0,0.0,0.0,0.0,0.0,0.0,0.0,0.0,0.0,0.0,0.0,0.0,0.0,0.0,0.0,0.0,0.0,0.0,0.0,0.0,0.0,0.0,0.0,0.0,0.0,0.0,0.0,0.0,0.0,0.0,0.0,0.0,0.0,0.0,0.0,0.0,0.0,0.0,0.0,0.0,0.0,0.0,0.0,0.0,0.0,0.0,0.0,0.0,0.0,0.0,0.0,0.0,0.0,0.0,0.0,0.0,0.0,0.0,0.0,0.0,0.0,0.0,0.0,0.0,0.0,0.0,0.0,0.0,0.0,0.0,0.0,0.0,0.0,0.0,0.0,0.0,0.0,0.0,0.0,0.0,0.0,0.0,0.0,0.0,0.0,0.0,0.0,0.0,0.0,0.0,0.0,0.0,0.0,0.0,0.0,0.0,0.0,0.0,0.0,0.0,0.0,0.0,0.0,0.0,0.0,0.0,0.0,0.0,0.0,0.0,0.0,0.0,0.0,0.0,0.0,0.0,0.0,0.0,0.0,0.0,0.0,0.0,0.0,0.0,0.0,0.0,0.0,0.0,0.0,0.0,0.0,0.0,0.0,0.0,0.0,0.0,0.0,0.0,0.0,0.0,0.0,0.0,0.0,0.0,0.0,0.0,0.0,0.0,0.0,0.0,0.0,0.0,0.0,0.0,0.0,0.0,0.0,0.0,0.0,0.0,0.0,0.0,0.0,0.0,0.0,0.0,0.0,0.0,0.0,0.0,0.0,0.0,0.0,0.0,0.0,0.0,0.0,0.0,0.0,0.0,0.0,0.0,0.0,0.0,0.0,0.0,0.0,0.0,0.0,0.0,0.0,0.0,0.0,0.0,0.0,0.0,0.0,0.0,0.0,0.0,0.0,0.0,0.0,0.0,0.0,0.0,0.0,0.0,0.0,0.0,0.0,0.0,0.0,0.0,0.0,0.0,0.0,0.0,0.0,0.0,0.0,0.0,0.0,0.0,0.0,0.0,0.0,0.0,0.0,0.0,0.0,0.0,0.0,0.0,0.0,0.0,0.0,0.0,0.0,0.0,0.0,0.0,0.0,0.0,0.0,0.0,0.0,0.0,0.0,0.0,0.0,0.0,0.0,0.0,0.0,0.0,0.0,0.0,0.0,0.0,0.0,0.0,0.0,0.0,0.0,0.0,0.0,0.0,0.0,0.0,0.0,0.0,0.0,0.0,0.0,0.0,0.0,0.0,0.0,0.0,0.0,0.0,0.0,0.0,0.0,0.0,0.0,0.0,0.0,0.0,0.0,0.0,0.0,0.0,0.0,0.0,-3.2305,0.0,0.0,0.0,0.0,0.0,0.0,0.0,0.0,0.0,0.0,0.0,0.0,0.0,0.0,0.0,0.0,0.0,0.0,0.0,0.0,0.0,0.0,0.0,0.0,0.0,0.0,0.0,0.0,0.0,0.0,0.0,0.0,0.0,0.0,0.0,0.0,0.0,0.0,0.0,0.0,0.0,0.0,0.0,0.0,0.0,0.0,0.0,0.0,0.0,0.0,0.0,0.0,0.0,0.0,0.0,0.0,0.0,0.0,0.0,0.0,0.0,0.0,0.0,0.0,0.0,0.0,0.0,0.0,0.0,0.0,0.0,0.0,0.0,0.0,0.0,0.0,0.0,0.0,0.0,0.0,0.0,0.0,0.0,0.0,0.0,0.0,0.0,0.0,0.0,0.0,0.0,0.0,0.0,0.0,0.0,0.0,0.0,0.0,0.0,0.0,0.0,0.0,0.0,0.0,0.0,0.0,0.0,0.0,0.0,0.0,0.0,0.0,0.0,0.0,0.0,0.0,-3.4258,0.0,0.0,0.0,0.0,0.0,0.0,0.0,0.0,0.0,0.0,0.0,0.0,0.0,0.0,0.0,0.0,0.0,0.0,0.0,0.0,0.0,0.0,0.0,0.0,0.0,0.0,0.0,0.0,0.0,0.0,0.0,0.0,0.0,0.0,0.0,0.0,0.0,0.0,0.0,0.0,0.0,0.0,0.0,0.0,0.0,0.0,0.0,0.0,0.0,0.0,0.0,0.0,0.0,0.0,0.0,0.0,0.0,0.0,0.0,0.0,0.0,0.0,0.0,0.0,0.0,0.0,0.0,0.0,0.0,0.0,0.0,0.0,0.0,0.0,0.0,0.0,0.0,0.0,0.0,0.0,0.0,0.0,0.0,0.0,0.0,0.0,0.0,0.0,0.0,0.0,0.0,0.0,0.0,0.0,0.0,0.0,0.0,0.0,0.0,0.0,0.0,0.0,0.0,0.0,0.0,0.0,0.0,0.0,-3.7773,-3.8652,-3.9492,-3.9492,-3.9961,-4.0664,-3.8516,-3.7324,-3.6875,-3.6582,0.0,0.0,0.0,0.0,0.0,0.0,0.0,0.0,0.0,0.0,0.0,0.0,0.0,0.0,0.0,0.0,0.0,0.0,0.0,0.0,0.0,0.0,0.0,0.0,0.0,0.0,0.0,0.0,0.0,0.0,0.0,0.0,0.0,0.0,0.0,0.0,0.0,0.0,-2.9894,-3.1482,-3.2526,-3.2993,-3.0163,0.0,0.0,0.0,0.0,0.0,0.0,0.0,0.0,0.0,0.0,0.0,0.0,0.0,0.0,0.0,0.0,0.0,0.0,0.0,0.0,0.0,0.0,0.0,0.0,0.0,0.0,0.0,0.0,0.0,0.0,0.0,0.0,0.0,0.0,0.0,0.0,0.0,0.0,0.0,0.0,0.0,0.0,0.0,-3.0874,-3.0898,0.0,0.0,0.0,0.0,0.0,0.0,0.0,0.0,0.0,0.0,0.0,0.0,0.0,-3.7519,-3.9023,-3.9902,-4.0391,-4.0527,-4.1348,-4.2187,-4.3027,-4.3027,-4.3496,-4.4316,-4.3965,0.0,-4.0391,-3.8887,0.0,0.0,0.0,0.0,0.0,0.0,0.0,0.0,0.0,0.0,0.0,0.0,0.0,0.0,0.0,0.0,0.0,0.0,0.0,0.0,0.0,0.0,0.0,0.0,0.0,0.0,0.0,0.0,0.0,0.0,0.0,0.0,0.0,0.0,0.0,0.0,-2.8925,-3.0641,-3.1852,-3.3564,-3.4814,-3.5545,-3.4045,-3.3468,-3.3545,-3.2314,0.0,0.0,0.0,0.0,0.0,0.0,0.0,0.0,0.0,0.0,0.0,0.0,0.0,0.0,0.0,0.0,0.0,0.0,0.0,0.0,0.0,0.0,0.0,0.0,0.0,0.0,0.0,0.0,0.0,0.0,0.0,0.0,0.0,0.0,0.0,0.0,0.0,0.0,0.0,-3.1328,-3.1445,-3.0957,-3.1328,-3.1445,0.0,0.0,0.0,0.0,0.0,0.0,0.0,0.0,0.0,-3.9414,-3.9922,-4.0527,-4.1308,-4.2656,-4.3828,-4.4805,-4.5644,-4.6758,-4.8027,-4.8027,-4.8242,-4.8594,-4.8594,-4.7715,-4.6016,-4.2793,-4.0918,-3.9941,0.0,0.0,0.0,0.0,-3.873,-3.9551,0.0,0.0,0.0,0.0,0.0,0.0,0.0,0.0,0.0,0.0,0.0,0.0,0.0,0.0,0.0,-2.4502,0.0,0.0,0.0,0.0,0.0,0.0,0.0,0.0,0.0,0.0,0.0,0.0,-3.1083,-3.3083,-3.4564,-3.6084,-3.7334,-3.8334,-3.8334,-3.7392,-3.5699,-3.4199,-3.3333,0.0,0.0,0.0,0.0,0.0,0.0,0.0,0.0,0.0,0.0,0.0,0.0,0.0,0.0,0.0,0.0,0.0,0.0,0.0,0.0,0.0,0.0,0.0,0.0,0.0,0.0,0.0,0.0,0.0,0.0,0.0,0.0,0.0,0.0,0.0,0.0,0.0,0.0,-3.1836,-3.2187,-3.1328,-3.2187,-3.25,0.0,0.0,0.0,0.0,0.0,0.0,-3.8496,-3.9219,-4.0586,-4.2773,-4.3418,-4.4043,-4.4707,-4.5996,-4.7402,-4.8906,-4.9551,-5.0644,-5.207,-5.207,-5.207,-5.207,-5.207,-5.1601,-5.0527,-4.6406,-4.3828,-4.2402,-4.1308,-4.1269,-4.1758,-4.1113,-4.1426,-4.2266,0.0,0.0,0.0,0.0,0.0,0.0,0.0,0.0,0.0,0.0,0.0,0.0,0.0,0.0,-2.5348,-2.5348,-2.5384,-2.5384,0.0,0.0,0.0,0.0,0.0,0.0,0.0,0.0,0.0,-3.0263,-3.2833,-3.5757,-3.8988,-3.9835,-4.1143,-4.2777,-4.2777,-4.1816,-3.9969,-3.6738,-3.5795,-3.618,0.0,0.0,0.0,0.0,0.0,0.0,0.0,0.0,0.0,0.0,0.0,0.0,0.0,0.0,0.0,0.0,0.0,0.0,0.0,0.0,0.0,0.0,0.0,0.0,0.0,0.0,0.0,0.0,0.0,0.0,0.0,0.0,0.0,0.0,0.0,0.0,0.0,0.0,0.0,-3.2226,-3.3574,0.0,0.0,0.0,0.0,-3.6914,-3.7891,-3.9492,-4.2012,-4.2187,-4.3769,-4.7168,-4.7324,-4.8496,-5.0918,-5.1035,-5.1543,-5.2441,-5.248,-5.2988,-5.3867,-5.3867,-5.3867,-5.3867,-5.3867,-5.3379,-5.2305,-4.8828,-4.6875,-4.5879,-4.418,-4.3535,-4.3574,-4.3535,-4.4062,-4.4805,0.0,0.0,0.0,0.0,0.0,0.0,0.0,0.0,0.0,0.0,0.0,0.0,0.0,-2.5237,-2.5825,-2.6833,-2.6465,-2.6172,-2.6172,0.0,0.0,0.0,0.0,0.0,0.0,0.0,-3.0478,-3.2852,-3.5949,-3.8373,-4.0085,-4.1508,-4.3085,-4.4701,-4.4701,-4.4682,-4.4355,-4.0392,-3.8257,-3.7296,-3.4449,-3.2795,0.0,0.0,0.0,0.0,0.0,0.0,0.0,0.0,0.0,0.0,0.0,0.0,0.0,0.0,0.0,0.0,0.0,0.0,0.0,0.0,0.0,0.0,0.0,0.0,0.0,0.0,0.0,0.0,0.0,0.0,0.0,0.0,0.0,0.0,0.0,0.0,0.0,-3.4746,-3.666,0.0,-3.6836,-3.8047,-3.9141,-3.9766,-4.2148,-4.4199,-4.5664,-4.6816,-4.8223,-4.998,-5.0586,-5.1328,-5.2226,-5.2793,-5.3516,-5.4375,-5.4375,-5.4824,-5.5664,-5.5664,-5.5664,-5.5664,-5.5664,-5.5176,-5.4277,-5.3066,-5.1387,-4.9473,-4.832,-4.8203,-4.8594,-4.8066,-4.8418,-4.9199,0.0,0.0,0.0,0.0,0.0,0.0,0.0,0.0,0.0,0.0,0.0,-2.4502,-2.5311,-2.588,-2.6741,-2.8081,-2.7475,-2.6998,-2.6998,0.0,0.0,0.0,0.0,0.0,0.0,-2.997,-3.2492,-3.5468,-3.8315,-4.0412,-4.1797,-4.2951,-4.4412,-4.6028,-4.6028,-4.6509,-4.7124,-4.4278,-4.1604,-3.9084,-3.6834,-3.5391,-3.4314,0.0,0.0,0.0,0.0,0.0,0.0,0.0,0.0,0.0,0.0,0.0,0.0,0.0,0.0,0.0,0.0,0.0,0.0,0.0,0.0,0.0,0.0,0.0,0.0,0.0,0.0,0.0,0.0,0.0,0.0,0.0,0.0,0.0,0.0,0.0,-3.8359,-3.7812,-4.0039,-4.1387,-4.082,-4.207,-4.3164,-4.375,-4.6172,-4.8105,-4.9258,-5.043,-5.1562,-5.2676,-5.3281,-5.3711,-5.4004,-5.459,-5.5176,-5.5742,-5.6035,-5.6328,-5.6601,-5.6894,-5.6875,-5.6601,-5.6601,-5.6269,-5.5742,-5.5742,-5.4726,-5.3047,-5.1914,-5.1816,-5.2207,-5.168,-5.1816,-5.2363,0.0,0.0,0.0,0.0,0.0,0.0,0.0,0.0,0.0,0.0,-2.419,-2.452,-2.5348,-2.6833,-2.8136,-2.898,-2.8282,-2.7787,-2.7787,-2.5529,0.0,0.0,0.0,0.0,-2.9187,-3.1744,-3.4686,-3.8084,-3.9777,-4.1873,-4.4297,-4.4355,-4.5297,-4.6951,-4.699,-4.7451,-4.8182,-4.824,-4.5855,-4.1893,-4.0123,-3.8892,-3.7757,0.0,0.0,0.0,0.0,0.0,0.0,0.0,0.0,0.0,0.0,0.0,0.0,0.0,0.0,0.0,0.0,0.0,0.0,0.0,0.0,0.0,0.0,0.0,0.0,0.0,0.0,0.0,0.0,0.0,0.0,0.0,0.0,0.0,-3.64,-3.9168,-4.1367,-4.1406,-4.3652,-4.5195,-4.5195,-4.5996,-4.7207,-4.8887,-4.9844,-5.1074,-5.2695,-5.2832,-5.3613,-5.5293,-5.539,-5.5801,-5.6621,-5.664,-5.664,-5.664,-5.75,-5.7461,-5.668,-5.7539,-5.7461,-5.664,-5.664,-5.664,-5.664,-5.6601,-5.6621,-5.6504,-5.4765,-5.4082,-5.4082,-5.4082,-5.4082,-5.4082,0.0,0.0,0.0,0.0,0.0,0.0,0.0,0.0,0.0,0.0,-2.419,-2.4722,-2.6117,-2.7181,-2.8356,-2.9751,-2.8594,-2.7787,-2.7787,0.0,0.0,0.0,0.0,0.0,-3.2513,-3.4996,-3.7414,-3.9796,-4.1876,-4.3388,-4.4335,-4.5586,-4.6759,-4.7836,-4.9086,-4.9779,-5.0048,-5.1279,-5.0067,-4.7009,-4.347,-4.1527,-4.0392,0.0,0.0,0.0,0.0,0.0,0.0,0.0,0.0,0.0,0.0,0.0,0.0,0.0,0.0,0.0,0.0,0.0,0.0,0.0,0.0,0.0,0.0,0.0,0.0,0.0,0.0,0.0,0.0,0.0,0.0,0.0,0.0,-4.0935,-3.9911,-4.27,-4.5083,-4.576,-4.8086,-4.9648,-4.9648,-5.043,-5.1133,-5.1621,-5.3047,-5.4101,-5.4551,-5.5781,-5.6406,-5.625,-5.7461,-5.7949,-5.7558,-5.7539,-5.7539,-5.7558,-5.7793,-5.7773,-5.7578,-5.8457,-5.8379,-5.7539,-5.7539,-5.7539,-5.748,-5.6855,-5.7344,-5.8301,-5.6562,-5.5898,-5.5898,-5.5898,-5.5898,-5.5898,0.0,0.0,0.0,0.0,0.0,0.0,0.0,0.0,0.0,0.0,-2.419,-2.4814,-2.6429,-2.7016,-2.7952,-2.9567,-2.8227,-2.7291,-2.7291,0.0,0.0,0.0,0.0,-3.133,-3.5134,-3.7072,-3.9299,-4.1874,-4.3312,-4.448,-4.5413,-4.6432,-4.7721,-4.9221,-5.024,-5.1087,-5.1798,-5.2799,-5.2356,-5.076,-4.7913,-4.5836,-4.4028,-4.0277,-3.8777,-3.843,-3.6488,-3.5872,-3.5853,-3.4834,0.0,0.0,0.0,0.0,0.0,0.0,0.0,0.0,0.0,0.0,0.0,0.0,0.0,0.0,0.0,0.0,0.0,0.0,0.0,0.0,0.0,0.0,0.0,0.0,-4.2683,-4.4297,-4.5254,-4.6826,-4.834,-4.9589,-5.1367,-5.2773,-5.3516,-5.3711,-5.4082,-5.4824,-5.5488,-5.584,-5.584,-5.6816,-5.7129,-5.6621,-5.7949,-5.8418,-5.789,-5.8262,-5.8437,-5.8457,-5.8789,-5.8769,-5.8476,-5.9316,-5.9238,-5.8437,-5.8437,-5.8437,-5.8418,-5.789,-5.8281,0.0,0.0,0.0,0.0,0.0,-5.6601,-5.6601,0.0,0.0,0.0,0.0,0.0,0.0,0.0,0.0,0.0,0.0,0.0,-2.4777,-2.63,-2.6557,-2.7181,-2.859,-2.7438,-2.6557,0.0,0.0,0.0,-2.8423,-3.0213,-3.3103,-3.7205,-3.851,-4.0689,-4.3798,-4.4288,-4.5339,-4.6913,-4.7201,-4.8529,-5.0702,-5.0991,-5.1991,-5.3491,-5.3587,-5.3626,-5.3549,-5.2683,-5.0798,-4.8086,-4.4047,-4.2931,-4.3104,-3.9873,-3.8219,-3.7526,-3.7353,0.0,0.0,0.0,0.0,0.0,0.0,0.0,0.0,0.0,0.0,0.0,0.0,0.0,0.0,0.0,0.0,0.0,0.0,0.0,0.0,0.0,0.0,0.0,0.0,-4.5923,-4.7938,-5.1167,-5.1288,-5.1562,-5.2969,-5.4004,-5.5195,-5.6738,-5.6191,-5.6387,-5.793,-5.7246,-5.6758,-5.6758,0.0,0.0,0.0,0.0,-5.8281,-5.8183,-5.8945,-5.9336,-5.9336,-6.0058,-6.0039,-5.9355,-6.0176,-6.0098,-5.9336,-5.9336,-5.9336,-5.9336,-5.9238,-5.9199,-5.9101,-5.8242,-5.789,-5.7793,-5.6914,-5.6601,-5.6601,0.0,0.0,0.0,0.0,0.0,0.0,0.0,0.0,0.0,-2.4151,-2.419,-2.4557,-2.5531,-2.6209,-2.6741,-2.7053,-2.6778,-2.6319,0.0,0.0,-2.8626,-3.098,-3.3468,-3.6133,-3.8945,-4.0623,-4.2246,-4.3798,-4.5237,-4.6262,-4.6951,-4.899,-5.0221,-5.0779,-5.2837,-5.4299,-5.5261,-5.5972,-5.6261,-5.6184,-5.5318,-5.3433,-5.0856,-4.799,-4.6586,-4.5893,-4.3816,-4.297,-4.2624,-4.1277,-4.0604,-4.0085,-3.8738,0.0,0.0,0.0,0.0,0.0,0.0,0.0,0.0,0.0,0.0,0.0,0.0,0.0,0.0,0.0,0.0,0.0,0.0,0.0,0.0,-4.6317,-4.9179,-5.1818,-5.3896,-5.5322,-5.6094,-5.5879,-5.7246,-5.832,-5.8652,-5.8535,-5.8594,-5.8926,-5.8144,-5.7656,-5.7656,-5.832,-5.8379,-5.7676,-5.9805,-6.0625,-5.9922,-6.0078,-6.0176,-6.0176,0.0,0.0,-6.0195,-6.1055,-6.0976,-6.0176,-6.0176,-6.0176,-6.0117,-5.9473,-5.9199,-5.9101,-5.8242,-5.789,-5.7793,-5.6914,-5.6601,-5.6601,0.0,0.0,0.0,0.0,0.0,0.0,0.0,0.0,0.0,0.0,-2.419,-2.4502,-2.5311,-2.5401,-2.5566,-2.5952,-2.5621,0.0,0.0,-2.7603,-2.981,-3.2662,-3.5268,-3.7798,-4.0254,-4.1875,-4.3183,-4.4204,-4.5812,-4.6916,-4.7548,-4.9702,-5.1144,-5.2029,-5.4164,-5.5568,-5.6395,-5.728,-5.7646,-5.7569,-5.6703,-5.5588,-5.4126,-5.1144,-4.951,-4.8625,-4.7317,-4.6028,-4.4893,-4.4489,-4.3508,-4.2374,-4.1931,-4.0623,-3.9104,0.0,0.0,0.0,0.0,0.0,0.0,0.0,0.0,0.0,0.0,0.0,0.0,0.0,0.0,-4.1905,0.0,0.0,-4.7972,-5.0969,-5.3028,-5.4843,-5.6555,-5.8071,-5.8694,-5.785,-5.8613,-5.9355,-5.9765,-5.9433,-5.9199,-5.9199,-5.8398,-5.789,-5.789,-5.8301,-5.8555,-5.8555,-6.0176,-6.084,-6.039,-6.082,-6.1055,-6.1055,-6.1055,-6.1055,-6.1074,-6.1504,-6.1465,-6.1055,-6.1055,-6.1055,-6.1015,-6.0625,-6.0449,-6.0312,-5.9043,-5.8281,-5.7793,-5.6914,-5.6601,-5.6601,0.0,0.0,0.0,0.0,0.0,0.0,0.0,0.0,0.0,0.0,-2.417,-2.4447,-2.5109,-2.4575,-2.4447,0.0,0.0,0.0,0.0,-2.8411,-3.076,-3.366,-3.6468,-3.8946,-4.1056,-4.2473,-4.3615,-4.4474,-4.6192,-4.7357,-4.8049,-5.0183,-5.1914,-5.328,-5.5126,-5.6434,-5.73,-5.8165,-5.8531,-5.8454,-5.7588,-5.7146,-5.6646,-5.3587,-5.1895,-5.1048,-5.001,-4.7913,-4.572,-4.6605,-4.5316,-4.3508,-4.4489,-4.3758,-4.222,-4.0527,-4.0142,0.0,0.0,0.0,0.0,0.0,0.0,0.0,0.0,0.0,-4.02,-4.2758,-4.4008,-4.5586,-4.8548,-4.9989,-5.1851,-5.5415,-5.6499,-5.737,-5.876,-5.9928,-6.0248,-5.9274,-5.9466,-5.9941,-6.0586,-6.0078,-5.9687,-5.9687,-5.8887,-5.8398,-5.8398,-5.8398,-5.8711,-5.9414,-6.0234,-6.0644,-6.0644,-6.1348,-6.1699,-6.1699,-6.1699,-6.1699,-6.1699,-6.1699,-6.1699,-6.1699,-6.1699,-6.1699,-6.1699,-6.1699,-6.1601,-6.1308,-5.9785,-5.8672,-5.7793,-5.6914,-5.6601,-5.6601,0.0,0.0,0.0,0.0,0.0,0.0,0.0,0.0,0.0,0.0,0.0,0.0,0.0,0.0,0.0,0.0,0.0,0.0,-2.6502,-2.9439,-3.1935,-3.3715,-3.7551,-4.0084,-4.1093,-4.2247,-4.3247,-4.4076,-4.6385,-4.7567,-4.7742,-5.1273,-5.3029,-5.3318,-5.5761,-5.7338,-5.8204,-5.9031,-5.9377,-5.93,-5.8473,-5.7684,-5.6799,-5.4914,-5.3664,-5.2702,-5.1125,-4.8413,-4.572,-4.6605,-4.5682,-4.4451,-4.6086,-4.5951,-4.4836,-4.3162,0.0,-3.9181,-3.8027,-3.7853,-3.8315,-3.9623,-4.0065,-4.1219,0.0,0.0,-4.547,-4.8009,-4.924,-5.0433,-5.2299,-5.3933,-5.5453,-5.6823,-5.8363,-5.9495,-5.9808,-6.0731,-6.1062,-6.0147,-6.0854,-6.1465,-6.1543,-6.1465,-6.1426,-6.1426,-6.0605,-6.0117,-6.0117,-6.0117,-6.0176,-6.0254,-6.1094,-6.1543,-6.1543,-6.164,-6.1699,-6.1699,-6.1699,-6.1699,-6.1699,-6.1699,-6.1699,-6.1699,-6.1699,-6.1699,-6.1699,-6.1699,-6.123,-6.0469,-5.9551,-5.8672,-5.7793,-5.6914,-5.6601,-5.6601,0.0,0.0,0.0,0.0,0.0,0.0,0.0,0.0,0.0,0.0,0.0,0.0,0.0,0.0,0.0,0.0,0.0,0.0,-2.7163,-2.942,-3.1623,-3.3715,-3.7276,-3.9368,-3.9698,-4.1735,-4.2965,-4.329,-4.5466,-4.6778,-4.7308,-4.9898,-5.1724,-5.2943,-5.4973,-5.651,-5.7588,-5.8434,-5.88,-5.8723,-5.7877,-5.7011,-5.6049,-5.4376,-5.2279,-5.0087,-4.8913,-4.6624,0.0,0.0,-4.4201,-4.3989,-4.6201,-4.5951,-4.4509,-4.2835,-4.1585,0.0,-3.9681,-3.945,-3.9738,0.0,-4.2758,-4.4951,-4.7721,-4.8471,-4.9279,-5.1837,-5.3029,-5.4126,-5.5857,-5.7126,-5.8242,0.0,-6.0035,-6.0575,-6.0729,-6.0766,-6.0435,-5.9565,-5.9922,-6.043,-6.0898,-6.1406,-6.1484,-6.0976,-6.0605,-6.039,-6.039,-6.039,-6.0625,-6.1133,-6.1504,-6.1699,-6.1699,-6.1699,-6.1699,-6.1699,-6.1699,-6.1699,-6.1699,-6.1699,-6.1699,-6.1699,-6.1699,-6.1699,-6.1699,-6.1699,-6.1484,-6.1035,-5.9707,-5.8984,-5.8496,-5.7109,-5.6601,-5.6601,0.0,0.0,0.0,0.0,0.0,0.0,0.0,0.0,0.0,0.0,0.0,0.0,0.0,0.0,0.0,0.0,0.0,0.0,0.0,-2.8631,-3.0522,-3.2706,-3.5954,-3.79,-3.8358,-4.0744,-4.221,-4.2656,-4.4449,-4.5726,-4.6572,-4.8391,-5.0163,-5.1839,-5.3522,-5.5026,-5.6357,-5.6989,-5.7276,-5.72,-5.6452,-5.5477,-5.4287,-5.249,-4.9817,-4.699,-4.6394,-4.4259,0.0,0.0,-4.1527,-4.1777,-4.4335,-4.4432,-4.3374,-4.2162,-4.147,-4.0969,-4.0335,-4.0681,0.0,-4.3162,-4.5932,-4.8779,-5.0702,-5.1798,-5.3087,-5.5395,-5.6338,-5.7126,-5.8396,-5.93,-6.0031,-6.0589,-6.0904,-6.1065,-6.0949,-6.0358,-5.9504,-5.8349,-5.837,-5.8711,-5.9297,-6.0351,-6.0937,-6.0762,-6.0547,-6.0508,-6.0742,-6.0762,-6.1055,-6.168,-6.1699,-6.1699,-6.1699,-6.1699,-6.1699,-6.1699,-6.1699,-6.1699,-6.1699,-6.1699,-6.1699,-6.1699,-6.1699,-6.1699,-6.1699,-6.1699,-6.1699,-6.1523,-5.9844,-5.9199,-5.8984,-5.7246,-5.6601,-5.6601,0.0,0.0,0.0,0.0,0.0,0.0,0.0,0.0,0.0,0.0,0.0,0.0,0.0,0.0,0.0,0.0,0.0,0.0,0.0,-2.6979,-2.8594,-3.0246,-3.3376,-3.5881,-3.7507,-3.916,-4.0758,-4.2338,-4.3528,-4.4543,-4.5413,-4.7476,-4.889,-4.9759,-5.1433,-5.3097,-5.4579,-5.4666,-5.4666,-5.4591,-5.4169,-5.2984,-5.1214,-4.9066,-4.6663,-4.4412,-4.4393,0.0,0.0,0.0,-3.7584,-3.7334,-3.9892,-4.1239,0.0,-4.1816,-4.0642,-3.9373,-3.9335,0.0,-4.3816,-4.7086,-4.9837,-5.2414,-5.4934,-5.6165,-5.728,-5.8992,-5.9377,-5.9396,-5.9454,-6.0165,-6.0569,-5.9931,-6.0663,-6.0997,-6.0164,-5.9569,-5.8544,-5.6708,-5.6601,-5.6699,0.0,-5.8262,-5.9941,-6.1543,-6.0879,-6.0762,-6.1621,-6.166,-6.168,-6.1699,-6.1699,-6.1699,-6.1699,-6.1699,-6.1699,-6.1699,-6.1699,-6.1699,-6.1699,-6.1699,-6.1699,-6.1699,-6.1699,-6.1699,-6.1699,-6.1699,-6.1699,-6.1523,-5.9844,-5.9199,-5.8984,-5.7246,-5.6601,-5.6601,0.0,0.0,0.0,0.0,0.0,0.0,0.0,0.0,0.0,0.0,0.0,0.0,0.0,0.0,0.0,0.0,0.0,0.0,0.0,-2.641,-2.7475,-2.8558,-3.1182,-3.3128,-3.4229,-3.6395,-3.8303,-3.9918,-4.083,-4.2271,-4.4136,-4.4819,-4.632,-4.8421,-4.9015,-5.0116,-5.1585,-5.1604,-5.2075,-5.2686,-5.1418,-5.056,-4.966,-4.6127,-4.3201,-4.0681,0.0,0.0,0.0,0.0,0.0,-3.5391,-3.7353,-3.818,-3.8527,-3.9104,-3.9296,-3.9777,-4.2008,0.0,-4.724,-5.0644,-5.3395,-5.5799,-5.7761,-5.8896,-5.9511,-5.9492,-5.8607,-5.7646,-5.7088,-5.678,-5.6758,-5.7213,-5.841,-5.9283,-5.9152,-5.8973,-5.8042,-5.5807,-5.6173,0.0,0.0,0.0,0.0,-5.9961,-6.0254,-6.0527,-6.082,-6.1387,-6.1699,-6.1699,-6.1699,-6.1699,-6.1699,-6.1699,-6.1699,-6.1699,-6.1699,-6.1699,-6.1699,-6.1699,-6.1699,-6.1699,-6.1699,-6.1699,-6.1699,-6.1699,-6.1367,-6.0781,-6.0215,-5.9316,-5.8262,-5.7676,-5.7109,-5.6601,0.0,0.0,0.0,0.0,0.0,0.0,0.0,0.0,0.0,0.0,0.0,0.0,0.0,0.0,0.0,0.0,0.0,0.0,0.0,0.0,-2.6098,-2.6906,-2.8686,-3.0191,-3.1286,-3.3164,-3.4908,-3.6523,-3.7037,-3.823,-4.0029,-4.0322,-4.1617,-4.3708,-4.4005,-4.5207,-4.6973,-4.6386,-4.6806,-4.7745,-4.6185,-4.5189,-4.4307,-4.113,-3.87,0.0,0.0,0.0,0.0,0.0,0.0,-3.3122,-3.4814,-3.618,-3.7334,-3.82,-3.97,-4.1816,-4.5201,-4.799,-5.0741,-5.4164,-5.6472,-5.8261,-5.9646,-6.0165,-6.0012,-5.8838,-5.7261,-5.5645,-5.4184,-5.3491,-5.3355,-5.4024,-5.5273,-5.6521,-5.7562,-5.7309,-5.6629,-5.5594,-5.5864,-5.6035,0.0,0.0,0.0,-5.9101,-5.9687,-6.0098,-6.0371,-6.123,-6.1699,-6.1699,-6.1699,-6.1699,-6.1699,-6.1699,-6.1699,-6.1699,-6.1699,-6.1699,-6.1699,-6.1699,-6.1699,-6.1699,-6.1699,-6.1699,-6.1699,-6.1699,-6.1191,-6.0371,-6.0078,-5.9121,-5.7851,-5.7558,-5.707,-5.6601,0.0,0.0,0.0,0.0,0.0,0.0,0.0,0.0,0.0,0.0,0.0,0.0,0.0,0.0,0.0,0.0,0.0,0.0,0.0,0.0,0.0,-2.5311,-2.6117,-2.7273,-2.8828,-2.9677,-3.087,-3.2485,-3.2485,-3.2926,-3.3752,-3.4513,-3.5349,-3.6211,-3.6964,-3.8733,-4.1025,-3.9454,-3.9386,-4.0272,-3.8982,-3.749,-3.5893,-3.4525,0.0,0.0,0.0,0.0,0.0,0.0,0.0,0.0,-3.2583,-3.5372,-3.8257,-3.9258,-4.1893,-4.524,-4.8663,-5.1491,-5.426,-5.755,-5.8973,-5.9762,-6.055,-6.0031,-5.8877,-5.7146,-5.5395,-5.3414,0.0,0.0,-5.0548,-5.0701,-5.1713,-5.328,-5.565,-5.5015,-5.4783,0.0,0.0,0.0,0.0,0.0,0.0,-5.9082,0.0,-5.9551,-6.0351,-6.123,-6.1699,-6.1699,-6.1699,-6.1699,-6.1699,-6.1699,-6.1699,-6.1699,-6.1699,-6.1699,-6.1699,-6.1699,-6.1699,-6.1699,-6.1699,-6.1699,-6.1699,-6.1699,-6.1152,-6.0273,-5.9531,-5.8672,-5.7734,-5.6953,-5.664,-5.6601,0.0,0.0,0.0,0.0,0.0,0.0,0.0,0.0,0.0,0.0,0.0,0.0,0.0,0.0,0.0,0.0,0.0,0.0,0.0,0.0,0.0,0.0,0.0,0.0,0.0,0.0,0.0,0.0,0.0,-3.1531,-3.2926,-3.3128,-3.366,-3.4449,-3.4651,-3.5299,-3.6192,-3.5739,-3.6216,-3.7124,0.0,-3.5234,-3.5133,0.0,0.0,0.0,0.0,0.0,0.0,0.0,0.0,0.0,0.0,-3.7219,-3.9488,-4.222,-4.497,-4.7875,-5.1298,-5.4568,-5.7357,-5.8838,-5.9838,-6.0358,-5.9935,-5.8684,-5.6973,-5.4645,-5.1798,-4.9144,0.0,0.0,0.0,-4.9567,-5.2624,0.0,-5.681,-5.7854,0.0,-5.7512,0.0,-5.8047,-5.7617,-5.8164,0.0,0.0,-5.9199,-5.9551,-6.0351,-6.123,-6.1699,-6.1699,-6.1699,-6.1699,-6.1699,-6.1699,-6.1699,-6.1699,-6.1699,-6.1699,-6.1699,-6.1699,-6.1699,-6.1699,-6.1699,-6.1699,-6.1699,-6.1699,-6.082,-5.9551,-5.9941,-5.8808,-5.6973,-5.7402,-5.7168,-5.6601,0.0,0.0,0.0,0.0,0.0,0.0,0.0,0.0,0.0,0.0,0.0,0.0,0.0,0.0,0.0,0.0,0.0,0.0,0.0,0.0,0.0,0.0,0.0,0.0,0.0,0.0,0.0,0.0,0.0,0.0,0.0,-2.9274,-2.9677,-3.0118,-3.0485,-3.103,-3.1643,-3.1267,0.0,0.0,0.0,0.0,0.0,0.0,0.0,0.0,0.0,0.0,0.0,0.0,0.0,-3.745,-3.9008,-4.12,-4.3758,-4.6759,0.0,-5.2029,-5.4722,-5.7376,-5.9511,-5.9954,-6.0146,-5.98,-5.8204,-5.653,-5.4395,-5.1106,-4.8298,0.0,-4.4239,-4.4335,0.0,0.0,0.0,0.0,-5.6388,-5.746,-5.8175,0.0,-5.9382,0.0,-5.9043,-5.9433,-5.9883,0.0,-5.9941,-5.9922,-6.0371,-6.123,-6.1699,-6.1699,-6.1699,-6.1699,-6.1699,-6.1699,-6.1699,-6.1699,-6.1699,-6.1699,-6.1699,-6.1699,-6.1699,-6.1699,0.0,-6.1699,-6.1699,-6.1699,-6.0918,-5.9746,-5.9824,-5.8769,-5.7187,-5.7285,-5.7012,-5.6601,0.0,0.0,0.0,0.0,0.0,0.0,0.0,0.0,0.0,0.0,0.0,0.0,0.0,0.0,0.0,0.0,0.0,0.0,0.0,0.0,0.0,0.0,0.0,0.0,0.0,0.0,0.0,0.0,0.0,0.0,0.0,0.0,0.0,0.0,0.0,0.0,0.0,0.0,0.0,0.0,0.0,0.0,0.0,0.0,0.0,0.0,0.0,0.0,0.0,0.0,-3.8257,-4.0412,-4.2951,-4.599,-4.9106,-5.1664,-5.4049,-5.6242,-5.7992,-5.9608,-6.0762,-6.0666,-5.9896,-5.8492,-5.5953,-5.3818,-5.126,-4.7355,0.0,-4.3355,-4.1931,-4.1835,-4.2896,-4.5705,0.0,-4.9817,-5.566,-5.6072,-5.6932,-6.0017,-6.0504,-6.0566,-6.0566,-6.0566,-6.0898,-6.164,-6.0996,-6.0566,-6.0566,-6.1289,-6.1699,-6.1699,-6.1699,-6.1699,-6.1699,-6.1699,-6.1699,-6.1699,-6.1699,-6.1699,-6.1699,-6.1699,-6.1699,-6.1699,-6.1699,-6.1699,-6.1699,-6.1699,-6.1191,-6.0312,-5.9512,-5.8672,-5.7793,-5.6914,-5.668,-5.6758,0.0,0.0,0.0,0.0,0.0,0.0,0.0,0.0,0.0,0.0,-2.1448,-2.2101,0.0,0.0,0.0,0.0,0.0,0.0,0.0,0.0,0.0,0.0,0.0,0.0,0.0,0.0,0.0,0.0,0.0,0.0,0.0,0.0,0.0,0.0,0.0,0.0,0.0,0.0,0.0,0.0,0.0,0.0,0.0,0.0,0.0,0.0,0.0,0.0,0.0,0.0,-4.0296,-4.3874,-4.6432,-4.9086,-5.1741,-5.4299,-5.5857,-5.7126,-5.8838,-6.0031,-6.0627,-5.9915,-5.8569,-5.678,-5.4222,-5.0721,0.0,0.0,-4.2835,-4.1085,-4.0927,-4.2027,-4.4064,-4.748,0.0,0.0,0.0,0.0,-5.9064,0.0,-6.1459,-6.1465,-6.1465,-6.1465,0.0,0.0,-6.1562,-6.1465,-6.1465,-6.1621,-6.1699,-6.1699,-6.1699,-6.1699,-6.1699,-6.1699,-6.1699,-6.1699,-6.1699,-6.1699,-6.1699,-6.1699,-6.1699,-6.1699,-6.1699,0.0,-6.1699,-6.1699,-6.1191,-6.0312,-5.9512,-5.8672,-5.7793,-5.6914,-5.7051,-5.7578,0.0,0.0,0.0,0.0,0.0,0.0,0.0,0.0,-2.0002,-2.0002,-2.1336,-2.2023,-2.1288,-2.1625,0.0,0.0,0.0,0.0,0.0,0.0,0.0,0.0,0.0,0.0,0.0,0.0,0.0,0.0,0.0,0.0,0.0,0.0,0.0,0.0,0.0,0.0,0.0,0.0,0.0,0.0,0.0,0.0,0.0,0.0,0.0,0.0,0.0,0.0,0.0,0.0,-3.9508,-4.3835,-4.8586,-5.1837,-5.4376,-5.6934,-5.7973,-5.8569,-5.9819,-6.0473,-6.0589,-5.9723,-5.7896,-5.5434,-5.201,0.0,0.0,0.0,-4.1335,-4.0508,-4.0581,-4.1681,0.0,0.0,0.0,0.0,0.0,0.0,0.0,0.0,-6.1426,-6.1699,0.0,-6.1699,-6.1699,-6.1699,-6.1699,-6.1699,-6.1699,-6.1699,-6.1699,-6.1699,-6.1699,-6.1699,-6.1699,-6.1699,-6.1699,-6.1699,-6.1699,-6.1699,-6.1699,-6.1699,-6.1699,-6.1699,-6.1699,-6.1699,-6.1699,-6.1699,-6.1445,-6.0957,-5.9687,-5.9199,-5.9043,-5.7754,-5.7832,-5.8457,0.0,0.0,0.0,0.0,0.0,0.0,0.0,-1.9401,-1.9866,-2.0204,-2.115,-2.16,-2.1008,-2.1119,-2.131,0.0,0.0,0.0,0.0,0.0,0.0,0.0,0.0,0.0,0.0,0.0,0.0,0.0,0.0,0.0,0.0,0.0,0.0,0.0,0.0,0.0,0.0,0.0,0.0,0.0,0.0,0.0,0.0,0.0,0.0,0.0,0.0,0.0,0.0,0.0,-3.7546,-4.1546,-4.7778,-5.2106,-5.528,-5.728,-5.8531,-5.9396,-6.0089,-6.0531,-6.055,-5.9492,-5.7184,-5.4107,-5.0048,-4.6874,0.0,0.0,-4.0389,-4.0331,-4.0562,0.0,-4.2399,0.0,-4.5156,0.0,0.0,0.0,0.0,0.0,0.0,0.0,-6.1699,-6.1699,0.0,-6.1699,-6.1699,-6.1699,-6.1699,-6.1699,-6.1699,-6.1699,-6.1699,-6.1699,-6.1699,-6.1699,-6.1699,-6.1699,-6.1699,-6.1699,-6.1699,-6.1699,-6.1699,-6.1699,-6.1699,-6.1699,-6.1699,-6.1699,-6.1699,-6.1523,-5.9844,-5.959,-5.9941,-5.8242,-5.8164,-5.8808,0.0,0.0,0.0,0.0,0.0,0.0,0.0,-1.8961,-1.9502,-2.0916,-2.0585,-2.0187,-2.012,-2.0754,-2.0916,0.0,0.0,0.0,0.0,0.0,0.0,0.0,0.0,0.0,0.0,0.0,0.0,-2.419,-2.419,0.0,0.0,0.0,0.0,0.0,0.0,0.0,0.0,0.0,0.0,0.0,0.0,0.0,0.0,0.0,0.0,0.0,0.0,0.0,0.0,0.0,0.0,-3.6873,-4.1335,-4.7124,-5.2299,-5.2529,0.0,0.0,-5.8511,-5.9646,-6.0416,-5.8819,-5.5895,-5.251,-4.9029,0.0,0.0,-4.0889,-4.0042,-3.9807,-4.0773,-4.1024,-4.1938,0.0,0.0,-4.6009,0.0,0.0,0.0,0.0,0.0,0.0,-6.1699,-6.1699,0.0,-6.1699,-6.1699,-6.1699,-6.1699,-6.1699,-6.1699,-6.1699,-6.1699,-6.1699,-6.1699,-6.1699,-6.1699,-6.1699,-6.1699,-6.1699,-6.1699,-6.1699,-6.1699,-6.1699,-6.1699,-6.1699,0.0,-6.1699,-6.1699,-6.1523,-5.9844,-5.9258,-5.9101,-5.7363,-5.7265,-5.789,0.0,0.0,0.0,0.0,0.0,0.0,-1.9376,-1.957,-2.0128,-2.1667,-2.1583,-2.1228,-2.0771,-2.0585,-2.0238,0.0,0.0,0.0,0.0,0.0,0.0,0.0,0.0,0.0,0.0,0.0,0.0,-2.419,-2.419,0.0,0.0,0.0,0.0,0.0,0.0,-2.4444,0.0,0.0,0.0,0.0,0.0,0.0,0.0,0.0,0.0,0.0,0.0,0.0,0.0,0.0,0.0,0.0,-3.5334,-3.9681,0.0,0.0,-5.2396,-5.4993,-5.6973,-5.88,-5.9738,-5.8066,-5.5083,-5.1545,-4.7665,0.0,-4.0825,-3.9515,-3.9406,-3.9663,-4.0079,-4.061,-4.1354,0.0,0.0,0.0,-4.7519,0.0,0.0,0.0,0.0,0.0,0.0,0.0,-6.1699,-6.1699,-6.1699,-6.1699,-6.1699,-6.1699,-6.1699,-6.1699,-6.1699,-6.1699,-6.1699,-6.1699,-6.1699,-6.1699,-6.1699,-6.1699,-6.1699,-6.1699,-6.1699,-6.1699,-6.1699,-6.1699,0.0,-6.1133,-6.0918,-6.0801,-5.9648,-5.9199,-5.9121,-5.8418,-5.8691,-5.9219,0.0,0.0,0.0,0.0,0.0,-1.8211,-1.9478,-1.9849,-2.0475,-2.1803,-2.1972,-2.1786,-2.1271,-2.0297,-1.9566,-1.928,0.0,0.0,0.0,0.0,0.0,0.0,0.0,0.0,0.0,0.0,-2.419,-2.419,-2.419,-2.419,0.0,0.0,-2.4228,-2.4284,0.0,0.0,0.0,0.0,0.0,0.0,0.0,0.0,0.0,0.0,0.0,0.0,0.0,0.0,0.0,0.0,0.0,0.0,0.0,0.0,0.0,0.0,-4.8393,-5.1549,-5.4148,-5.6519,-5.7901,-5.6499,-5.3741,-5.0373,0.0,0.0,-4.0391,-3.8996,-3.9206,-3.9723,-4.0019,-4.0613,-4.1059,0.0,0.0,-4.1992,-4.4297,0.0,0.0,0.0,0.0,0.0,0.0,-6.1269,-6.1699,-6.1699,-6.1699,-6.1699,-6.1699,-6.1699,-6.1699,-6.1699,-6.1699,-6.1699,-6.1699,-6.1699,-6.1699,-6.1699,-6.1699,-6.1699,-6.1699,-6.1699,-6.1699,-6.1699,-6.1699,-6.1699,0.0,-6.1035,-6.0625,-6.0332,-5.9785,-5.9361,-5.9079,-5.8832,-5.9075,-5.9319,0.0,0.0,0.0,0.0,0.0,0.0,0.0,-1.9536,-2.0272,-2.1119,-2.1221,-2.1221,-2.1204,-1.9824,-1.891,-1.8917,0.0,0.0,0.0,0.0,0.0,0.0,0.0,0.0,0.0,0.0,-2.419,-2.419,-2.419,-2.419,-2.419,-2.419,-2.4303,-2.4512,0.0,0.0,0.0,0.0,0.0,0.0,0.0,0.0,0.0,0.0,0.0,0.0,0.0,0.0,0.0,0.0,0.0,0.0,0.0,0.0,0.0,0.0,-4.3011,-4.8542,-4.9501,-5.2266,-5.4656,-5.3847,-5.1659,-4.8829,0.0,0.0,-4.0597,-3.9837,-3.9685,-3.9997,-4.1006,-4.1191,-4.1191,-4.1191,0.0,0.0,-4.3476,0.0,0.0,0.0,0.0,0.0,0.0,0.0,-6.1699,-6.1699,-6.1699,0.0,-6.1699,-6.1699,-6.1699,-6.1699,-6.1699,-6.1699,-6.1699,-6.1699,-6.1699,-6.1699,-6.1699,-6.1699,-6.1699,-6.1699,-6.1699,-6.1699,-6.1699,-6.1699,0.0,-6.1699,-6.1172,-6.039,-6.039,-5.9786,-5.8816,-5.7998,-5.7589,-5.7311,0.0,0.0,0.0,0.0,0.0,0.0,0.0,-1.9435,-1.9722,-2.1034,-2.072,-2.0382,-2.0382,-1.9486,-1.8894,-1.8894,0.0,0.0,0.0,0.0,0.0,0.0,0.0,0.0,0.0,0.0,-2.419,-2.419,-2.4339,-2.441,-2.441,-2.4561,-2.4639,-2.4716,-2.4775,0.0,0.0,0.0,0.0,0.0,0.0,0.0,0.0,0.0,0.0,0.0,0.0,0.0,0.0,0.0,0.0,0.0,0.0,0.0,0.0,0.0,0.0,0.0,-4.5677,-4.7938,-4.9537,-4.8698,-4.6961,-4.4754,-4.2006,0.0,-3.8177,-3.7342,-3.8117,-3.9041,-3.9355,-4.0391,-4.1191,-4.1191,-4.1191,0.0,0.0,0.0,0.0,0.0,0.0,0.0,0.0,0.0,-6.1055,-6.166,-6.1699,-6.1699,-6.1699,-6.1699,-6.1699,-6.1699,-6.1699,-6.1699,-6.1699,-6.1699,-6.1406,-6.082,-6.1426,-6.1387,-6.082,-6.1426,-6.1699,-6.1699,-6.1699,-6.1699,-6.1659,-6.0958,-6.0146,-5.941,-5.9932,-5.9199,-5.7912,-5.8257,-5.8334,-5.8083,0.0,0.0,0.0,0.0,0.0,0.0,0.0,-1.9029,-1.9232,-2.0196,-1.9908,-1.9681,-1.9968,-1.9072,-1.8707,-1.9283,0.0,0.0,0.0,0.0,0.0,0.0,0.0,0.0,0.0,-2.419,-2.419,-2.419,-2.441,-2.4495,-2.4512,-2.47,-2.4832,-2.4883,-2.4883,0.0,0.0,0.0,0.0,0.0,0.0,0.0,-2.5341,0.0,0.0,0.0,0.0,0.0,0.0,0.0,0.0,0.0,0.0,0.0,0.0,0.0,-3.6265,0.0,0.0,-4.4142,-4.5377,-4.4839,-4.3661,0.0,0.0,0.0,-3.7148,-3.6601,-3.7344,-3.8301,-3.8965,-3.998,-4.082,-4.1152,-4.1191,0.0,0.0,0.0,0.0,0.0,0.0,0.0,0.0,0.0,-6.0293,-6.1152,-6.0937,-6.0762,-6.0762,-6.0762,-6.0762,-6.0762,-6.1367,-6.1699,-6.1699,-6.1367,-6.1094,-6.0898,-6.1113,-6.0937,-6.043,-6.0957,-6.1211,-6.1191,-6.0898,-6.1092,0.0,-6.0577,-5.9861,-5.935,-5.9816,-5.9103,-5.7876,-5.841,-5.8594,-5.8402,0.0,0.0,0.0,0.0,0.0,0.0,0.0,0.0,-1.8843,-1.8894,-1.8843,-1.908,-1.9765,-1.864,-1.8409,-1.9832,0.0,0.0,0.0,0.0,0.0,0.0,0.0,0.0,0.0,-2.419,-2.419,-2.419,-2.4428,-2.4528,-2.4528,-2.4746,-2.4891,-2.5022,-2.5022,-2.5141,-2.5303,-2.5303,-2.5303,-2.5303,-2.5303,-2.5303,0.0,0.0,0.0,0.0,0.0,0.0,0.0,0.0,0.0,0.0,0.0,0.0,0.0,0.0,0.0,0.0,0.0,-4.0762,0.0,0.0,0.0,0.0,0.0,0.0,0.0,-3.7207,-3.7266,-3.7812,-3.9492,-3.9863,-4.0195,-4.1055,0.0,0.0,0.0,0.0,0.0,0.0,0.0,0.0,0.0,0.0,-5.9433,-6.0254,-5.9608,-5.9176,-5.9176,-5.9177,-5.9159,-5.9159,-6.0663,-6.1483,-6.15,-6.0759,-6.0721,-6.1385,-6.0702,-6.0311,-6.0194,-6.0252,-6.0272,0.0,-5.9491,-5.9971,0.0,-6.0419,-5.9969,-5.9819,-5.987,-5.9271,-5.8396,-5.838,-5.8322,-5.8204,0.0,0.0,0.0,0.0,0.0,0.0,0.0,0.0,0.0,0.0,-1.8403,-1.8132,-1.8318,-1.8176,-1.8504,0.0,0.0,0.0,0.0,0.0,0.0,0.0,0.0,0.0,0.0,-2.419,-2.419,-2.419,-2.4561,-2.4731,-2.4746,-2.5037,-2.5192,-2.5224,-2.5224,-2.5264,-2.5303,-2.5303,-2.5303,-2.5303,-2.537,-2.5341,0.0,0.0,0.0,0.0,-2.8279,-2.9311,0.0,0.0,0.0,0.0,0.0,0.0,0.0,0.0,-3.4312,-3.528,-3.6565,0.0,-3.75,-3.75,-3.7363,-3.7109,0.0,0.0,-3.6309,-3.6309,0.0,-3.7637,-3.8711,-3.9453,-4.0195,-4.1055,0.0,0.0,0.0,0.0,0.0,0.0,0.0,0.0,0.0,0.0,-5.8555,-5.9414,-5.9153,-5.8978,-5.8978,-5.8857,-5.8827,-5.8827,-5.9198,-5.9443,-5.9556,-5.9908,-5.9531,-5.8418,-5.9548,-5.9393,-5.8117,-5.8808,-5.91,-5.9081,-5.8905,-5.9017,-5.9333,-5.9031,-5.8476,-5.7899,-5.8476,-5.8149,-5.7338,-5.736,-5.7341,-5.7203,0.0,0.0,0.0,0.0,0.0,0.0,0.0,0.0,0.0,0.0,0.0,0.0,0.0,0.0,0.0,0.0,0.0,0.0,0.0,0.0,0.0,0.0,0.0,0.0,-2.419,-2.419,-2.419,-2.419,-2.4591,-2.4804,-2.4804,-2.5138,-2.5303,-2.5303,-2.5303,-2.5303,-2.5303,-2.5303,-2.5303,-2.5303,-2.537,0.0,0.0,0.0,0.0,0.0,-2.7989,-2.9016,0.0,-3.0631,-3.0801,-3.0792,0.0,0.0,0.0,0.0,-3.4307,-3.5405,-3.5873,-3.5996,-3.5996,-3.5996,-3.5996,-3.5996,0.0,0.0,0.0,0.0,0.0,0.0,0.0,0.0,0.0,0.0,-4.2129,0.0,0.0,0.0,0.0,0.0,0.0,0.0,0.0,0.0,-5.7642,-5.8461,-5.8037,-5.773,-5.7673,-5.7598,-5.754,-5.754,-5.7463,-5.7867,-5.8792,-5.8797,-5.8532,-5.8009,-5.8545,-5.8312,-5.7424,-5.7885,-5.8099,-5.8079,-5.7711,-5.7947,-5.8571,-5.8103,-5.7822,-5.7706,-5.7684,-5.7415,-5.6992,-5.6992,-5.6992,-5.6973,0.0,0.0,0.0,0.0,0.0,0.0,0.0,0.0,0.0,0.0,0.0,0.0,0.0,0.0,0.0,0.0,0.0,0.0,0.0,0.0,0.0,0.0,0.0,-2.419,-2.419,-2.419,-2.4209,-2.4247,-2.4607,-2.4818,-2.4828,-2.5149,-2.5303,-2.5303,-2.5303,-2.5303,-2.5303,-2.5303,-2.5303,-2.5322,-2.539,0.0,0.0,0.0,0.0,0.0,0.0,0.0,0.0,-3.0644,-3.0898,-3.0898,-3.0898,0.0,0.0,0.0,0.0,0.0,-3.5957,-3.5996,-3.5996,-3.5996,-3.5996,-3.5996,-3.5996,0.0,0.0,0.0,0.0,0.0,0.0,-3.8711,0.0,0.0,0.0,0.0,0.0,0.0,0.0,0.0,0.0,0.0,0.0,-5.7241,-5.679,-5.7428,-5.6769,-5.6263,-5.6167,-5.6128,-5.6128,-5.6128,-5.5974,-5.6629,-5.8233,-5.7653,-5.7651,-5.8223,-5.7632,-5.7266,-5.7131,-5.7131,-5.7131,-5.7093,0.0,0.0,-5.8014,-5.728,-5.7338,-5.7838,-5.7088,-5.6799,-5.6799,-5.6799,-5.6799,-5.6896,0.0,0.0,0.0,0.0,0.0,0.0,0.0,0.0,0.0,0.0,0.0,0.0,0.0,0.0,0.0,0.0,0.0,0.0,0.0,0.0,0.0,0.0,-2.419,-2.419,-2.419,-2.419,-2.4284,-2.4444,-2.4685,-2.4869,-2.4974,-2.5203,-2.5303,-2.5303,-2.5303,-2.5303,-2.5303,-2.5303,-2.5322,-2.539,-2.5466,0.0,0.0,0.0,0.0,0.0,0.0,0.0,0.0,-3.0859,-3.0898,-3.0898,-3.0898,0.0,0.0,0.0,0.0,0.0,-3.5801,-3.5996,-3.5996,-3.5996,-3.5996,-3.5996,-3.5996,0.0,0.0,0.0,0.0,0.0,0.0,-3.9199,-4.0293,0.0,0.0,-4.7168,0.0,0.0,-5.2471,-5.3858,0.0,0.0,0.0,0.0,-5.632,-5.6426,-5.6152,-5.5974,-5.5955,-5.5838,-5.578,-5.578,-5.5742,-5.5857,-5.6167,-5.6763,-5.6763,-5.6165,-5.6783,-5.6686,-5.5974,-5.5974,-5.5974,-5.5955,0.0,-5.5895,-5.6107,-5.5992,-5.5992,-5.6088,-5.5953,-5.5895,-5.5895,-5.5895,-5.5895,-5.5915,0.0,0.0,0.0,0.0,0.0,0.0,0.0,0.0,0.0,0.0,0.0,0.0,0.0,0.0,0.0,0.0,0.0,0.0,0.0,0.0,0.0,-2.419,-2.419,-2.419,-2.419,-2.419,-2.4303,-2.4495,-2.47,-2.4883,-2.4991,-2.5214,-2.5303,-2.5303,-2.5303,-2.5303,-2.5303,-2.5303,-2.5341,-2.5418,0.0,0.0,0.0,0.0,0.0,0.0,0.0,0.0,0.0,0.0,-3.0898,-3.0898,-3.0898,0.0,0.0,0.0,0.0,0.0,-3.5898,-3.5996,-3.5996,-3.5996,-3.6348,-3.6699,-3.6699,0.0,0.0,0.0,0.0,0.0,0.0,0.0,-4.1468,-4.4501,0.0,-4.907,-5.144,-5.173,-5.2194,0.0,0.0,0.0,0.0,0.0,-5.6159,-5.6062,-5.5557,-5.5416,-5.5761,-5.4876,-5.4568,-5.503,-5.4587,-5.4587,-5.5049,-5.5453,-5.5665,-5.5703,-5.6107,-5.6088,-5.5703,-5.5703,-5.5703,-5.5703,0.0,-5.5703,-5.5703,-5.5703,-5.5703,-5.5703,-5.5703,-5.5703,-5.5703,-5.5703,-5.5703,-5.5703,0.0,0.0,0.0,0.0,0.0,0.0,0.0,0.0,0.0,0.0,0.0,0.0,0.0,0.0,0.0,0.0,0.0,0.0,0.0,0.0,-2.419,-2.419,-2.419,-2.419,-2.419,-2.4247,-2.4375,-2.4559,-2.4756,-2.4917,-2.5057,-2.5224,-2.5303,-2.5303,-2.5303,-2.5303,-2.5303,-2.5303,-2.5341,-2.5428,0.0,0.0,0.0,0.0,0.0,0.0,0.0,0.0,0.0,0.0,0.0,0.0,0.0,0.0,0.0,-3.3398,-3.4629,-3.5996,-3.5996,-3.5996,-3.5996,-3.5996,0.0,-3.7109,-3.7519,0.0,0.0,0.0,0.0,0.0,0.0,0.0,0.0,-4.6352,-4.8726,-5.051,-5.1474,-5.1761,-5.2423,-5.3953,-5.3949,0.0,0.0,0.0,-5.5436,-5.528,-5.4705,-5.457,-5.5088,-5.3895,-5.351,-5.4164,-5.3549,-5.353,-5.4184,-5.4203,-5.4703,-5.5703,-5.5703,-5.5703,-5.5703,-5.5703,-5.5703,-5.5703,-5.5703,-5.5703,-5.5703,-5.5703,-5.5703,-5.5703,-5.5703,-5.5703,-5.5703,-5.5703,-5.5703,-5.5703,0.0,0.0,0.0,0.0,0.0,0.0,0.0,0.0,0.0,0.0,0.0,0.0,0.0,0.0,0.0,0.0,0.0,0.0,0.0,0.0,-2.419,-2.419,-2.419,-2.419,-2.419,-2.4375,-2.4594,-2.4775,-2.493,-2.5088,-2.5274,-2.5284,-2.5303,-2.5303,-2.5303,-2.5303,-2.5303,-2.5303,-2.537,-2.5486,-2.5505,0.0,0.0,0.0,0.0,0.0,0.0,0.0,0.0,0.0,0.0,0.0,0.0,0.0,-3.3398,-3.3398,-3.4629,-3.5996,-3.5996,-3.5996,-3.5996,-3.5996,-3.6055,0.0,-3.8144,-3.9185,0.0,-4.0691,0.0,0.0,0.0,-4.2767,-4.479,-4.5831,-4.8762,-5.1504,-5.3182,0.0,-5.4762,-5.5626,-5.4972,-5.4472,-5.4607,-5.3895,-5.3414,-5.3395,-5.3337,-5.3337,-5.3376,-5.328,-5.3241,-5.3299,-5.3241,-5.3241,-5.3299,-5.3299,-5.4107,-5.5703,-5.5703,-5.5703,-5.5703,-5.5703,-5.5703,-5.5703,-5.5703,-5.5703,-5.5703,-5.5703,-5.5703,-5.5703,-5.5703,-5.5703,-5.5703,-5.5703,-5.5703,-5.5703,0.0,0.0,0.0,0.0,0.0,0.0,0.0,0.0,0.0,0.0,0.0,0.0,0.0,0.0,0.0,0.0,0.0,0.0,0.0,0.0,-2.419,-2.419,-2.419,-2.4266,-2.4393,-2.4461,-2.4636,-2.4911,-2.5107,-2.5224,-2.5303,-2.5303,-2.5303,-2.5303,-2.5303,-2.5303,-2.5303,-2.5303,-2.5341,-2.5447,-2.5486,-2.5885,0.0,0.0,0.0,0.0,0.0,0.0,0.0,0.0,-3.0898,-3.0898,0.0,-3.2051,-3.3398,-3.3398,-3.4629,-3.5996,-3.5996,-3.5996,-3.5996,-3.5996,0.0,0.0,0.0,-3.9962,-4.0787,-4.1531,-4.2633,0.0,0.0,0.0,-4.5789,-4.7075,-4.9333,-5.1681,-5.3855,-5.3932,-5.4087,-5.4934,-5.4241,-5.3683,-5.3683,-5.3395,-5.3203,-5.3203,-5.2702,-5.2645,-5.3164,-5.2202,-5.1875,-5.2395,-5.1914,-5.1895,-5.2395,-5.2395,-5.2991,-5.4145,-5.4145,-5.4145,-5.4164,-5.4703,-5.4664,-5.4203,-5.5241,-5.5415,-5.4953,-5.4953,-5.4953,-5.4953,-5.4953,-5.4953,-5.5011,-5.5511,-5.5376,-5.503,0.0,0.0,0.0,0.0,0.0,0.0,0.0,0.0,0.0,0.0,0.0,0.0,0.0,0.0,0.0,0.0,0.0,0.0,0.0,-2.419,-2.419,-2.419,-2.4247,-2.4393,-2.4591,-2.4636,-2.4762,-2.501,-2.5203,-2.5303,-2.5303,-2.5303,-2.5303,-2.5303,-2.5303,-2.5303,-2.5303,-2.5303,-2.5341,-2.5418,-2.5747,-2.6281,0.0,0.0,0.0,0.0,0.0,0.0,0.0,0.0,-3.0859,0.0,0.0,0.0,0.0,0.0,-3.4593,-3.597,-3.5918,-3.5906,-3.5906,0.0,0.0,0.0,-3.9432,-4.0492,-4.1453,-4.3264,-4.3661,0.0,0.0,0.0,0.0,0.0,-4.9471,-5.1491,-5.3414,-5.3395,-5.3414,-5.401,-5.3318,-5.2799,-5.2799,-5.2568,-5.2299,-5.2029,-5.1452,-5.126,-5.1568,-5.076,-5.0529,-5.1087,-5.0837,-5.0952,-5.1529,-5.1529,-5.1818,-5.2414,-5.2414,-5.2683,-5.3222,-5.3818,-5.376,-5.326,-5.4414,-5.4607,-5.4087,-5.4087,-5.4087,-5.4126,-5.4395,-5.4491,-5.4607,-5.5395,-5.5338,-5.4953,0.0,0.0,0.0,0.0,0.0,0.0,0.0,0.0,0.0,0.0,0.0,0.0,0.0,0.0,0.0,0.0,0.0,0.0,-2.4153,-2.419,-2.419,-2.419,-2.4393,-2.4591,-2.4804,-2.4924,-2.501,-2.501,-2.5203,-2.5303,-2.5303,-2.5303,-2.5303,-2.5303,-2.5303,-2.5303,-2.5303,-2.5303,-2.5341,-2.5486,-2.636,-2.6762,-2.6992,0.0,0.0,0.0,0.0,0.0,0.0,0.0,-3.0781,-3.0898,0.0,0.0,0.0,-3.331,-3.4524,-3.5875,-3.5749,-3.5703,0.0,0.0,0.0,0.0,-4.0149,-4.0756,-4.1986,-4.6126,0.0,-4.4586,-4.5432,0.0,0.0,-4.6624,-4.9029,-5.0971,-5.1798,-5.2645,-5.3164,-5.3203,-5.2414,-5.1895,-5.1895,-5.1164,-5.0317,-4.9452,-4.9394,-4.9009,-4.8144,-4.8913,-4.9394,-4.9394,-5.0221,-5.0664,-5.0664,-5.0664,-5.0664,-5.0664,-5.0664,-5.1548,-5.3183,-5.3183,-5.3183,-5.3183,-5.3203,-5.3203,-5.3203,-5.3203,-5.3183,-5.326,-5.4145,-5.4491,-5.4587,-5.5395,-5.5703,-5.5684,0.0,0.0,0.0,0.0,0.0,0.0,0.0,0.0,0.0,0.0,0.0,0.0,0.0,0.0,0.0,0.0,0.0,0.0,-2.4171,-2.419,-2.419,-2.419,-2.4393,-2.4591,-2.4804,-2.5061,-2.5214,-2.5214,-2.5274,-2.5303,-2.5303,-2.5303,-2.5303,-2.5303,-2.5303,-2.5303,-2.5341,-2.5947,-2.6236,-2.6313,-2.7246,-2.7981,-2.855,0.0,0.0,0.0,0.0,0.0,0.0,0.0,0.0,0.0,0.0,0.0,0.0,-3.3231,-3.4422,-3.5746,-3.5712,0.0,0.0,-3.6465,0.0,0.0,0.0,-4.1116,0.0,0.0,0.0,-4.5278,-4.5547,0.0,0.0,-4.6817,-4.8529,-5.0279,-5.1702,-5.1106,-5.0952,-5.2164,-5.1029,-5.0144,-5.0144,-4.9933,-4.9413,-4.8548,-4.849,-4.8375,-4.8105,-4.8355,-4.849,-4.849,-4.874,-4.8875,-4.8875,-4.8875,-4.8875,-4.8875,-4.8875,-4.976,-5.1452,-5.2029,-5.1991,-5.151,-5.2683,-5.2856,-5.2299,-5.2299,-5.1952,-5.1568,-5.3029,-5.3587,-5.376,-5.5184,-5.5338,-5.4934,0.0,0.0,0.0,0.0,0.0,0.0,0.0,0.0,0.0,0.0,0.0,0.0,0.0,0.0,0.0,0.0,0.0,0.0,0.0,0.0,-2.419,-2.419,-2.4461,-2.4746,-2.4987,-2.5201,-2.5303,-2.5303,-2.5303,-2.5303,-2.5303,-2.5649,-2.5832,-2.5832,-2.6178,-2.614,-2.587,-2.6755,-2.6928,-2.6717,-2.7939,-2.8728,-2.9198,0.0,0.0,0.0,0.0,0.0,0.0,0.0,0.0,0.0,0.0,0.0,0.0,-3.3151,-3.4334,-3.5718,-3.6026,0.0,0.0,-3.7185,-3.8223,-3.9627,-4.186,0.0,0.0,0.0,0.0,-4.5701,-4.6047,-4.599,0.0,-4.6797,-4.7759,-4.8875,-5.0202,-4.9529,-4.926,-5.0279,-4.951,-4.8875,-4.8875,-4.8875,-4.8529,-4.7702,-4.7625,-4.7471,-4.7124,-4.7451,-4.7625,-4.7625,-4.7932,-4.8105,-4.8105,-4.8105,-4.8105,-4.8105,-4.8105,-4.8644,-4.9683,-5.0183,-5.0317,-5.026,-5.1625,-5.1914,-5.1414,-5.1414,-5.1144,-5.0818,-5.2164,-5.2683,-5.2856,-5.4203,-5.4395,-5.4049,0.0,0.0,0.0,0.0,0.0,0.0,0.0,0.0,0.0,0.0,0.0,0.0,0.0,0.0,0.0,0.0,0.0,0.0,0.0,0.0,-2.419,-2.419,-2.4594,-2.4968,-2.5284,-2.5303,-2.5303,-2.5303,-2.5303,-2.5303,-2.5322,-2.6197,-2.6601,-2.664,-2.7505,-2.7467,-2.6774,-2.764,-2.7544,-2.6967,-2.8563,-2.9217,-2.9294,-3.0102,0.0,0.0,0.0,0.0,0.0,0.0,0.0,0.0,-3.0814,-3.1948,-3.3256,-3.3154,-3.4301,-3.5757,-3.6507,0.0,0.0,-3.7969,-3.9546,0.0,-4.2951,-4.5124,-4.6778,-4.6778,0.0,-4.5951,-4.6759,-4.5605,-4.5066,-4.6644,-4.6971,-4.7259,-4.8009,-4.8048,-4.8029,-4.8086,-4.8048,-4.799,-4.799,-4.799,-4.7663,-4.6836,-4.6778,-4.6432,-4.5624,-4.6355,-4.6778,-4.6778,-4.749,-4.7875,-4.7875,-4.7875,-4.7875,-4.7875,-4.7875,-4.7875,-4.7875,-4.8029,-4.8529,-4.9336,-5.0106,-5.051,-5.0567,-5.0567,-5.0625,-5.0779,-5.1587,-5.1914,-5.201,-5.2876,-5.3203,-5.3203,0.0,0.0,0.0,0.0,0.0,0.0,0.0,0.0,0.0,0.0,0.0,0.0,0.0,0.0,0.0,0.0,0.0,0.0,0.0,0.0,-2.419,-2.419,-2.4594,-2.4968,-2.5284,-2.5303,-2.5303,-2.5303,-2.5303,-2.5303,-2.5322,-2.6197,-2.6601,-2.664,-2.7505,-2.7794,-2.7659,-2.8486,-2.8717,-2.864,-2.9698,-3.0121,-3.014,-3.0321,-3.0398,0.0,0.0,0.0,0.0,0.0,0.0,0.0,-3.241,-3.3122,-3.3968,-3.3949,-3.4699,-3.5699,0.0,-3.6699,0.0,0.0,-4.1739,-4.3758,-4.4816,-4.549,-4.5874,-4.5874,-4.6278,-4.6682,-4.6874,-4.6586,-4.6471,-4.6836,-4.7432,-4.7894,-4.8086,-4.7567,-4.7394,-4.8029,-4.7548,-4.7163,-4.7163,-4.7163,-4.6797,-4.5932,-4.5874,-4.5797,-4.5605,-4.5778,-4.5874,-4.5874,-4.6047,-4.6144,-4.6144,-4.6144,-4.6144,0.0,-4.6144,-4.6144,-4.6182,-4.7509,-4.8202,-4.8394,-4.8586,-4.9048,-4.9683,-4.9683,-5.0067,-5.0779,-5.1587,-5.1914,-5.201,-5.2876,-5.3203,-5.3203,0.0,0.0,0.0,0.0,0.0,0.0,0.0,0.0,0.0,0.0,0.0,0.0,0.0,0.0,0.0,0.0,0.0,0.0,0.0,0.0,0.0,-2.4478,-2.4737,-2.5005,-2.5284,-2.5303,-2.5303,-2.5303,-2.5303,-2.5303,-2.5322,-2.6621,-2.7217,-2.7274,-2.8544,-2.8871,-2.8525,-2.9371,-2.9486,-2.9179,-3.0044,-3.0398,-3.0398,-3.0398,-3.066,-3.1025,-3.1025,0.0,0.0,0.0,0.0,0.0,0.0,0.0,-3.4199,-3.4199,-3.4814,-3.568,0.0,0.0,0.0,0.0,0.0,0.0,-4.5297,-4.5586,-4.5586,-4.5586,-4.5951,-4.6278,-4.6278,-4.6278,-4.6278,-4.6278,-4.6624,-4.6894,-4.6894,-4.6547,-4.6432,-4.6855,-4.6528,-4.6278,-4.6278,-4.6278,-4.6086,-4.5624,-4.5586,-4.5586,-4.5586,-4.5586,-4.5586,-4.5586,-4.5586,-4.5586,-4.5586,-4.5586,-4.5586,-4.5586,-4.5586,-4.5586,-4.5624,-4.6932,-4.7528,-4.7548,-4.7932,-4.8355,-4.8779,-4.8779,-4.9048,-4.949,-4.9933,-5.0337,-5.076,-5.1202,-5.1645,-5.1991,0.0,0.0,0.0,0.0,0.0,0.0,0.0,0.0,0.0,0.0,0.0,0.0,0.0,0.0,0.0,0.0,0.0,0.0,0.0,0.0,0.0,-2.4814,-2.4937,-2.5088,-2.5303,-2.5303,-2.5303,-2.5303,-2.5303,0.0,0.0,0.0,-2.7967,-2.8159,-2.9717,-3.0006,-2.9371,-3.0102,-2.9987,-2.939,-3.0121,-3.0398,-3.0417,-3.0571,-3.1083,-3.1718,-3.1852,-3.2429,-3.3122,-3.3122,0.0,0.0,0.0,0.0,-3.441,-3.441,-3.4949,-3.568,0.0,0.0,0.0,0.0,0.0,0.0,-4.5028,-4.5259,-4.524,-4.5528,-4.5586,-4.5586,-4.5586,-4.5586,-4.5586,-4.5586,-4.5586,-4.5586,-4.5586,-4.5586,-4.5586,-4.5586,-4.5586,-4.5586,-4.5586,-4.5586,-4.5586,-4.5586,-4.5586,-4.5586,-4.5586,-4.5586,-4.5586,-4.5586,-4.5586,-4.5586,-4.5586,-4.5586,-4.5586,-4.5586,-4.5586,-4.5586,-4.5605,-4.6355,-4.6682,-4.6721,-4.7375,-4.7759,-4.7894,-4.7894,-4.7971,-4.8105,-4.8105,-4.8548,-4.9183,-4.9183,-4.9721,-5.0471,0.0,0.0,0.0,0.0,0.0,0.0,0.0,0.0,0.0,0.0,0.0,0.0,0.0,0.0,0.0,0.0,0.0,0.0,-2.419,0.0,0.0,-2.4962,-2.4986,-2.5088,-2.5303,-2.5303,-2.5303,-2.5303,0.0,0.0,0.0,0.0,0.0,-2.8967,0.0,-3.034,-3.0237,-3.034,-3.0321,-3.0237,-3.034,-3.0398,-3.0475,-3.1237,-3.1602,-3.1795,-3.2487,-3.3295,-3.4026,-3.4026,-3.4526,0.0,0.0,0.0,-3.5334,-3.5334,-3.5411,-3.568,0.0,0.0,0.0,0.0,0.0,-4.3335,0.0,0.0,-4.3855,0.0,-4.5586,-4.5586,-4.5586,-4.5586,-4.5586,-4.5586,-4.5586,-4.5586,-4.5586,-4.5586,-4.5586,-4.5586,-4.5586,-4.5586,-4.5586,-4.5586,-4.5586,-4.5586,-4.5586,-4.5586,-4.5586,-4.5586,-4.5586,-4.5586,-4.5586,-4.5586,-4.5586,-4.5586,-4.5586,-4.5586,-4.5586,-4.5586,-4.5586,-4.572,-4.5759,-4.5778,-4.5893,-4.6355,-4.7067,-4.7067,-4.7471,-4.8105,-4.8105,-4.8182,-4.8279,-4.8279,-4.8836,-4.9567,0.0,0.0,0.0,0.0,0.0,0.0,0.0,0.0,0.0,0.0,0.0,0.0,0.0,0.0,0.0,-2.419,-2.419,-2.4247,-2.4357,-2.4561,-2.4771,-2.4998,-2.5118,-2.5203,-2.5303,-2.5303,-2.5303,-2.5303,0.0,0.0,0.0,-2.8179,-2.8756,0.0,0.0,0.0,0.0,-3.0398,-3.0398,-3.0398,-3.0398,-3.0698,-3.1179,-3.1545,-3.2275,-3.3141,-3.3506,-3.418,-3.493,-3.493,-3.518,-3.5493,-3.5493,0.0,0.0,0.0,-3.5493,0.0,-3.6488,0.0,0.0,0.0,0.0,0.0,-4.3431,0.0,-4.3316,-4.4047,-4.4201,-4.4489,-4.5432,-4.5586,-4.5586,-4.5586,-4.5586,-4.5586,-4.5586,-4.5586,-4.5586,-4.5586,-4.5586,-4.5586,-4.5586,-4.5586,-4.5513,-4.5342,-4.5322,-4.5322,-4.5322,-4.5322,-4.54,-4.5586,-4.5586,-4.5586,-4.5586,-4.5586,-4.5586,-4.5586,-4.5586,-4.5586,-4.5586,-4.5586,-4.5586,-4.5586,-4.5586,-4.5817,-4.6163,-4.6163,-4.6374,-4.6701,-4.6701,-4.7009,-4.7432,-4.7432,-4.7971,-4.874,0.0,0.0,0.0,0.0,0.0,0.0,0.0,0.0,0.0,0.0,0.0,0.0,0.0,0.0,0.0,0.0,-2.419,-2.4303,-2.4561,-2.4716,-2.4883,-2.5077,-2.5214,-2.5303,-2.5303,-2.5303,-2.5303,0.0,0.0,0.0,-2.7909,-2.8717,-2.9217,0.0,-3.0121,-3.0398,0.0,0.0,0.0,-3.0417,-3.0641,-3.1121,-3.1756,-3.2179,-3.3103,-3.4257,-3.468,-3.5122,-3.5532,-3.5738,-3.568,-3.5493,-3.5493,-3.5493,0.0,0.0,0.0,0.0,0.0,0.0,0.0,0.0,0.0,0.0,0.0,0.0,-4.248,0.0,-4.2912,-4.3184,-4.4573,-4.507,-4.5259,-4.5259,-4.5451,-4.5586,-4.5586,-4.5586,-4.5586,-4.5586,-4.5586,-4.5586,-4.5586,-4.5586,-4.5457,-4.5137,-4.518,-4.514,-4.4966,-4.5052,-4.5222,-4.5476,-4.5457,-4.5513,-4.5586,-4.5586,-4.5586,-4.5586,-4.5586,-4.5586,-4.5586,-4.5586,-4.5586,-4.5586,-4.5586,-4.5586,-4.5586,-4.5586,-4.5586,-4.5586,-4.5586,-4.599,-4.6567,-4.6567,-4.7086,-4.7894,0.0,0.0,0.0,0.0,0.0,0.0,0.0,0.0,0.0,0.0,0.0,0.0,-2.419,-2.419,-2.419,-2.419,-2.419,-2.4357,-2.476,-2.479,-2.4936,-2.5264,-2.5284,0.0,-2.5303,-2.5303,-2.5303,0.0,0.0,0.0,-2.7909,-2.8717,-2.9544,-3.0321,-3.0379,-3.0398,-3.0398,0.0,0.0,0.0,-3.1295,-3.166,-3.1872,-3.3449,-3.4122,-3.441,-3.6007,-3.6122,-3.5622,-3.6392,-3.6142,-3.5493,-3.5493,-3.5493,-3.5493,0.0,0.0,0.0,0.0,0.0,0.0,0.0,0.0,0.0,0.0,0.0,0.0,0.0,-4.245,-4.2057,-4.2661,-4.3636,-4.4374,-4.4374,-4.5047,-4.5586,-4.5586,-4.5586,-4.5586,-4.5586,-4.5586,-4.5586,-4.5586,-4.5586,-4.5457,-4.5137,-4.5381,-4.5302,-4.4657,-4.4919,-4.5096,-4.5137,-4.5137,-4.5282,-4.5586,-4.5586,-4.5586,-4.5586,-4.5586,-4.5586,-4.5586,-4.5586,-4.5586,-4.5586,-4.5586,-4.5586,-4.5586,-4.5586,-4.5586,-4.5586,-4.5586,-4.5624,-4.5663,-4.5663,-4.622,-4.6971,0.0,0.0,0.0,0.0,0.0,0.0,0.0,0.0,0.0,0.0,0.0,0.0,0.0,-2.419,-2.419,-2.419,-2.419,-2.4543,-2.5325,-2.5379,-2.5716,-2.6484,-2.6638,-2.6472,-2.5956,-2.6625,0.0,0.0,0.0,-2.8352,-2.8679,-2.9544,-3.0102,-3.0398,-3.0398,-3.0398,-3.0436,-3.1006,0.0,0.0,0.0,0.0,0.0,0.0,0.0,0.0,0.0,0.0,-3.7161,-3.745,-3.7334,-3.7007,-3.6449,-3.6276,-3.618,-3.5661,0.0,0.0,0.0,0.0,0.0,0.0,-3.7833,-3.8364,0.0,-3.9432,-3.9345,-4.0589,-4.061,-4.0435,-4.0634,-4.2044,-4.3197,-4.3197,-4.3465,-4.3752,-4.3972,-4.3989,-4.3918,-4.3695,-4.3676,-4.3788,-4.4075,-4.411,-4.418,-4.4371,-4.4516,-4.4463,-4.4233,-4.4346,-4.4508,-4.4757,-4.4776,-4.4943,-4.5282,-4.5495,-4.5586,-4.5586,-4.5586,-4.5586,-4.5586,-4.5586,-4.5586,-4.5586,-4.5586,-4.5586,-4.5586,-4.5586,-4.5586,-4.5586,-4.5586,-4.5586,-4.5586,-4.5586,-4.5797,-4.6144,0.0,0.0,0.0,0.0,0.0,0.0,0.0,0.0,0.0,0.0,0.0,0.0,0.0,0.0,-2.4704,-2.4979,-2.5016,-2.5316,-2.6061,-2.6098,-2.6429,-2.7159,-2.7335,-2.7172,-2.6694,-2.712,0.0,0.0,0.0,0.0,0.0,-2.9987,-3.0398,-3.0398,-3.0311,-3.0484,0.0,0.0,0.0,-3.2037,0.0,0.0,-3.4184,0.0,0.0,0.0,0.0,0.0,-3.7747,-3.8014,-3.7919,-3.7613,-3.7022,-3.6831,-3.6678,-3.5873,0.0,0.0,-3.5737,0.0,0.0,0.0,0.0,-3.7145,-3.806,0.0,-3.8409,-3.9071,-3.941,-3.9576,-3.9438,-4.0533,-4.1567,-4.1958,-4.2349,-4.2679,-4.2907,-4.2925,-4.2851,-4.262,-4.25,-4.2538,-4.2875,-4.2888,-4.298,-4.317,-4.3538,0.0,-4.3052,-4.3397,-4.3594,-4.3592,-4.3943,-4.4272,-4.4505,-4.5129,-4.5438,-4.5438,-4.555,-4.5586,-4.5586,-4.5586,-4.5586,-4.5586,-4.5586,-4.5586,-4.5586,-4.5586,-4.5586,-4.5586,-4.5586,-4.5586,-4.5586,-4.5586,-4.5586,-4.5682,0.0,0.0,0.0,0.0,0.0,0.0,0.0,0.0,0.0,0.0,0.0,0.0,0.0,0.0,0.0,-2.6539,-2.6612,-2.6698,-2.6916,-2.6935,-2.7027,-2.7236,-2.7253,-2.7346,-2.7513,-2.6732,0.0,0.0,0.0,0.0,0.0,0.0,-3.0367,-3.0386,-3.0122,-3.0633,-3.1705,0.0,-3.2023,-3.2629,0.0,-3.4168,-3.4747,0.0,0.0,0.0,-3.8402,-3.8112,0.0,-3.8083,0.0,0.0,0.0,0.0,0.0,0.0,0.0,0.0,0.0,0.0,0.0,0.0,0.0,0.0,-3.6898,0.0,-3.7935,-3.8305,-3.8991,-3.9443,-3.9133,-3.9099,-3.9466,-4.0626,-4.1781,-4.2484,-4.2504,-4.2504,-4.2524,-4.2484,-4.2208,-4.2019,-4.2038,-4.2057,-4.1907,-4.1633,-4.2626,-4.2604,-4.1181,-4.2149,-4.2377,-4.1595,-4.2671,-4.3265,-4.3265,-4.4467,-4.5058,-4.508,-4.54,-4.5547,-4.5547,-4.5528,-4.5528,-4.5528,-4.5547,-4.5547,-4.5547,-4.5586,-4.5586,-4.5586,-4.5586,-4.5586,-4.5586,-4.5586,-4.5586,-4.5586,0.0,0.0,0.0,0.0,0.0,0.0,0.0,0.0,0.0,0.0,0.0,0.0,-2.6038,-2.6222,-2.6355,-2.6594,-2.6612,-2.6872,-2.7509,-2.7546,-2.7825,-2.8479,-2.8703,-2.8503,-2.7959,-2.847,0.0,0.0,0.0,0.0,0.0,0.0,0.0,0.0,-2.9877,-3.0627,-3.206,-3.206,0.0,-3.3527,-3.4597,-3.5113,0.0,0.0,0.0,0.0,0.0,-3.9195,-3.8935,0.0,-3.9086,-3.8803,0.0,0.0,0.0,0.0,0.0,0.0,-3.685,0.0,0.0,0.0,0.0,0.0,0.0,0.0,0.0,-3.7479,-3.7933,-3.821,-3.8722,-3.8833,-3.8918,-3.9256,-3.9738,-4.0164,-4.0394,-4.0416,-4.0348,-4.009,-3.9989,-4.0093,-4.0481,-4.0507,-4.0707,0.0,-4.1527,-4.1533,-4.113,-4.1392,-4.1488,-4.1267,-4.1771,-4.2179,-4.2429,-4.3634,-4.4325,-4.4517,-4.4608,-4.4662,-4.4643,-4.4066,-4.3797,-4.3816,-4.4412,-4.4662,-4.4701,-4.5336,-4.5586,-4.5586,-4.5586,-4.5586,-4.5586,-4.5586,-4.5586,-4.5586,0.0,0.0,0.0,0.0,0.0,0.0,0.0,0.0,0.0,0.0,0.0,0.0,-2.701,-2.7402,-2.7581,-2.7581,-2.7581,-2.7805,-2.8282,-2.8301,-2.8521,-2.8975,-2.9156,-2.9045,-2.8666,-2.8914,0.0,0.0,0.0,0.0,0.0,0.0,0.0,0.0,0.0,0.0,0.0,0.0,0.0,0.0,-3.5086,0.0,0.0,-3.7352,-3.805,0.0,0.0,0.0,-3.9216,-3.9216,-3.9216,0.0,0.0,0.0,0.0,0.0,0.0,0.0,0.0,0.0,0.0,0.0,0.0,0.0,-3.4877,-3.4897,-3.5385,0.0,-3.7257,-3.7734,-3.856,-3.8707,-3.8707,-3.8707,-3.8844,-3.9027,-3.9358,-3.9389,-3.9314,-3.9107,-3.8999,-3.9069,-3.9381,-3.9405,-3.9588,-4.0065,-4.0414,-4.0598,-4.0598,-4.0286,-4.0102,-4.0102,-4.0609,-4.0977,-4.1176,-4.2484,-4.324,-4.3386,-4.3672,-4.3797,-4.3778,-4.3316,-4.3104,-4.3124,-4.3605,-4.3797,-4.3855,-4.4701,-4.5259,-4.5586,-4.5586,-4.5586,-4.5586,-4.5586,-4.5586,-4.5586,0.0,0.0,0.0,0.0,0.0,0.0,0.0,0.0,0.0,0.0,0.0,0.0,-2.8031,-2.8828,-2.925,-2.925,-2.925,-2.925,-2.925,-2.925,-2.925,-2.925,-2.925,-2.9388,-2.9611,-2.8773,0.0,0.0,0.0,0.0,0.0,0.0,0.0,0.0,0.0,0.0,0.0,0.0,0.0,-3.4351,-3.525,-3.5861,0.0,0.0,-3.8266,-3.8719,-3.8971,-3.8894,-3.8707,-3.8707,-3.8707,0.0,0.0,0.0,0.0,0.0,-3.7624,0.0,0.0,0.0,0.0,0.0,0.0,0.0,-3.4119,-3.4431,-3.5128,-3.5973,-3.6707,-3.7459,-3.8285,-3.8432,-3.8432,-3.8432,-3.8505,-3.8681,-3.9008,-3.9063,-3.9063,-3.9063,-3.8844,-3.8707,-3.8707,-3.8707,-3.8707,-3.8707,-3.935,-3.9772,-3.9772,-3.9093,-3.8707,-3.8707,-3.9386,-3.9816,-3.986,-4.1255,-4.1982,-4.2054,-4.268,-4.297,-4.2951,-4.2854,-4.2816,-4.2816,-4.2912,-4.297,-4.3028,-4.3835,-4.4682,-4.547,-4.5547,-4.5586,-4.5586,-4.5586,-4.5586,-4.5586,-2.3071,0.0,0.0,0.0,0.0,0.0,0.0,0.0,0.0,0.0,0.0,0.0,0.0,-3.0684,-3.0925,-3.0925,-3.0925,-3.0925,-3.0925,-3.0925,-3.0925,-3.0925,-3.0925,-3.095,-3.1004,-3.0207,0.0,0.0,0.0,0.0,0.0,0.0,0.0,0.0,0.0,0.0,0.0,0.0,0.0,-3.4917,-3.5791,0.0,-3.645,-3.7971,-3.8603,-3.8707,-3.8762,-3.8732,-3.8707,-3.8707,-3.8707,-3.8707,0.0,0.0,0.0,-3.8505,0.0,0.0,0.0,0.0,0.0,0.0,0.0,0.0,-3.4954,-3.4394,-3.4284,0.0,-3.5385,-3.5752,-3.6615,-3.6762,-3.6762,-3.6762,-3.7312,-3.7966,-3.87,-3.8792,-3.8792,-3.8792,-3.8719,-3.8707,-3.8707,-3.8707,-3.8707,-3.8707,-3.8854,-3.8927,-3.8927,-3.8799,-3.8707,-3.8707,-3.8854,-3.9153,-3.9652,-4.0626,-4.1383,-4.1872,-4.1978,-4.2047,-4.2027,-4.1335,-4.1008,-4.1046,-4.1758,-4.2047,-4.2124,-4.2989,-4.3816,-4.4624,-4.5316,-4.5586,-4.5586,-4.5586,-4.5586,-4.5586,-2.3279,0.0,0.0,0.0,0.0,0.0,0.0,0.0,0.0,0.0,0.0,0.0,0.0,0.0,-3.1101,-3.1101,-3.1283,-3.1384,-3.1384,-3.1384,-3.1384,-3.1384,-3.1384,-3.1384,-3.1384,-3.0999,-3.0797,0.0,0.0,0.0,0.0,0.0,0.0,0.0,0.0,0.0,0.0,0.0,-3.3917,-3.5064,-3.5954,0.0,-3.7019,-3.8248,-3.8707,-3.8707,-3.8707,-3.8707,-3.8707,-3.8707,-3.8707,0.0,-3.8707,-3.8707,-3.8707,0.0,-3.8707,-3.8707,0.0,0.0,0.0,-3.7679,0.0,0.0,0.0,-3.4679,-3.4523,-3.4917,-3.499,-3.5275,-3.6138,-3.6303,-3.6303,-3.6303,-3.6964,-3.7624,-3.8028,-3.845,-3.8707,-3.8707,-3.8707,-3.8707,-3.8707,-3.8707,-3.8707,-3.8707,-3.8707,-3.8707,-3.8707,-3.8815,-3.8894,-3.8894,-3.9045,-3.9275,-3.9599,-4.0192,-4.0651,-4.0955,-4.1094,-4.1143,-4.1143,-4.07,-4.0489,-4.0508,-4.095,-4.1143,-4.1219,-4.2085,-4.2701,-4.3181,-4.4451,-4.522,-4.5586,-4.5586,-4.5586,-4.5586,-2.3755,0.0,0.0,0.0,0.0,0.0,0.0,0.0,0.0,0.0,0.0,0.0,0.0,0.0,0.0,0.0,-3.1411,-3.1618,-3.1618,-3.1618,-3.1644,-3.1741,-3.1741,-3.1792,-3.1861,-3.1696,-3.1623,0.0,0.0,0.0,0.0,0.0,0.0,0.0,0.0,0.0,0.0,0.0,0.0,-3.555,0.0,-3.6909,-3.7569,-3.8395,-3.8707,-3.8707,-3.8707,-3.8707,-3.8707,-3.8707,-3.8707,-3.8707,-3.8707,-3.8707,0.0,0.0,0.0,0.0,0.0,0.0,0.0,0.0,0.0,-3.7147,0.0,0.0,0.0,0.0,0.0,0.0,0.0,0.0,0.0,0.0,0.0,0.0,0.0,-3.7624,0.0,-3.867,-3.856,-3.8524,-3.8689,-3.8707,-3.8707,-3.8707,-3.8707,-3.8707,-3.8707,-3.8894,-3.9063,-3.9099,-3.9364,-3.9576,-3.9709,-3.9963,-4.012,-4.0177,-4.0389,-4.0489,-4.0489,-4.0489,-4.0489,-4.0489,-4.0489,-4.0489,-4.0546,-4.1258,-4.1662,-4.197,-4.3643,-4.472,-4.5355,-4.5528,-4.5586,-4.5586,-2.5323,-2.5423,0.0,0.0,0.0,0.0,0.0,0.0,0.0,0.0,0.0,0.0,0.0,0.0,0.0,0.0,0.0,-3.2382,-3.2382,-3.2382,-3.2541,-3.2972,-3.3002,-3.3164,-3.3532,-3.2834,-3.2467,-3.2467,0.0,0.0,0.0,0.0,0.0,0.0,-3.4403,0.0,0.0,0.0,-3.6468,0.0,-3.7312,-3.7434,0.0,-3.8395,-3.8707,-3.8707,-3.8707,-3.8707,-3.8707,0.0,-3.8707,-3.8707,0.0,-3.8707,-3.8707,-3.8707,0.0,0.0,0.0,0.0,0.0,0.0,-3.8028,0.0,0.0,0.0,-3.6156,-3.6156,0.0,0.0,0.0,0.0,0.0,0.0,0.0,0.0,-3.4321,-3.5569,-3.7092,-3.8542,-3.8065,-3.7918,-3.8634,-3.8707,-3.8707,-3.8707,-3.8707,-3.8707,-3.8707,-3.8719,-3.8855,-3.9099,-3.9152,-3.9438,-4.0022,-4.0081,-4.0213,-4.0457,-4.0489,-4.0489,-4.0489,-4.0489,-4.0489,-4.0489,-4.0489,-4.0489,-4.0508,-4.0604,-4.1104,-4.197,-4.3643,-4.4355,-4.4528,-4.5316,-4.5586,-4.5586,-2.5663,-2.5947,0.0,0.0,0.0,0.0,0.0,0.0,0.0,0.0,0.0,0.0,0.0,0.0,0.0,0.0,0.0,-3.3421,0.0,0.0,0.0,-3.3422,-3.3832,-3.4082,-3.4098,-3.3771,-3.3486,-3.3311,-3.3311,0.0,0.0,0.0,0.0,0.0,-3.4844,0.0,-3.5327,0.0,-3.6577,0.0,0.0,0.0,0.0,-3.8579,-3.8707,-3.8707,-3.8707,-3.8707,-3.8707,0.0,-3.8707,0.0,0.0,0.0,0.0,-3.8707,0.0,0.0,0.0,0.0,0.0,0.0,0.0,0.0,-3.7617,0.0,-3.6853,0.0,0.0,0.0,0.0,0.0,0.0,0.0,-3.455,0.0,0.0,0.0,-3.5991,0.0,0.0,0.0,-3.7918,0.0,0.0,-3.8707,-3.8707,-3.8707,-3.8707,-3.8844,-3.8971,-3.9099,-3.9289,-3.9622,-4.0101,-4.0101,-4.0232,-4.0489,-4.0489,-4.0489,-4.0489,-4.0489,-4.0489,-4.0489,-4.0489,-4.0489,-4.0489,-4.0489,-4.0719,-4.1162,-4.2374,-4.3431,-4.4335,-4.4701,-4.5163,-4.5586,-2.6589,0.0,0.0,0.0,0.0,0.0,0.0,0.0,0.0,0.0,0.0,0.0,-3.2205,-3.2598,0.0,0.0,-3.3859,-3.3873,0.0,0.0,-3.4156,-3.3758,-3.4231,-3.4482,-3.4425,-3.4408,-3.4281,-3.4055,0.0,0.0,0.0,0.0,0.0,0.0,0.0,-3.5816,-3.6069,0.0,-3.6835,-3.7063,-3.733,-3.7822,-3.8515,-3.8627,-3.8707,-3.8707,-3.8707,-3.8707,-3.8707,-3.8707,-3.8707,0.0,-3.8707,0.0,-3.8707,0.0,0.0,0.0,-3.8707,0.0,0.0,0.0,0.0,0.0,0.0,0.0,0.0,0.0,0.0,0.0,0.0,0.0,0.0,0.0,0.0,-3.4917,0.0,-3.4688,0.0,0.0,0.0,0.0,0.0,0.0,-3.8046,-3.8046,-3.8248,-3.8377,-3.8377,-3.8755,-3.9008,-3.9099,-3.9358,-3.9622,-3.9962,-4.0042,-4.0195,-4.0389,-4.0473,-4.0489,-4.0489,-4.0489,-4.0489,-4.0489,-4.0489,-4.0489,-4.0489,-4.0489,-4.0489,-4.0546,-4.12,-4.2335,-4.3662,-4.4124,-4.4701,-4.5278,-2.8873,-2.889,0.0,0.0,0.0,0.0,0.0,0.0,0.0,0.0,0.0,0.0,0.0,0.0,0.0,0.0,0.0,-3.3414,-3.3363,0.0,-3.3622,0.0,0.0,-3.4303,-3.4677,-3.4677,-3.4659,-3.4677,0.0,0.0,0.0,0.0,0.0,0.0,0.0,-3.7422,-3.7448,-3.7733,-3.7839,-3.7823,-3.7397,-3.7488,-3.798,0.0,-3.8707,-3.8707,-3.8707,0.0,0.0,-3.8707,-3.8707,0.0,0.0,0.0,0.0,0.0,0.0,0.0,0.0,0.0,0.0,-3.8707,0.0,0.0,0.0,0.0,-3.8652,0.0,0.0,0.0,0.0,0.0,0.0,0.0,0.0,0.0,0.0,0.0,0.0,0.0,0.0,0.0,0.0,-3.6358,-3.6376,-3.6376,-3.7092,-3.7533,-3.7533,-3.8267,-3.8844,-3.9099,-3.9125,-3.9264,-3.9622,-3.9922,-4.0101,-4.012,-4.0372,-4.0489,-4.0489,-4.0489,-4.0489,-4.0489,-4.0489,-4.0489,-4.0489,-4.0489,-4.0489,-4.0489,-4.0527,-4.1085,-4.2085,-4.3701,-4.4316,-4.4451,0.0,0.0,0.0,0.0,0.0,0.0,0.0,-3.1596,0.0,0.0,-3.2341,0.0,0.0,-3.3744,-3.3846,0.0,0.0,-3.4455,-3.3474,-3.432,0.0,-3.4371,-3.4832,-3.5084,-3.5014,-3.5053,-3.4926,0.0,0.0,0.0,0.0,0.0,0.0,0.0,0.0,-3.656,0.0,0.0,0.0,0.0,0.0,-3.747,-3.7946,0.0,-3.8707,-3.8707,-3.8707,-3.8707,0.0,-3.8707,-3.8707,-3.8707,-3.8707,-3.8707,-3.8707,-3.8707,-3.8707,0.0,0.0,0.0,-3.8707,-3.8707,0.0,0.0,0.0,0.0,0.0,0.0,0.0,0.0,0.0,0.0,0.0,0.0,0.0,0.0,0.0,0.0,0.0,0.0,0.0,0.0,0.0,0.0,0.0,-3.6303,-3.6541,-3.6927,-3.7489,-3.7753,-3.818,-3.8826,-3.8844,-3.8961,-3.9282,-3.9364,-3.9668,-4.0101,-4.0195,-4.0339,-4.0489,-4.0489,-4.0489,-4.0489,-4.0489,-4.0489,-4.0489,-4.0489,-4.0489,-4.0489,-4.0489,-4.1027,-4.1873,-4.245,-4.3355,-4.4412,-2.9845,0.0,0.0,0.0,0.0,0.0,0.0,0.0,0.0,0.0,-3.3558,0.0,-3.4844,0.0,-3.5301,0.0,-3.5757,-3.5504,-3.4269,-3.5081,0.0,-3.4912,-3.5368,-3.5518,0.0,0.0,0.0,0.0,0.0,-3.5031,0.0,0.0,0.0,0.0,0.0,-3.6468,-3.6684,-3.6843,-3.6724,0.0,0.0,-3.7097,0.0,0.0,-3.8285,-3.8382,0.0,-3.8168,-3.8168,-3.8168,-3.8168,-3.8201,-3.835,-3.8433,-3.8465,-3.8627,-3.8707,-3.8707,-3.8707,-3.8707,0.0,-3.8707,-3.8707,0.0,-3.8707,0.0,-3.8707,0.0,0.0,0.0,0.0,0.0,0.0,0.0,0.0,0.0,0.0,-3.6193,0.0,0.0,0.0,0.0,0.0,-3.5587,-3.5404,-3.5404,-3.5679,-3.6193,0.0,0.0,-3.7863,-3.867,-3.8707,-3.8773,-3.8961,-3.9044,-3.9314,-3.9754,-3.9982,-4.0195,-4.0356,-4.0457,-4.0489,-4.0489,-4.0489,-4.0489,-4.0489,-4.0489,-4.0489,-4.0489,-4.0489,-4.1027,-4.1854,-4.2162,-4.3316,-4.4836,-3.1151,-3.1224,0.0,0.0,-3.1275,0.0,0.0,0.0,-3.3508,0.0,-3.481,-3.5723,-3.5723,-3.64,-3.6823,-3.6772,-3.6772,-3.6451,-3.5673,-3.5622,0.0,0.0,-3.5622,-3.5622,-3.5622,0.0,0.0,0.0,0.0,0.0,0.0,0.0,0.0,0.0,-3.6865,0.0,-3.7097,-3.658,-3.6333,-3.6333,-3.6333,-3.6392,-3.6457,-3.696,-3.7433,-3.7755,-3.736,-3.719,-3.719,-3.719,-3.719,-3.7285,-3.772,-3.7877,-3.798,-3.8496,-3.8658,-3.8676,-3.8707,-3.8707,-3.8707,-3.8707,-3.8707,0.0,0.0,0.0,-3.8707,0.0,0.0,0.0,0.0,0.0,0.0,0.0,0.0,0.0,0.0,0.0,-3.7507,0.0,0.0,0.0,0.0,-3.4302,-3.3807,-3.3807,-3.4523,-3.5349,0.0,0.0,-3.7826,-3.867,-3.8707,-3.8707,-3.8707,-3.8961,-3.9099,-3.9125,-3.9754,-4.0081,-4.0101,-4.0356,-4.0489,-4.0489,-4.0489,-4.0489,-4.0489,-4.0489,-4.0489,-4.0489,-4.0489,-4.1066,-4.197,-4.2835,-4.4162,-4.5528,-3.0435,-3.1314,-3.2171,0.0,-3.2374,-3.2256,0.0,0.0,0.0,0.0,-3.6383,-3.733,-3.733,-3.7499,-3.7398,-3.6823,-3.6772,0.0,0.0,0.0,0.0,-3.5622,-3.5622,-3.5622,-3.5622,-3.5622,-3.5622,-3.5622,0.0,0.0,-3.5622,0.0,0.0,0.0,0.0,0.0,-3.6011,-3.5854,-3.5827,-3.5827,-3.5827,-3.6054,-3.6374,0.0,-3.6316,-3.6825,-3.7097,-3.719,-3.719,-3.719,-3.719,-3.721,-3.7323,-3.736,-3.747,-3.7946,-3.8099,-3.8183,-3.8578,-3.8707,-3.8707,-3.8707,-3.8707,-3.8707,0.0,0.0,0.0,0.0,0.0,0.0,0.0,0.0,0.0,0.0,0.0,0.0,0.0,0.0,0.0,-3.7507,0.0,0.0,-3.6046,-3.4651,-3.3807,-3.3807,-3.399,0.0,0.0,0.0,0.0,-3.867,-3.8707,-3.8707,-3.8707,-3.8762,-3.8894,-3.908,-3.9264,-3.9622,-4.0101,-4.0177,-4.0321,-4.0489,-4.0489,-4.0489,-4.0489,-4.0489,-4.0489,-4.0489,-4.0489,-4.1431,-4.2874,-4.3682,-4.4259,-4.472,-3.1052,-3.2068,0.0,-3.3744,0.0,0.0,-3.432,-3.5081,0.0,-3.6079,-3.7449,0.0,-3.7939,-3.8481,-3.8548,-3.7821,-3.7466,0.0,-3.618,0.0,0.0,-3.5622,-3.5622,-3.5622,-3.5622,-3.5622,0.0,-3.5622,0.0,0.0,-3.5622,0.0,0.0,0.0,0.0,-3.5622,-3.5622,-3.5622,-3.5622,-3.5622,-3.5622,-3.5783,0.0,-3.5694,-3.5783,-3.6097,-3.6399,-3.6522,-3.6522,-3.6522,-3.6522,-3.6563,-3.6764,-3.6843,-3.6981,-3.7685,-3.7893,-3.8032,-3.8546,-3.8707,-3.8707,-3.8707,-3.8707,-3.8707,-3.8707,-3.8707,-3.8707,0.0,-3.8707,-3.8707,0.0,0.0,0.0,0.0,0.0,0.0,0.0,0.0,0.0,0.0,-3.7698,0.0,-3.6853,-3.5312,-3.4321,-3.4321,-3.4009,0.0,0.0,0.0,0.0,-3.8652,-3.8707,-3.8707,-3.8707,-3.8707,-3.8792,-3.8923,-3.9036,-3.9364,-3.988,-4.0022,-4.0251,-4.0489,-4.0489,-4.0489,-4.0489,-4.0489,-4.0489,-4.0527,-4.0912,-4.1893,-4.3201,-4.3989,-4.4528,-4.4932,-3.2269,-3.3034,0.0,0.0,0.0,0.0,0.0,-3.5903,0.0,-3.6975,0.0,-3.8903,-3.8261,-3.9326,-3.9783,-3.9056,-3.8328,-3.7584,-3.6823,-3.6045,-3.5622,-3.5622,-3.5622,-3.5622,-3.5622,-3.5622,-3.5622,0.0,0.0,0.0,0.0,0.0,0.0,0.0,0.0,0.0,0.0,-3.5622,-3.5622,-3.5622,-3.5622,-3.5622,-3.5622,-3.5622,-3.5622,-3.5622,-3.5622,-3.5622,-3.5622,-3.5622,-3.5622,-3.5694,-3.6139,-3.6333,-3.6603,-3.7524,-3.7859,-3.8032,-3.8546,-3.8707,-3.8707,-3.8707,-3.8707,-3.8707,-3.8707,-3.8707,-3.8707,-3.8707,-3.8707,-3.8707,0.0,0.0,0.0,0.0,0.0,0.0,0.0,0.0,0.0,0.0,0.0,0.0,0.0,0.0,0.0,0.0,0.0,0.0,0.0,0.0,0.0,-3.8652,-3.8707,-3.8707,-3.8707,0.0,-3.8707,-3.8707,-3.8952,-3.9231,-3.9534,-3.9838,-4.0139,-4.0457,-4.0457,-4.0473,-4.0489,-4.0489,-4.0489,-4.0566,-4.1335,-4.2239,-4.3181,-4.3874,-4.4759,-4.5586,-3.2959,0.0,0.0,0.0,0.0,-3.6569,-3.6506,-3.7617,-3.8447,-3.8582,-3.936,-3.9834,-3.9715,-3.9935,-3.9783,-3.9056,-3.8328,0.0,0.0,0.0,0.0,-3.5622,-3.5622,-3.5622,-3.5622,-3.5622,-3.5622,0.0,0.0,0.0,0.0,0.0,0.0,0.0,0.0,0.0,-3.5622,-3.5622,0.0,-3.5622,-3.5622,-3.5622,-3.5622,-3.5622,-3.5622,-3.5622,-3.5622,-3.5622,-3.5622,-3.5622,-3.5622,-3.5622,-3.5694,-3.6054,-3.6539,-3.7135,-3.7614,-3.8032,-3.8546,-3.8707,-3.8707,-3.8707,-3.8707,-3.8707,-3.8707,-3.8707,-3.8707,-3.8707,-3.8707,-3.8707,-3.8707,0.0,0.0,0.0,0.0,0.0,0.0,0.0,0.0,0.0,0.0,-3.823,0.0,0.0,0.0,0.0,0.0,0.0,0.0,0.0,0.0,0.0,-3.8707,0.0,0.0,0.0,-3.8707,-3.8707,-3.875,-3.8942,-3.9186,-3.9238,-3.9603,-4.0158,-4.0158,-4.0304,-4.0489,-4.0489,-4.0489,-4.0508,-4.0662,-4.17,-4.3124,-4.3258,-4.4278,-4.5586,-3.2835,0.0,0.0,0.0,0.0,0.0,0.0,-3.8231,-3.8787,-3.842,-3.9059,-3.9512,-3.9512,-3.9851,-3.9783,-3.9056,-3.8328,-3.7584,-3.6823,-3.6045,-3.5622,-3.5622,-3.5622,-3.5622,-3.5622,-3.5622,-3.5622,-3.5622,0.0,0.0,0.0,0.0,0.0,0.0,0.0,-3.5622,0.0,0.0,0.0,-3.5622,-3.5622,-3.5622,-3.5622,-3.5622,-3.5622,-3.5622,-3.5622,-3.5622,-3.5622,-3.5622,-3.5622,-3.5622,-3.5622,-3.5783,-3.6139,-3.6943,-3.736,-3.7703,-3.8483,-3.8707,-3.8707,-3.8707,-3.8707,-3.8707,-3.8707,-3.8707,-3.8707,-3.8707,-3.8707,-3.8707,-3.8707,-3.8707,0.0,0.0,0.0,0.0,0.0,0.0,-3.856,0.0,0.0,0.0,0.0,0.0,0.0,0.0,0.0,0.0,0.0,0.0,0.0,0.0,0.0,0.0,0.0,0.0,0.0,-3.8707,-3.8707,-3.8844,-3.9099,-3.9099,-3.9364,-3.984,-4.0022,-4.0177,-4.0285,-4.0457,-4.0489,-4.0527,-4.0989,-4.195,-4.3143,-4.3566,-4.4509,-4.5586,0.0,-3.365,0.0,0.0,-3.5866,-3.6865,-3.7275,-3.8068,-3.8602,-3.8325,-3.8824,-3.9225,-3.9225,-3.9597,-3.9614,-3.9039,-3.8176,-3.7415,-3.6823,-3.6045,-3.5622,-3.5622,-3.5622,-3.5622,-3.5622,-3.5622,-3.5622,0.0,0.0,0.0,0.0,0.0,0.0,0.0,0.0,0.0,0.0,0.0,-3.5622,-3.5622,-3.5622,-3.5622,-3.5622,-3.5622,-3.5622,-3.5622,-3.5622,-3.5622,-3.5622,-3.5622,-3.5622,-3.5622,-3.5622,-3.5694,-3.5941,-3.6786,-3.7173,-3.7506,-3.8318,-3.8627,-3.8707,-3.8707,-3.8707,-3.8707,-3.8707,-3.8707,-3.8707,-3.8707,-3.8707,-3.8707,-3.8707,-3.8707,0.0,0.0,0.0,0.0,0.0,0.0,-3.8707,0.0,0.0,0.0,-3.8469,0.0,0.0,0.0,0.0,0.0,-3.521,0.0,0.0,0.0,0.0,-3.8707,-3.8707,0.0,-3.8707,-3.8707,-3.8707,-3.8833,-3.9008,-3.9008,-3.9178,-3.9529,-3.9775,-3.9922,-4.0022,-4.0404,-4.0551,-4.0647,-4.151,-4.2427,-4.3326,-4.3958,-4.4801,-4.5586,0.0,0.0,0.0,0.0,0.0,-3.6501,-3.5845,-3.6954,-3.8358,-3.9698,-3.9969,-3.9969,-3.9969,-3.9445,-3.9073,-3.9005,-3.7702,-3.6857,-3.6772,-3.6045,-3.5622,-3.5622,-3.5622,-3.5622,-3.5622,-3.5622,-3.5622,0.0,0.0,-3.5622,0.0,0.0,0.0,0.0,0.0,0.0,0.0,-3.5622,-3.5622,-3.5622,-3.5622,-3.5622,-3.5622,-3.5622,-3.5622,-3.5622,-3.5622,-3.5622,-3.5622,-3.5622,-3.5622,-3.5622,-3.5622,-3.5941,-3.6333,-3.6457,-3.7117,-3.7877,-3.7946,-3.8332,-3.8707,-3.8707,-3.8707,-3.8707,-3.8707,-3.8707,-3.8707,-3.8707,-3.8707,-3.8707,-3.8707,-3.8707,-3.8707,0.0,0.0,0.0,0.0,0.0,-3.8707,-3.8707,0.0,0.0,-3.7661,-3.6817,0.0,0.0,-3.4972,0.0,0.0,0.0,0.0,-3.856,0.0,-3.8707,-3.8707,-3.8707,-3.8707,-3.8707,-3.8707,-3.8719,-3.875,-3.875,-3.8884,-3.9133,-3.916,-3.9383,-3.9721,-4.0457,-4.0778,-4.0854,-4.1666,-4.2705,-4.3745,-4.3821,-4.4576,-4.5586,0.0,0.0,0.0,0.0,0.0,0.0,0.0,-3.6672,-3.7499,-3.8596,-3.8722,-3.8906,-3.9378,-3.9174,-3.8633,-3.7753,-3.7533,-3.7077,-3.6146,-3.5791,-3.5622,-3.5622,-3.5622,-3.5622,-3.5622,-3.5622,-3.5622,0.0,0.0,0.0,0.0,0.0,0.0,0.0,0.0,-3.5622,-3.5622,-3.5622,-3.5622,-3.5622,-3.5622,-3.5622,-3.5622,-3.5622,-3.5622,-3.5622,-3.5622,-3.5622,-3.5622,-3.5622,-3.5622,-3.5622,-3.5622,-3.5739,-3.5968,-3.6308,-3.6666,-3.7117,-3.7755,-3.8065,-3.83,-3.8627,-3.8707,-3.8707,-3.8707,-3.8707,-3.8707,-3.8707,-3.8707,-3.8707,-3.8707,-3.8707,-3.8707,-3.8707,0.0,0.0,0.0,0.0,0.0,-3.8707,0.0,-3.8579,-3.8248,-3.7055,0.0,0.0,0.0,0.0,0.0,0.0,0.0,-3.7955,0.0,-3.8707,-3.8707,-3.8707,-3.8707,-3.8707,-3.8707,-3.8707,-3.8707,-3.8707,-3.8844,-3.9099,-3.9099,-3.9289,-3.9656,-4.0481,-4.0796,-4.0928,-4.2247,-4.3083,-4.3564,-4.4099,-4.4725,-4.5302,-3.3739,0.0,-3.4531,0.0,-3.5182,-3.5692,-3.6213,-3.6275,-3.6507,-3.7054,-3.6974,-3.7273,-3.8505,-3.8484,-3.7922,-3.6874,-3.706,-3.6772,-3.569,-3.5622,-3.5622,-3.5622,-3.5622,0.0,-3.5622,-3.5622,-3.5622,-3.5622,-3.5622,0.0,0.0,0.0,0.0,0.0,-3.5622,-3.5622,-3.5622,-3.5622,-3.5622,-3.5622,-3.5622,-3.5622,-3.5622,-3.5622,-3.5622,-3.5622,-3.5622,-3.5622,-3.5622,-3.5622,-3.5622,-3.5622,-3.5622,-3.5622,-3.565,-3.6054,-3.6266,-3.6563,-3.7268,-3.756,-3.7808,-3.8168,-3.835,-3.8465,-3.8465,-3.8465,-3.8465,-3.8465,-3.8779,-3.8982,-3.8744,-3.8707,-3.8707,-3.8707,0.0,0.0,0.0,-3.8707,0.0,-3.8707,-3.8707,-3.8615,-3.8377,-3.7312,0.0,0.0,0.0,0.0,0.0,0.0,0.0,0.0,0.0,0.0,-3.8707,-3.8707,-3.8707,-3.8707,-3.8707,-3.8707,-3.8707,-3.8707,-3.8803,-3.8971,-3.8971,-3.9136,-3.942,-4.0461,-4.0892,-4.106,-4.2707,-4.3427,-4.3565,-4.4194,-4.4657,-4.4943,-3.4337,-3.4457,-3.4681,-3.537,-3.5489,-3.5489,-3.5504,-3.5504,-3.554,-3.5641,-3.5004,-3.5392,-3.756,-3.7233,-3.6806,-3.6772,-3.6079,-3.5639,-3.5622,-3.5622,-3.5622,0.0,0.0,-3.5622,-3.5622,-3.5622,-3.5622,-3.5622,0.0,0.0,-3.5622,0.0,-3.5622,-3.5622,-3.5622,-3.5622,-3.5622,-3.5622,-3.5622,-3.5622,-3.5622,-3.5622,-3.5622,-3.5622,-3.5622,-3.5622,-3.5622,-3.5622,-3.5622,-3.5622,-3.5622,-3.5622,-3.5622,-3.5622,-3.5622,-3.5622,-3.5968,-3.6416,-3.6416,-3.6803,-3.7228,-3.7228,-3.7578,-3.7893,-3.7893,-3.7893,-3.7893,-3.7893,-3.8951,-3.9643,-3.8854,-3.8707,-3.8707,-3.8707,0.0,0.0,0.0,-3.8707,0.0,-3.8707,-3.8707,-3.8395,-3.7569,-3.7507,0.0,0.0,0.0,0.0,0.0,0.0,0.0,-3.867,-3.8689,0.0,-3.8707,-3.8707,-3.8707,-3.8707,-3.8707,-3.8707,-3.8707,-3.8707,-3.8707,-3.8707,-3.8707,-3.8707,-3.8817,-4.0432,-4.1093,-4.1258,-4.2889,-4.3707,-4.3998,-4.3998,-4.4261,-4.4624,-3.513,-3.5175,-3.525,-3.5474,-3.5504,-3.5504,-3.5504,-3.51,-3.4838,-3.4848,-3.4664,-3.4747,-3.5464,-3.5883,-3.5856,0.0,-3.5984,-3.618,0.0,-3.5622,-3.5622,-3.5622,-3.5622,-3.5622,-3.5622,-3.5622,-3.5622,-3.5622,0.0,0.0,0.0,-3.5622,-3.5622,-3.5622,-3.5622,-3.5622,-3.5622,-3.5622,-3.5622,-3.5622,-3.5622,-3.5622,-3.5622,-3.5622,-3.5622,-3.5622,-3.5622,-3.5622,-3.5622,-3.5622,-3.5622,-3.5622,-3.5622,-3.5622,-3.5622,-3.5622,-3.5739,-3.5941,-3.6308,-3.6539,-3.6724,-3.7097,-3.7323,-3.7433,-3.7433,-3.7685,-3.7893,-3.7893,-3.8532,-3.9001,-3.8762,-3.8707,-3.8707,-3.8707,-3.8707,0.0,-3.8707,0.0,-3.8707,-3.8707,-3.8707,-3.8597,-3.834,-3.7808,0.0,0.0,0.0,0.0,0.0,0.0,0.0,0.0,-3.8707,0.0,-3.8707,-3.8707,-3.8707,-3.8707,-3.8707,-3.8707,-3.8707,-3.8707,-3.8707,-3.8707,-3.8707,-3.9019,-3.9606,-4.0671,-4.1423,-4.2029,-4.3075,-4.3582,-4.3646,-4.3646,-4.3881,-4.4175,-3.5504,-3.5504,-3.5504,-3.5504,-3.5504,-3.5504,-3.5504,-3.4921,-3.4382,-3.4143,-3.4122,-3.404,-3.378,-3.4392,0.0,-3.4626,-3.5444,-3.5756,-3.5241,-3.547,-3.5622,-3.5622,-3.5622,-3.5622,-3.5622,-3.5622,0.0,-3.5622,-3.5622,-3.5622,-3.5622,-3.5622,-3.5622,-3.5622,-3.5622,-3.5622,-3.5622,-3.5622,-3.5622,-3.5622,-3.5622,-3.5622,-3.5622,-3.5622,-3.5622,-3.5622,-3.5622,-3.5622,-3.5622,-3.5622,-3.5622,-3.5622,-3.5622,-3.5622,-3.5622,-3.5622,-3.5622,-3.565,-3.6028,-3.6097,-3.6182,-3.6522,-3.6764,-3.6921,-3.6921,-3.7516,-3.7936,-3.745,-3.8146,-3.878,-3.8437,-3.8546,-3.8707,-3.8707,-3.8707,-3.8707,-3.8707,0.0,-3.8707,0.0,0.0,0.0,0.0,-3.8248,-3.8157,0.0,0.0,0.0,0.0,0.0,0.0,-3.8707,-3.8707,-3.8707,-3.8707,-3.8707,-3.8707,-3.8707,-3.8707,-3.8854,-3.9148,-3.8836,-3.8707,-3.8707,-3.8707,-3.9166,-3.9955,-4.0781,-4.1589,-4.2378,-4.3185,-4.3497,-4.3497,-4.3497,-4.3612,-4.3804,-3.5504,-3.5504,-3.5504,0.0,-3.5504,-3.5504,-3.5504,-3.4921,-3.4262,-3.3649,-3.3559,-3.3305,-3.2647,-3.3157,-3.3761,-3.4425,0.0,0.0,-3.4528,-3.5098,-3.547,-3.5515,-3.5515,-3.556,-3.5622,-3.5622,-3.5622,-3.5622,-3.5622,-3.5622,-3.5622,-3.5622,-3.5622,-3.5622,-3.5622,-3.5622,-3.5622,-3.5622,-3.5622,-3.5622,-3.5622,-3.5622,-3.5622,-3.5622,-3.5622,-3.5622,-3.5622,-3.5622,-3.5622,-3.5622,-3.5622,-3.5622,-3.5622,-3.5622,-3.5622,-3.5622,-3.5622,-3.5622,-3.5622,-3.5622,-3.5622,-3.5622,-3.5985,-3.6333,-3.6333,-3.7323,-3.7919,-3.6655,-3.776,-3.876,-3.8038,-3.83,-3.8676,-3.8707,-3.8707,-3.8707,-3.8707,-3.8707,-3.8707,0.0,0.0,0.0,-3.8707,-3.8707,-3.8707,0.0,0.0,0.0,0.0,0.0,-3.8707,-3.8707,-3.8707,-3.8707,-3.8707,-3.8707,-3.8707,-3.8707,-3.8707,-3.9093,-3.979,-3.9038,-3.8707,-3.8707,-3.8707,-3.9184,-4.0029,-4.0799,-4.1625,-4.2451,-4.3204,-4.3497,-4.3497,-4.3497,-4.3497,-4.3497,0.0,0.0,-3.5504,-3.5504,-3.5504,-3.5504,-3.5504,-3.4921,-3.4412,-3.4262,-3.4247,-3.3993,-3.3335,-3.3427,-3.338,-3.3041,-3.3524,-3.3836,-3.3836,-3.4003,-3.4284,-3.4783,-3.4847,-3.5098,-3.5577,-3.5622,-3.5622,-3.5622,-3.5622,-3.5622,-3.5622,-3.5622,-3.5622,-3.5622,-3.5622,-3.5622,-3.5622,-3.5622,-3.5622,-3.5622,-3.5622,-3.5622,-3.5622,-3.5622,-3.5622,-3.5622,-3.5622,-3.5622,-3.5622,-3.5622,-3.5622,-3.5622,-3.5622,-3.5622,-3.5622,-3.5622,-3.5622,-3.5622,-3.5622,-3.5622,-3.5622,-3.5622,-3.5694,-3.5783,-3.5783,-3.6362,-3.6789,-3.6468,-3.7062,-3.7684,-3.7861,-3.8013,-3.8216,-3.8627,-3.8707,-3.8707,-3.8707,-3.8707,-3.8707,0.0,-3.8707,-3.8707,-3.8707,-3.8707,-3.8707,0.0,0.0,0.0,0.0,-3.8707,-3.8707,-3.8707,-3.8707,-3.8707,-3.8707,-3.8707,-3.8707,-3.8707,-3.8707,-3.8799,-3.8982,-3.8799,-3.8707,-3.8707,-3.8707,-3.9515,-4.0836,-4.1038,-4.1937,-4.3222,-4.3424,-4.3497,-4.3497,-4.3497,-4.3497,-4.3497,-3.5504,-3.5504,-3.5504,-3.5504,-3.5504,-3.5504,-3.5504,-3.4921,-3.4472,-3.4472,-3.4218,-3.3888,-3.3529,-3.323,-3.2901,-3.2542,-3.2903,-3.3145,-3.3145,-3.3443,-3.3735,-3.4137,-3.4137,-3.4284,-3.4657,-3.4704,-3.4864,-3.5144,-3.547,-3.5622,-3.5622,-3.5622,-3.5622,-3.5622,-3.5622,-3.5622,-3.5622,-3.5622,-3.5622,-3.5622,-3.5622,-3.5622,-3.5622,-3.5622,-3.5622,-3.5622,-3.5622,-3.5622,-3.5622,-3.5622,-3.5622,-3.5622,-3.5622,-3.5622,-3.5622,-3.5622,-3.5622,-3.5622,-3.5622,-3.5622,-3.5622,-3.5622,-3.5622,-3.5622,-3.5622,-3.5827,-3.6011,-3.6011,-3.644,-3.6981,-3.7506,-3.7755,-3.8065,-3.8627,-3.8707,-3.8707,-3.8707,-3.8707,-3.8707,-3.8707,-3.8707,-3.8707,-3.8707,-3.8707,-3.8707,-3.8707,-3.8707,0.0,-3.8707,-3.8707,-3.8707,-3.8707,-3.8707,-3.8707,-3.8707,-3.8707,-3.8891,-3.9239,-3.8891,-3.8891,-3.9239,-3.8872,-3.8909,-3.9239,-3.9239,-4.0157,-4.1662,-4.1662,-4.2378,-4.3497,-4.3497,-4.3497,-4.3497,-4.3497,-4.3497,-4.3497,-3.5504,-3.5504,-3.5504,-3.5504,-3.5504,-3.5504,-3.5504,-3.5011,-3.4637,-3.4637,-3.4143,-3.3724,-3.3514,-3.2991,-3.2587,-3.2377,-3.2383,-3.2437,-3.2437,-3.2986,-3.3339,-3.3427,-3.3443,-3.3495,-3.3582,-3.3582,-3.3937,-3.4576,-3.5161,-3.5515,-3.5622,-3.5622,-3.5622,-3.5622,-3.5622,-3.5622,-3.5622,-3.5622,-3.5622,-3.5622,-3.5622,-3.5622,-3.5622,-3.5622,-3.5622,-3.5622,-3.5622,-3.5622,-3.5622,-3.5622,-3.5622,-3.5622,-3.5622,-3.5622,-3.5622,-3.5622,-3.5622,-3.5622,-3.5622,-3.5622,-3.5622,-3.5622,-3.5622,-3.5622,-3.5622,-3.5622,-3.5622,-3.5622,-3.5985,-3.6457,-3.6981,-3.747,-3.7964,-3.8496,-3.8658,-3.8707,-3.8707,0.0,-3.8707,-3.8707,-3.8707,-3.8707,-3.8707,-3.8707,-3.8707,-3.8707,-3.8707,-3.8707,-3.8707,-3.8707,-3.8707,-3.8707,-3.8707,-3.8707,-3.8707,-3.8707,-3.9038,-3.9698,-3.9148,-3.9239,-3.9863,-3.9331,-3.9441,-4.0084,-4.0084,-4.0928,-4.2304,-4.2304,-4.2763,-4.3497,-4.3497,-4.3497,-4.3497,-4.3497,-4.3497,-4.3497,-3.5504,-3.5504,-3.5504,-3.5504,-3.5504,-3.5504,-3.5504,-3.5415,-3.534,-3.534,-3.525,-3.4756,-3.3619,-3.341,-3.2901,-3.1779,-3.1642,-3.1697,-3.1697,-3.1796,-3.2104,-3.2749,-3.2749,-3.3039,-3.3582,-3.3582,-3.3937,-3.4576,-3.4688,-3.5052,-3.5622,-3.5622,-3.5622,-3.5622,-3.5622,-3.5622,-3.5622,-3.5622,-3.5622,-3.5622,-3.5622,-3.5622,-3.5622,-3.5622,-3.5622,-3.5622,-3.5622,-3.5622,-3.5622,-3.5622,-3.5622,-3.5622,-3.5622,-3.5622,-3.5622,-3.5622,-3.5622,-3.5622,-3.5622,-3.5622,-3.5622,-3.5622,-3.5622,-3.5622,-3.5622,-3.5622,-3.5622,-3.5622,-3.5667,-3.5898,-3.6416,-3.6943,-3.747,-3.7946,-3.8415,-3.8707,-3.8707,0.0,-3.8707,-3.8707,-3.8707,-3.8707,-3.8707,-3.8707,-3.8707,-3.8707,-3.8707,-3.8707,-3.8707,-3.8707,-3.8707,-3.8707,-3.8707,-3.8707,-3.8707,-3.8707,-3.8762,-3.8891,-3.9441,-3.9772,-3.9918,-4.0469,-4.0818,-4.0928,-4.0928,-4.1442,-4.2304,-4.2304,-4.2763,-4.3497,-4.3497,-4.3497,-4.3497,-4.3497,-4.3497,-4.3497,-3.5504,-3.5504,-3.5504,-3.5504,-3.5504,-3.5504,-3.5504,-3.5504,-3.5504,-3.5504,-3.519,-3.4711,-3.4098,-3.3395,-3.2721,-3.2108,-3.1676,-3.1482,-3.1482,-3.1482,-3.164,-3.2007,-3.2007,-3.216,-3.2461,-3.2879,-3.3182,-3.3547,-3.4235,-3.4736,-3.5052,-3.5424,-3.5622,-3.5622,-3.5622,-3.5622,-3.5622,-3.5622,-3.5622,-3.5622,-3.5622,-3.5622,-3.5622,-3.5622,-3.5622,-3.5622,-3.5622,-3.5622,-3.5622,-3.5622,-3.5622,-3.5622,-3.5622,-3.5622,-3.5622,-3.5622,-3.5622,-3.5622,-3.5622,-3.5622,-3.5622,-3.5622,-3.5622,-3.5622,-3.5622,-3.5622,-3.5622,-3.5622,-3.5622,-3.5783,-3.6308,-3.6603,-3.702,-3.779,-3.8099,0.0,-3.8658,-3.8707,-3.8707,-3.8707,-3.8707,-3.8707,-3.8707,-3.8707,-3.8707,-3.8707,-3.8707,-3.8707,-3.8707,-3.8707,-3.8707,-3.8707,-3.8707,-3.8707,-3.8707,-3.8707,-3.8707,-3.8707,-3.9074,-3.9478,-3.99,-4.0286,-4.0928,-4.1754,-4.1754,-4.2194,-4.2947,-4.2947,-4.3167,-4.3497,-4.3497,-4.3497,-4.3497,-4.3497,-4.3497,-4.3497,-3.5504,-3.5504,-3.5504,-3.5504,-3.5504,-3.5504,-3.5504,-3.5504,-3.5504,-3.5504,-3.504,-3.4651,-3.4502,-3.344,-3.2677,-3.2527,-3.1913,-3.1482,-3.1482,-3.1482,-3.1482,-3.1482,-3.1482,-3.1482,-3.1482,-3.2064,-3.2437,-3.2586,-3.3633,-3.4235,-3.4382,-3.4894,-3.5207,-3.5362,-3.5362,-3.5453,-3.5622,-3.5622,-3.5622,-3.5622,-3.5622,-3.5622,-3.5622,-3.5622,-3.5622,-3.5622,-3.5622,-3.5622,-3.5622,-3.5622,-3.5622,-3.5622,-3.5622,-3.5622,-3.5622,-3.5622,-3.5622,-3.5622,-3.5622,-3.5622,-3.5622,-3.5622,-3.5622,-3.5622,-3.5622,-3.5622,-3.5622,-3.5622,-3.5622,-3.5739,-3.6139,-3.6308,-3.6643,-3.7415,0.0,-3.8047,0.0,-3.8627,-3.8707,-3.8707,-3.8707,-3.8707,-3.8707,-3.8707,-3.8707,-3.8707,-3.8707,-3.8707,-3.8707,-3.8707,-3.8707,-3.8707,-3.8707,-3.8707,-3.8707,-3.8707,-3.8707,-3.8707,-3.8891,-3.9405,-4.0194,-4.0359,-4.1222,-4.258,-4.258,-4.2928,-4.3497,-4.3497,-4.3497,-4.3497,-4.3497,-4.3497,-4.3497,-4.3497,-4.3497,-4.3497,-3.5504,-3.5504,-3.5504,-3.5504,-3.5504,-3.5504,-3.5504,-3.5504,-3.5504,-3.5504,-3.5459,-3.519,-3.4547,-3.3844,-3.3185,-3.2557,-3.1913,-3.1482,-3.1482,-3.1482,-3.1482,-3.1482,-3.1482,-3.1482,-3.1482,-3.1524,-3.191,-3.2586,-3.2695,-3.3093,-3.3684,-3.3735,-3.4087,-3.4688,-3.4688,-3.5005,-3.5622,-3.5622,-3.5622,-3.5622,-3.5622,-3.5622,-3.5622,-3.5622,-3.5622,-3.5622,-3.5622,-3.5622,-3.5622,-3.5622,-3.5622,-3.5622,-3.5622,-3.5622,-3.5622,-3.5622,-3.5622,-3.5622,-3.5622,-3.5622,-3.5622,-3.5622,-3.5622,-3.5622,-3.5622,-3.5622,-3.5622,-3.5622,-3.5622,-3.5622,-3.5667,-3.6071,-3.6416,-3.6498,0.0,0.0,-3.7946,-3.8382,-3.8707,-3.8707,-3.8707,-3.8707,-3.8707,-3.8707,-3.8707,-3.8707,-3.8707,-3.8707,-3.8707,-3.8707,-3.8707,-3.8707,-3.8707,-3.8707,-3.8707,-3.8707,-3.8707,-3.8707,-3.946,-4.023,-4.1056,-4.1791,-4.258,-4.3406,-4.3406,-4.3442,-4.3497,-4.3497,-4.3497,-4.3497,-4.3497,-4.3497,-4.3497,-4.3497,-4.3497,-4.3497,-3.5504,-3.5504,-3.5504,-3.5504,-3.5504,-3.5504,-3.5504,-3.5145,-3.5026,-3.5444,-3.513,-3.4756,-3.4502,-3.3888,-3.323,-3.2572,-3.1913,-3.1482,-3.1482,-3.1482,-3.1482,-3.1482,-3.1482,-3.1482,-3.1482,-3.1482,-3.164,-3.191,-3.2382,-3.2749,-3.2986,-3.3391,-3.3735,-3.3987,-3.4431,-3.4736,-3.5005,-3.5407,-3.5622,-3.5622,-3.5622,-3.5622,-3.5622,-3.5622,-3.5622,-3.5622,-3.5622,-3.5622,-3.5622,-3.5622,-3.5622,-3.5622,-3.5622,-3.5622,-3.5622,-3.5622,-3.5622,-3.5622,-3.5622,-3.5622,-3.5622,-3.5622,-3.5622,-3.5622,-3.5622,-3.5622,-3.5622,-3.5622,-3.5622,-3.5622,-3.5622,-3.5783,-3.6011,-3.635,0.0,-3.7193,-3.7825,-3.8065,-3.835,-3.8658,-3.8707,-3.8707,-3.8707,-3.8707,-3.8707,-3.8707,-3.8707,-3.8707,-3.8707,-3.8707,-3.8707,-3.8707,-3.8707,-3.8707,-3.8707,-3.8707,-3.8707,-3.8707,-3.9019,-3.9845,-4.113,-4.1423,-4.2268,-4.3497,-4.3497,-4.3497,-4.3497,-4.3497,-4.3497,-4.3497,-4.3497,-4.3497,-4.3497,-4.3497,-4.3497,-4.3497,-3.5459,-3.5325,-3.525,-3.5474,-3.5325,-3.519,-3.519,-3.4786,-3.4651,-3.5115,-3.4966,-3.4801,-3.4801,-3.4023,-3.3305,-3.2856,-3.2033,-3.1482,-3.1482,-3.1482,-3.1482,-3.1482,-3.1482,-3.1482,-3.1482,-3.1482,-3.1482,-3.1482,-3.2007,-3.2272,-3.2272,-3.2718,-3.3077,-3.3339,-3.3987,-3.4382,-3.4624,-3.5316,-3.5622,-3.5622,-3.5622,-3.5622,-3.5622,-3.5622,-3.5622,-3.5622,-3.5622,-3.5622,-3.5622,-3.5622,-3.5622,-3.5622,-3.5622,-3.5622,-3.5622,-3.5622,-3.5622,-3.5622,-3.5622,-3.5622,-3.5622,-3.5622,-3.5622,-3.5622,-3.5622,-3.5622,-3.5622,-3.5622,-3.5622,-3.5622,-3.5622,-3.5622,-3.5739,-3.6097,-3.6308,-3.6643,-3.7342,-3.772,-3.8032,-3.8433,-3.8596,-3.8707,-3.8707,-3.8707,-3.8707,-3.8707,-3.8707,-3.8707,-3.8707,-3.8707,-3.8707,-3.8707,-3.8707,-3.8707,-3.8707,-3.8707,-3.8707,-3.8707,-3.8707,-3.9551,-4.1111,-4.1111,-4.1992,-4.3497,-4.3497,-4.3497,-4.3497,-4.3497,-4.3497,-4.3461,-4.3222,-4.3277,-4.3461,-4.3222,-4.3277,-4.3497,-3.537,-3.4936,-3.4681,-3.537,-3.4921,-3.4472,-3.4472,-3.4472,-3.4472,-3.4472,-3.5055,-3.5489,-3.5489,-3.4292,-3.3484,-3.3484,-3.2287,-3.1482,-3.1482,-3.1482,-3.1482,-3.1482,-3.1482,-3.1482,-3.1482,-3.1482,-3.1482,-3.1482,-3.1482,-3.1482,-3.1482,-3.1482,-3.191,-3.2641,-3.3287,-3.3987,-3.464,-3.5299,-3.5622,-3.5622,-3.5622,-3.5622,-3.5622,-3.5622,-3.5622,-3.5622,-3.5622,-3.5622,-3.5622,-3.5622,-3.5622,-3.5622,-3.5622,-3.5622,-3.5622,-3.5622,-3.5622,-3.5622,-3.5622,-3.5622,-3.5622,-3.5622,-3.5622,-3.5622,-3.5622,-3.5622,-3.5622,-3.5622,-3.5622,-3.5622,-3.5622,-3.5622,-3.5622,-3.5622,-3.6071,-3.6392,-3.6374,-3.7268,-3.7893,-3.7893,-3.8382,-3.8707,-3.8707,-3.8707,-3.8707,-3.8707,-3.8707,-3.8707,-3.8707,-3.8707,-3.8707,-3.8707,-3.8707,-3.8707,-3.8707,-3.8707,-3.8707,-3.8707,-3.8707,-3.9551,-4.1111,-4.1111,-4.1974,-4.3461,-4.3461,-4.3461,-4.3479,-4.3479,-4.3479,-4.3406,-4.2616,-4.28,-4.3387,-4.2598,-4.28,-4.3497,-3.4741,-3.4247,-3.3858,-3.4053,-3.3918,-3.3784,-3.3784,-3.3395,-3.3425,-3.4352,-3.3844,-3.3574,-3.4053,-3.332,-3.2617,-3.2153,-3.1764,-3.1482,-3.1482,-3.1482,-3.1482,-3.1482,-3.1482,-3.1482,-3.1482,-3.1482,-3.1482,-3.1482,-3.1482,-3.1482,-3.1482,-3.1482,-3.164,-3.191,-3.3077,-3.3735,-3.3987,-3.5115,-3.5622,-3.5622,-3.5622,-3.5622,-3.5622,-3.5622,-3.5622,-3.5622,-3.5622,-3.5622,-3.5622,-3.5622,-3.5622,-3.5622,-3.5622,-3.5622,-3.5622,-3.5622,-3.5622,-3.5622,-3.5622,-3.5622,-3.5622,-3.5622,-3.5622,-3.5622,-3.5622,-3.5622,-3.5622,-3.5622,-3.5622,-3.5622,-3.5622,-3.5622,-3.5622,-3.5622,-3.5739,-3.5985,-3.635,-3.6643,-3.7117,-3.7825,-3.8032,-3.83,-3.8658,-3.8707,-3.8707,-3.8707,-3.8707,-3.8707,-3.8707,-3.8707,-3.8707,-3.8707,-3.8707,-3.8707,-3.8707,-3.8707,-3.8707,-3.8707,-3.8707,-3.9258,-4.0267,-4.0267,-4.0836,-4.1827,-4.1827,-4.2139,-4.2653,-4.2653,-4.2983,-4.3461,-4.3222,-4.3277,-4.3461,-4.3222,-4.3277,-4.3497,-3.4427,-3.3739,-3.3185,-3.344,-3.3275,-3.3095,-3.3095,-3.2766,-3.2796,-3.3589,-3.323,-3.3051,-3.3455,-3.2901,-3.2362,-3.1958,-3.1616,-3.1482,-3.1482,-3.1482,-3.1482,-3.1482,-3.127,-3.1255,-3.1467,-3.1482,-3.1482,-3.1482,-3.1482,-3.1482,-3.1482,-3.1482,-3.1482,-3.1524,-3.2664,-3.3339,-3.3684,-3.4752,-3.5207,-3.5207,-3.547,-3.527,-3.4864,-3.5424,-3.5424,-3.5253,-3.5515,-3.5622,-3.5622,-3.5622,-3.5622,-3.5571,-3.5267,-3.5385,-3.5554,-3.5267,-3.5385,-3.5622,-3.5622,-3.5622,-3.5622,-3.5622,-3.5622,-3.5622,-3.5622,-3.5622,-3.5622,-3.5622,-3.5622,-3.5622,-3.5622,-3.5622,-3.5622,-3.5622,-3.5622,-3.5694,-3.6054,-3.6266,-3.6643,-3.723,-3.7488,-3.7808,-3.8332,-3.8382,-3.8465,-3.8658,-3.8707,-3.8707,-3.8707,-3.8707,-3.8707,-3.8707,-3.8707,-3.8707,-3.8707,-3.8707,-3.8707,-3.8707,-3.8707,-3.9129,-3.99,-3.99,-4.0341,-4.1111,-4.1111,-4.1387,-4.1827,-4.1827,-4.2121,-4.2525,-4.2194,-4.2268,-4.2543,-4.2543,-4.2543,-4.2598,-3.4188,-3.329,-3.2617,-3.3215,-3.2826,-3.2422,-3.2422,-3.2422,-3.2452,-3.2497,-3.2976,-3.3335,-3.3395,-3.2826,-3.2422,-3.2422,-3.1884,-3.1482,-3.1482,-3.1482,-3.1482,-3.1482,-3.0866,-3.0806,-3.1377,-3.1377,-3.1377,-3.1377,-3.1437,-3.1482,-3.1482,-3.1482,-3.1437,-3.145,-3.2241,-3.2902,-3.3451,-3.4137,-3.4478,-3.4576,-3.5094,-3.4655,-3.3735,-3.5005,-3.5144,-3.4688,-3.5362,-3.5622,-3.5605,-3.5537,-3.552,-3.5385,-3.4624,-3.4912,-3.5385,-3.4692,-3.503,-3.5622,-3.5622,-3.5622,-3.5622,-3.5622,-3.5622,-3.5622,-3.5622,-3.5622,-3.5622,-3.5622,-3.5622,-3.5622,-3.5622,-3.5622,-3.5622,-3.5622,-3.5622,-3.5622,-3.5622,-3.6028,-3.635,-3.6374,-3.6843,-3.7323,-3.7859,-3.7946,-3.8183,-3.8658,-3.8707,-3.8707,-3.8707,-3.8707,-3.8707,-3.8707,-3.8707,-3.8707,-3.8707,-3.8707,-3.8707,-3.8707,-3.8707,-3.9074,-3.979,-3.979,-4.0194,-4.091,-4.091,-4.0946,-4.1001,-4.1001,-4.1056,-4.1038,-4.0286,-4.0451,-4.113,-4.1185,-4.1222,-4.1313,-3.2916,-3.2302,-3.1735,-3.1943,-3.1839,-3.1749,-3.1749,-3.1749,-3.1928,-3.2437,-3.2198,-3.2153,-3.2677,-3.2138,-3.1749,-3.1749,-3.1556,-3.1482,-3.1482,-3.1482,-3.1482,-3.1482,-3.0866,-3.0567,-3.0717,-3.0731,-3.0731,-3.0731,-3.127,-3.1482,-3.1482,-3.1482,-3.124,-3.0746,-3.2026,-3.24,-3.2097,-3.2766,-3.3337,-3.3788,-3.3388,-3.3403,-3.3684,-3.4496,-3.4736,-3.4688,-3.5362,-3.5622,-3.552,-3.4928,-3.4742,-3.4607,-3.388,-3.415,-3.4709,-3.4539,-3.503,-3.5622,-3.5622,-3.5622,-3.5622,-3.5622,-3.5622,-3.5622,-3.5622,-3.5622,-3.5622,-3.5622,-3.5622,-3.5622,-3.5622,-3.5622,-3.5622,-3.5622,-3.5622,-3.5622,-3.5622,-3.5694,-3.5941,-3.6333,-3.6498,-3.6904,-3.7825,-3.8267,-3.8578,-3.8707,-3.8707,-3.8707,-3.8707,-3.8707,-3.8707,-3.8707,-3.8707,-3.8707,-3.8707,-3.8707,-3.8707,-3.8707,-3.8707,-3.8799,-3.8964,-3.8964,-3.9056,-3.9221,-3.9221,-3.9588,-4.0157,-4.0157,-4.0524,-4.1093,-4.0928,-4.0965,-4.1185,-4.1809,-4.2047,-4.2066,-3.2512,-3.1988,-3.1482,-3.1482,-3.1482,-3.1482,-3.1482,-3.1482,-3.1601,-3.2003,-3.1749,-3.1601,-3.2003,-3.1676,-3.1482,-3.1482,-3.1482,-3.1482,-3.1482,-3.1225,-3.1046,-3.1046,-3.0118,-2.9594,-2.9594,-2.9594,-2.9744,-3.0058,-3.0417,-3.0597,-3.0597,-3.0597,-3.0417,-3.0073,-3.0858,-3.1359,-3.1632,-3.1966,-3.2514,-3.3114,-3.3096,-3.2902,-3.2741,-3.3713,-3.3891,-3.3746,-3.4734,-3.5081,-3.503,-3.4624,-3.4269,-3.3846,-3.3102,-3.3609,-3.4421,-3.4083,-3.4506,-3.5081,-3.5081,-3.5081,-3.5081,-3.5081,-3.5351,-3.5622,-3.5622,-3.5622,-3.5622,-3.5622,-3.5622,-3.5622,-3.5622,-3.5622,-3.5622,-3.5622,-3.5622,-3.5622,-3.5622,-3.5622,-3.5694,-3.5985,-3.6028,-3.6333,-3.7117,-3.7877,-3.83,-3.83,-3.8546,-3.8707,-3.8707,-3.8707,-3.8707,-3.8707,-3.8707,-3.8707,-3.8707,-3.8707,-3.8707,-3.8707,-3.8707,-3.8707,-3.8707,-3.8707,-3.8707,-3.8707,-3.8707,-3.8946,-3.9331,-3.9331,-3.9588,-3.9974,-3.9974,-3.9974,-4.0065,-4.0855,-4.1405,-4.168,-3.2347,-3.1855,-3.1482,-3.1482,-3.1482,-3.1482,-3.1482,-3.1482,-3.1482,-3.1482,-3.1482,-3.1482,-3.1482,-3.1482,-3.1482,-3.1482,-3.1482,-3.1482,-3.1482,-3.0881,-3.0507,-3.0507,-2.928,-2.8607,-2.8607,-2.8487,-2.8742,-2.9415,-2.952,-2.9579,-2.9579,-2.9579,-2.952,-2.9415,-2.9535,-3.0167,-3.1081,-3.1204,-3.1636,-3.2292,-3.2725,-3.2292,-3.1483,-3.2672,-3.2805,-3.253,-3.3829,-3.4303,-3.4286,-3.415,-3.3711,-3.3085,-3.2324,-3.3017,-3.3998,-3.3389,-3.3728,-3.4303,-3.4303,-3.4387,-3.4489,-3.4489,-3.5064,-3.5622,-3.5622,-3.5622,-3.5622,-3.5622,-3.5622,-3.5622,-3.5622,-3.5622,-3.5622,-3.5622,-3.5622,-3.5622,-3.5622,-3.5622,-3.5622,-3.5622,-3.5813,-3.6085,-3.6523,-3.7443,-3.7899,-3.7808,-3.8201,-3.8433,-3.8433,-3.8515,-3.8546,-3.8546,-3.8658,-3.8707,-3.8707,-3.8836,-3.8909,-3.8909,-3.9038,-3.9038,-3.8909,-3.8762,-3.8781,-3.8909,-3.8762,-3.8707,-3.8707,-3.8707,-3.8707,-3.8707,-3.8707,-3.8707,-3.8799,-3.9588,-4.0322,-4.0799,-3.1616,-3.1541,-3.1482,-3.1482,-3.1482,-3.1482,-3.1482,-3.1482,-3.1482,-3.1482,-3.1482,-3.1482,-3.1482,-3.1482,-3.1482,-3.1482,-3.1482,-3.1482,-3.1482,-3.0881,-3.0507,-3.0507,-2.928,-2.8607,-2.8607,-2.8008,-2.8038,-2.8742,-2.931,-2.9579,-2.9579,-2.9579,-2.928,-2.8757,-2.9325,-2.9364,-2.9049,-2.9621,-3.0223,-3.0749,-3.0301,-3.0368,-3.0719,-3.1492,-3.171,-3.1806,-3.3078,-3.3558,-3.3457,-3.2797,-3.251,-3.2307,-3.1562,-3.1901,-3.256,-3.2459,-3.2966,-3.3558,-3.3558,-3.4015,-3.4489,-3.4489,-3.5064,-3.5622,-3.5622,-3.5622,-3.5622,-3.5622,-3.5622,-3.5622,-3.5622,-3.5622,-3.5622,-3.5622,-3.5622,-3.5622,-3.5622,-3.5622,-3.5622,-3.5622,-3.6576,-3.7258,-3.7343,-3.7905,-3.7993,-3.7339,-3.736,-3.7414,-3.7414,-3.7808,-3.8013,-3.8013,-3.8465,-3.8707,-3.8707,-3.9386,-3.9735,-3.9753,-4.0451,-4.0414,-3.9698,-3.9019,-3.9074,-3.9698,-3.9001,-3.8707,-3.8707,-3.8707,-3.8707,-3.8707,-3.8707,-3.8707,-3.8799,-3.9588,-3.9955,-4.0047,-3.1482,-3.1482,-3.1482,-3.1482,-3.1482,-3.1482,-3.1482,-3.1482,-3.1482,-3.1482,-3.1482,-3.1482,-3.1482,-3.1195,-3.0956,-3.0956,-3.0956,-3.0956,-3.0956,-3.0357,-2.9819,-2.946,-2.8532,-2.8023,-2.8023,-2.7724,-2.7724,-2.8023,-2.8323,-2.8457,-2.8457,-2.8457,-2.8293,-2.8038,-2.8323,-2.8712,-2.9146,-2.9071,-2.9609,-3.0447,-2.9834,-2.9744,-3.0018,-3.0266,-3.0576,-3.1035,-3.2352,-3.278,-3.273,-3.2391,-3.2019,-3.1613,-3.1292,-3.1698,-3.2313,-3.2313,-3.251,-3.278,-3.278,-3.3322,-3.388,-3.388,-3.4759,-3.5622,-3.5622,-3.5622,-3.5622,-3.5622,-3.5622,-3.5622,-3.5622,-3.5622,-3.5622,-3.5622,-3.5622,-3.5622,-3.5622,-3.5994,-3.6417,-3.6857,-3.7019,-3.7285,-3.7667,-3.8166,-3.8349,-3.8,-3.8267,-3.8426,-3.8426,-3.8249,-3.813,-3.813,-3.8198,-3.8249,-3.8249,-3.8894,-3.946,-3.99,-3.9808,-3.9808,-3.9882,-3.9533,-3.9313,-3.9203,-3.8854,-3.8707,-3.8707,-3.8707,-3.8707,-3.8707,-3.8707,-3.8707,-3.8744,-3.9093,-3.9515,-3.99]}]]